GFSWCAN_sfc_thetae_000.txt.gz
Theta_e
307 307 307 307 307 307 307 308 308 309 309 310 309 308 307 307 307 316 324 325 323 317 313 315 314 312 311 311 307 309 307 309 307 291 293 298 292 298 296 297 292 290 289 286 289 286 284 302 300 293 300 304 302 301
305 305 306 306 306 306 307 307 307 308 308 309 310 308 308 307 307 309 323 324 326 321 315 321 318 319 316 315 314 313 308 308 310 303 299 301 290 290 294 290 299 293 298 296 294 294 303 304 302 305 304 302 301 300
303 304 304 305 306 305 306 306 306 307 308 308 308 308 308 308 308 310 324 325 327 322 315 314 312 317 321 320 325 310 315 313 312 314 300 294 288 296 287 295 298 299 302 299 297 300 301 304 305 305 304 302 302 302
302 303 303 303 305 305 305 305 305 306 307 307 308 307 308 308 308 309 323 324 323 312 291 313 317 315 318 320 319 322 318 319 317 310 295 290 289 304 294 298 299 301 301 299 298 301 302 303 303 303 302 303 302 302
302 302 302 303 303 304 304 304 304 304 305 305 306 305 305 309 308 316 325 324 324 318 301 310 314 315 317 319 317 318 317 315 312 300 290 293 306 305 304 301 299 302 298 296 295 302 302 301 302 302 301 301 301 300
302 302 302 302 302 303 303 304 304 304 303 303 305 306 305 306 307 322 314 323 323 324 310 299 314 311 314 316 315 314 315 315 313 306 296 304 309 306 291 292 300 302 303 304 301 305 304 303 303 303 300 299 299 297
302 301 301 302 302 302 303 303 303 304 303 303 305 305 305 306 317 314 311 313 309 322 307 299 304 308 310 313 314 313 316 313 311 309 305 303 306 305 291 291 300 302 303 304 305 304 300 301 299 302 299 298 297 296
301 301 301 301 301 301 302 303 303 304 304 305 305 305 305 305 308 313 316 312 311 317 313 299 296 299 308 300 300 307 304 306 307 305 303 301 305 303 294 300 302 303 303 302 302 302 301 302 302 298 297 296 293 291
301 301 301 300 301 301 301 302 303 304 304 304 305 305 312 311 311 314 305 307 322 314 306 295 291 290 307 298 299 300 302 293 304 295 297 299 294 291 298 299 300 302 300 300 301 301 299 297 295 295 293 292 290 290
301 301 301 301 301 301 302 302 302 303 304 304 306 302 295 299 305 306 312 310 307 311 307 293 302 294 302 294 291 294 294 292 289 292 294 289 291 299 301 302 303 302 302 301 297 295 295 293 292 291 290 291 291 290
301 301 301 301 301 302 303 302 303 303 304 301 295 291 298 303 306 303 295 295 295 293 298 297 296 293 301 292 290 294 289 290 287 290 290 287 287 294 300 301 301 301 301 300 299 298 296 292 290 290 291 291 289 288
301 301 301 301 301 302 302 302 303 304 301 299 299 300 299 295 290 291 289 289 290 292 292 288 293 298 295 301 294 289 287 286 285 291 285 286 293 298 299 298 299 299 298 296 294 292 292 291 291 291 290 289 287 287
299 301 301 301 301 303 302 301 302 301 302 298 292 288 290 286 284 285 284 285 286 287 287 287 286 290 290 292 286 286 284 285 289 285 284 290 295 297 298 298 297 295 291 292 291 291 291 290 289 285 286 286 285 286
299 301 301 301 301 302 301 300 301 302 297 288 285 284 285 285 285 285 285 285 287 286 287 288 286 287 286 286 285 284 286 287 283 282 284 291 294 296 297 297 294 290 286 288 289 290 287 287 285 285 285 285 284 284
299 301 302 301 300 300 299 299 299 303 297 289 288 284 285 286 286 286 285 286 287 290 288 287 287 288 285 284 285 285 282 281 283 284 288 291 293 293 292 293 289 287 285 287 290 288 285 285 285 286 286 286 286 286
299 299 302 300 300 299 299 301 300 299 295 291 288 286 286 286 285 285 285 285 290 289 291 290 285 285 284 285 283 283 282 281 286 289 293 290 289 290 290 290 289 290 289 289 289 288 287 286 285 286 287 286 286 285
298 299 300 299 298 298 299 298 297 290 289 286 285 286 286 286 285 286 287 289 293 288 285 287 284 282 285 283 283 286 284 287 288 292 291 290 289 290 290 290 287 288 289 289 289 289 288 287 287 286 285 287 288 287
299 301 299 299 301 299 296 296 294 291 286 289 288 286 288 288 286 287 289 293 292 289 290 286 288 283 282 281 284 288 290 289 292 291 290 291 291 291 291 290 291 290 289 288 288 288 287 286 286 288 289 290 289 288
298 301 299 299 300 296 290 290 292 287 286 287 287 289 288 287 289 289 288 291 292 292 290 288 285 284 286 288 287 286 288 290 290 290 292 291 290 289 289 289 288 289 288 288 288 289 290 289 289 290 291 290 289 290
299 299 298 297 297 293 287 289 294 289 286 288 288 288 286 286 286 286 287 288 289 289 286 285 286 289 290 292 293 292 293 293 292 290 289 291 292 290 290 290 290 290 290 290 290 287 290 290 291 291 290 290 289 288
298 297 296 295 293 294 292 289 288 290 288 286 286 288 284 286 285 286 286 289 286 286 285 290 290 289 294 293 294 294 293 292 291 291 289 288 291 291 290 290 291 291 290 290 290 290 289 289 290 292 288 287 286 286
294 296 290 291 287 288 289 291 289 290 287 285 285 288 283 282 283 284 287 285 285 289 291 292 292 293 292 290 292 292 292 290 291 290 287 288 288 289 290 291 291 290 290 290 289 288 289 291 291 290 287 286 286 286
294 291 288 286 285 285 283 290 286 286 282 282 285 282 281 282 283 285 282 285 287 291 293 293 293 293 292 293 290 291 291 290 289 290 292 291 291 290 291 291 291 288 288 289 291 290 289 288 288 286 286 285 285 285
291 285 285 284 285 282 285 283 286 285 285 283 282 280 281 282 283 282 281 285 289 292 290 290 290 289 291 289 288 290 291 291 290 293 291 290 289 289 290 290 290 290 290 291 290 288 287 286 285 286 285 285 284 284
283 281 283 280 284 281 280 280 281 282 280 281 280 280 280 282 280 280 280 285 285 284 285 288 290 290 290 290 291 290 289 289 288 287 289 290 289 288 288 289 289 289 290 287 286 285 285 285 285 285 284 284 283 282
279 281 281 282 281 281 281 279 280 280 280 279 280 281 282 281 278 278 282 284 283 283 283 284 285 287 287 287 285 284 283 285 284 282 285 284 283 282 281 281 282 284 282 283 283 283 283 284 284 284 283 283 283 282
279 279 282 285 284 283 281 283 283 281 279 278 280 278 278 275 276 281 283 281 281 282 283 284 283 282 281 281 282 282 282 281 280 279 281 283 284 280 279 277 276 278 281 281 281 281 281 281 282 282 282 283 282 282
282 283 278 282 282 284 280 280 279 279 281 283 282 277 277 278 278 279 279 280 281 282 283 283 282 280 280 280 281 281 279 279 279 280 281 282 282 279 277 278 278 277 278 278 278 279 279 279 279 280 279 279 279 281
281 284 283 278 281 281 281 281 281 284 286 285 282 280 281 278 277 278 278 279 281 280 278 277 277 279 279 280 280 279 277 275 272 270 270 272 272 273 275 275 275 274 275 275 276 277 277 278 278 278 278 278 277 277
280 284 281 279 278 280 282 285 284 284 288 286 287 283 279 275 275 277 277 276 275 275 276 276 276 275 274 274 274 275 276 274 272 270 267 267 268 271 272 272 271 272 273 273 273 274 276 276 276 278 275 273 272 272
282 283 281 281 281 282 282 282 283 283 284 284 284 283 276 273 273 273 274 275 275 275 274 273 273 274 272 271 271 270 270 273 272 271 270 270 270 270 269 269 270 271 271 271 271 272 272 272 273 272 271 269 268 268
282 280 280 279 281 282 283 281 282 281 283 281 282 278 277 276 271 271 272 273 272 271 270 270 269 270 271 272 273 273 271 271 271 270 270 269 268 268 268 268 269 269 267 268 269 271 270 269 269 267 267 265 265 264
280 280 279 279 279 279 281 280 280 279 280 279 278 276 273 273 268 270 273 273 271 270 269 269 270 271 272 271 270 272 271 271 270 270 269 268 267 267 267 267 267 267 265 265 268 269 267 266 264 264 263 262 261 260

GFSWCAN_sfc_thetae_003.txt.gz
Theta_e
307 307 306 306 306 307 307 308 308 309 310 309 308 307 307 307 307 312 316 318 317 305 306 312 312 304 306 303 293 300 296 297 289 286 285 285 282 285 285 291 287 283 280 283 281 278 276 298 297 288 292 297 297 297
306 306 306 306 307 307 307 307 307 308 309 309 307 307 307 307 307 309 316 319 321 312 309 314 313 312 310 310 305 303 298 302 297 290 289 290 285 287 283 280 295 285 289 285 286 285 294 299 297 301 301 298 297 295
304 305 305 305 306 306 306 306 307 307 308 308 308 307 307 307 307 309 316 317 318 305 306 308 307 314 316 314 315 302 301 308 305 302 293 291 286 290 284 287 286 294 299 287 288 296 297 299 302 302 301 299 299 299
303 303 304 304 305 307 305 305 305 307 308 308 307 306 305 307 307 309 315 317 313 303 289 302 313 310 314 315 315 314 310 311 307 299 291 289 285 296 287 289 287 292 297 293 290 296 298 299 300 301 300 301 301 302
302 302 302 303 304 305 305 305 305 305 305 303 304 305 304 305 307 310 317 316 317 309 292 296 310 312 314 314 313 313 310 307 301 291 288 287 288 291 288 287 286 298 294 288 286 298 297 297 300 301 299 299 301 300
301 302 302 302 302 303 304 304 305 304 303 303 304 304 305 305 306 314 308 315 312 316 301 290 306 306 309 311 310 310 309 307 304 294 288 294 304 293 287 285 296 301 302 301 296 302 301 300 301 302 299 297 295 294
301 301 301 301 302 302 303 304 304 304 302 303 304 305 306 306 311 307 305 307 306 312 295 291 290 300 305 308 305 306 308 305 302 294 289 289 293 298 287 288 297 300 301 300 303 301 297 300 297 300 297 295 295 291
301 301 301 301 301 302 302 303 304 304 304 303 304 306 306 305 306 308 310 307 307 309 300 291 290 292 304 292 292 300 295 298 299 297 295 290 293 288 285 296 299 301 301 300 300 300 299 301 300 297 295 291 288 287
300 300 300 301 301 301 302 302 303 304 304 304 305 306 310 306 300 306 305 305 314 306 290 289 288 287 299 294 294 293 296 288 296 289 291 293 288 289 293 297 298 298 298 297 299 300 300 296 293 292 290 288 287 286
300 300 301 301 301 302 302 302 303 304 304 305 306 303 294 298 304 305 307 297 295 294 296 289 295 289 297 289 288 289 288 287 287 289 293 287 288 294 298 298 298 298 299 299 294 292 292 291 289 288 288 288 288 286
301 301 301 301 302 301 302 303 303 304 305 302 295 291 298 303 304 298 291 290 292 289 294 293 291 290 295 288 287 289 286 287 285 285 287 284 285 290 296 297 298 299 300 299 298 295 292 290 288 287 287 286 284 283
302 302 301 302 301 301 302 303 303 303 300 299 299 300 298 295 290 290 288 288 288 288 289 289 291 292 291 296 288 287 286 286 283 288 285 282 286 294 295 295 297 296 294 292 292 290 289 289 289 285 284 283 281 282
300 301 301 302 302 301 301 301 301 301 301 297 293 288 291 286 284 285 284 285 285 286 287 287 286 287 289 290 286 286 285 284 287 284 282 282 292 295 296 290 289 289 288 289 289 288 287 286 285 280 281 279 280 283
299 301 301 301 301 301 300 300 301 301 295 288 286 284 284 284 284 284 284 285 286 285 286 286 285 286 285 285 285 283 284 284 281 278 276 286 292 293 293 290 287 286 284 284 285 284 282 281 279 277 278 278 275 278
299 301 301 300 300 300 300 300 300 299 293 286 286 283 283 284 285 285 285 285 286 288 287 286 286 287 284 283 284 283 280 279 281 281 283 286 289 290 288 288 285 283 282 284 285 283 281 280 277 280 280 281 283 284
299 299 300 300 300 300 300 300 297 295 287 287 285 284 285 285 285 285 285 285 289 287 287 286 284 284 283 283 281 281 280 279 282 284 285 286 286 286 286 286 285 285 285 285 285 283 283 280 279 281 283 285 284 285
299 296 300 299 299 299 299 296 293 286 286 285 283 285 285 285 284 285 285 286 291 286 285 285 282 280 283 281 280 284 282 284 285 285 285 286 286 286 287 287 284 285 286 285 284 285 282 281 280 284 283 284 281 282
296 299 300 300 300 299 294 294 290 287 282 284 285 284 285 285 285 285 286 288 287 285 284 283 284 281 280 279 280 283 284 285 284 285 285 286 287 287 288 286 288 286 285 283 282 283 281 280 281 283 284 285 283 282
297 299 299 299 297 292 287 288 290 284 283 285 285 285 285 285 286 286 286 287 288 287 286 283 281 279 280 282 285 285 285 284 283 284 285 286 286 286 286 286 286 285 285 285 285 283 283 285 284 284 284 282 282 282
298 298 298 297 297 288 285 286 290 284 283 284 285 284 284 284 285 285 285 286 286 286 284 279 279 282 282 283 284 283 284 284 283 281 282 283 284 285 285 284 283 285 284 285 284 281 282 283 283 282 279 279 280 281
296 296 296 295 290 292 287 286 285 286 283 283 284 284 282 284 284 285 285 286 285 284 278 280 284 286 283 283 284 284 285 284 283 281 281 281 282 282 282 283 284 282 281 279 278 282 278 281 284 282 284 285 282 285
295 296 289 291 286 285 284 286 286 283 284 283 283 284 281 280 281 283 284 283 283 281 281 281 282 283 282 284 284 285 286 285 285 282 282 280 280 280 280 280 279 278 279 280 280 282 282 281 279 278 283 285 285 285
294 291 287 285 283 283 282 285 284 283 278 279 281 279 280 279 281 282 280 282 281 282 283 283 285 286 285 286 284 285 284 285 281 281 279 280 281 278 279 280 278 277 281 282 281 283 283 282 277 279 281 284 284 284
292 286 284 283 283 280 284 280 284 282 282 280 279 278 278 279 279 277 276 276 279 282 284 284 282 281 281 281 282 283 283 283 282 281 284 282 280 282 282 281 281 281 280 283 283 284 285 283 277 282 284 283 283 278
283 279 279 280 283 277 273 277 280 278 277 278 278 277 277 276 275 271 271 275 278 281 283 285 283 283 280 281 283 281 281 281 279 278 277 280 277 277 278 277 277 277 279 278 278 279 280 281 282 281 280 277 278 272
278 278 275 280 280 276 276 277 278 277 278 278 278 275 275 276 269 268 277 281 281 281 282 282 281 282 280 280 278 279 279 278 276 272 275 277 278 277 274 274 273 274 274 276 276 275 274 275 277 278 280 280 277 277
277 278 282 283 283 281 280 281 280 277 276 276 277 275 272 265 266 277 280 280 280 281 282 282 281 279 279 279 279 280 278 275 272 275 275 277 276 275 273 270 270 271 273 273 272 272 273 274 274 275 277 276 277 278
281 282 278 281 281 281 278 278 277 276 276 279 277 272 270 269 272 277 278 280 280 282 281 279 279 277 278 279 278 274 270 270 270 271 273 277 274 270 269 268 270 271 270 271 270 271 272 273 273 274 275 275 275 272
280 282 280 276 277 278 276 275 275 278 280 277 272 271 274 275 275 277 277 278 279 278 276 275 271 271 271 271 275 271 267 267 264 261 260 260 264 265 268 269 267 267 268 269 270 272 272 274 273 273 274 271 272 268
279 282 275 273 271 275 279 281 281 282 279 282 280 276 275 273 273 275 275 273 270 271 274 274 268 266 265 263 263 266 270 265 261 261 259 260 264 266 266 266 266 266 267 267 266 268 271 271 272 272 269 268 268 265
281 281 280 278 279 280 281 281 282 282 282 282 280 276 270 269 268 270 269 272 270 267 267 265 267 266 262 263 264 261 260 261 263 264 261 261 263 260 262 264 264 265 266 264 264 265 268 268 268 267 264 264 263 262
281 278 279 276 278 281 281 280 280 279 280 279 277 276 273 270 263 264 264 267 265 262 263 261 261 264 261 264 266 263 269 266 266 260 260 261 259 258 260 262 263 264 263 262 264 264 266 265 264 263 262 260 260 259
277 274 274 270 269 269 276 270 270 269 269 268 271 269 265 264 260 264 267 268 263 260 259 259 259 260 265 262 259 264 262 259 260 266 267 266 263 261 259 260 263 263 258 261 262 265 263 263 261 260 259 258 257 256

GFSWCAN_sfc_thetae_006.txt.gz
Theta_e
307 306 306 306 306 306 307 307 307 308 307 306 306 306 306 307 307 314 312 314 311 301 304 309 308 303 302 299 292 299 295 293 288 282 279 284 282 284 283 288 285 282 279 277 276 272 276 294 295 287 291 294 296 295
306 306 305 305 305 306 307 307 307 308 307 306 306 306 306 306 307 311 311 316 316 307 307 310 311 310 309 306 302 299 296 297 293 288 288 290 284 286 279 280 292 284 286 283 286 285 292 295 295 297 298 296 296 295
305 305 305 305 305 306 306 306 306 307 307 306 305 305 305 306 307 311 313 313 310 299 301 305 305 312 314 312 310 299 297 305 301 296 289 289 281 287 283 285 285 292 296 286 288 294 295 297 299 300 300 298 297 297
304 304 305 305 305 305 305 305 305 306 305 304 303 303 304 304 306 311 312 312 305 297 288 298 311 308 313 314 313 309 307 306 301 295 288 288 282 292 283 286 285 289 295 291 288 293 296 298 298 299 299 299 298 300
302 302 303 304 304 305 305 304 304 303 302 304 304 305 305 305 305 312 313 310 312 303 291 295 306 310 311 312 311 310 308 304 296 290 286 286 283 289 287 285 284 295 292 287 288 294 295 295 299 299 298 298 300 299
301 302 302 302 303 304 305 306 304 302 302 303 304 306 306 306 307 311 304 311 308 310 297 289 300 303 306 310 309 307 306 304 299 293 288 291 299 289 287 289 295 298 300 298 295 299 300 299 300 300 298 298 295 292
301 301 301 302 302 303 304 304 304 302 302 304 305 306 306 305 308 306 300 306 304 307 294 291 288 297 303 304 300 302 303 301 300 292 289 290 290 294 287 284 294 298 300 300 301 300 296 298 297 300 295 293 291 289
301 301 301 301 302 302 302 303 304 303 302 304 306 306 307 305 307 306 307 305 307 303 295 288 287 289 301 290 291 297 292 297 297 294 291 289 290 286 286 294 297 300 301 299 300 299 298 299 297 294 291 290 287 286
300 300 300 301 301 301 301 303 304 304 303 305 305 307 305 303 300 306 304 303 309 302 290 287 287 286 296 293 291 289 294 287 294 289 289 292 288 288 293 295 297 298 297 297 298 297 298 297 291 290 289 288 286 285
300 300 300 300 301 301 301 303 303 304 304 305 303 297 295 298 303 305 301 297 295 295 295 287 291 289 295 287 287 287 287 287 287 289 293 287 288 293 294 298 298 297 298 298 292 291 291 290 288 288 288 288 287 286
301 301 301 301 301 302 302 303 304 304 305 301 296 292 298 303 301 295 290 289 291 289 292 291 289 290 291 288 288 287 286 286 285 284 287 283 285 288 294 295 297 297 299 297 293 292 291 290 288 287 287 285 284 283
301 301 301 301 301 302 302 303 303 301 299 300 299 300 298 294 291 289 288 288 287 287 288 288 289 292 290 292 288 287 286 286 283 288 285 282 285 291 293 291 291 291 291 290 291 290 289 288 287 284 283 282 280 280
301 301 302 301 301 300 301 301 301 301 300 298 293 289 292 286 285 288 286 285 285 286 287 286 287 287 289 290 286 286 285 284 286 284 283 284 292 290 288 288 288 289 288 288 287 288 287 286 284 281 281 278 276 280
300 300 300 300 300 300 300 300 301 299 295 288 287 285 285 282 284 283 284 285 285 285 286 286 285 286 285 286 285 284 284 284 281 279 276 285 290 289 289 288 287 287 285 285 285 284 281 281 280 278 276 276 273 276
299 300 300 299 300 300 300 300 299 296 291 286 286 282 282 283 285 285 285 285 286 287 286 286 285 286 284 283 284 282 280 278 280 280 283 285 288 288 287 286 283 282 282 284 285 282 281 279 276 279 278 277 281 283
299 300 298 299 299 300 300 298 295 292 287 286 285 283 284 284 284 285 285 285 288 286 286 286 284 284 282 282 280 280 279 278 281 284 284 286 287 285 285 285 285 285 285 285 284 283 282 279 277 280 280 280 279 279
299 296 300 299 299 299 298 293 288 286 283 285 283 285 285 285 284 285 285 286 290 286 284 284 278 278 283 280 280 283 281 284 285 285 285 286 285 286 286 286 284 285 285 285 283 285 281 280 277 278 279 284 280 281
295 298 299 299 299 296 291 293 288 284 282 284 283 284 285 285 285 285 286 286 287 284 285 282 283 280 279 277 279 283 284 285 285 285 285 285 286 286 287 285 287 285 284 282 281 282 280 278 280 282 283 284 281 281
296 298 298 298 297 290 288 287 288 279 282 283 284 284 284 285 285 285 285 286 286 285 284 281 277 276 280 282 284 285 285 283 283 283 284 286 286 285 285 285 285 284 284 284 284 282 282 284 283 282 282 280 278 277
297 297 297 297 296 286 284 284 289 282 283 282 284 283 283 283 284 285 285 285 285 285 283 276 277 278 280 281 282 280 280 281 279 278 280 282 282 284 285 284 282 283 283 284 282 278 281 282 282 281 278 282 283 282
296 295 294 291 289 286 285 284 284 285 282 283 283 282 281 283 282 283 285 285 285 283 277 279 284 285 280 280 280 280 282 281 279 278 278 278 280 280 280 281 281 280 279 277 274 279 277 279 282 281 281 284 284 284
293 294 286 289 285 285 285 285 285 284 283 282 282 282 280 280 281 282 282 281 282 278 278 277 282 281 280 283 282 283 284 284 283 279 278 278 279 280 280 280 279 276 276 275 278 279 281 279 281 281 283 280 282 283
293 290 286 286 282 282 278 285 283 282 279 280 282 278 278 279 280 282 280 282 282 280 282 281 284 286 286 283 282 283 282 282 281 280 278 279 278 275 277 277 275 274 277 279 280 280 279 280 282 283 283 282 283 283
292 286 283 281 281 279 281 281 283 281 279 279 279 277 276 277 279 277 270 275 282 282 282 281 280 283 282 281 279 279 279 279 278 277 278 276 275 276 276 275 274 275 275 275 276 275 276 275 276 277 279 279 281 282
282 274 280 270 279 274 269 270 277 274 270 272 274 272 275 276 267 266 268 276 279 281 282 282 280 282 280 279 280 279 278 277 276 275 272 274 270 271 273 274 272 271 271 271 270 270 270 271 272 273 274 276 277 279
277 275 278 274 272 272 272 272 271 271 271 277 277 274 276 276 271 266 275 278 279 279 280 279 280 279 279 279 277 276 275 275 274 270 274 274 271 268 266 266 267 266 269 269 269 267 267 268 269 270 271 272 275 275
271 273 278 281 281 279 279 280 279 278 275 275 271 275 275 271 268 273 277 278 279 279 279 279 279 278 277 278 276 274 271 270 268 270 273 272 270 269 267 266 264 266 267 267 267 267 266 267 268 268 270 272 273 270
278 277 274 278 280 280 278 277 277 277 277 278 277 273 271 267 269 274 276 278 279 277 277 277 276 276 275 273 271 267 265 266 266 271 270 267 265 265 262 260 261 267 262 263 265 266 266 267 268 269 270 270 268 268
279 281 280 277 277 276 277 277 277 279 281 277 272 270 272 273 271 272 273 275 277 276 273 271 268 268 270 270 265 262 261 261 260 257 254 253 255 259 262 258 257 261 262 264 265 266 267 267 270 270 269 267 265 264
276 277 273 271 273 274 278 279 279 280 280 280 275 274 272 270 270 271 271 272 271 270 270 267 264 264 258 258 256 261 261 255 258 257 253 255 257 259 257 258 261 261 262 263 261 262 264 266 268 266 265 265 264 262
279 280 278 275 276 278 279 280 281 281 282 281 274 271 267 267 268 269 268 267 266 265 264 261 261 258 259 259 258 255 257 261 260 257 256 256 254 252 254 256 257 257 260 260 259 261 261 261 262 262 260 260 260 259
278 276 273 274 271 277 280 279 278 276 276 273 272 272 268 264 258 260 263 261 261 258 255 254 255 258 258 259 259 259 259 257 256 257 258 258 255 253 254 256 256 255 258 255 256 260 259 257 257 258 257 257 257 257
268 263 265 260 266 265 265 264 262 262 266 269 268 262 261 261 259 262 264 260 258 256 255 254 253 252 255 255 255 254 257 254 254 260 261 261 258 257 254 254 255 252 251 252 253 257 255 255 255 256 256 255 255 255

GFSWCAN_sfc_thetae_009.txt.gz
Theta_e
306 306 306 305 305 306 306 306 306 306 307 306 306 306 306 306 307 313 311 312 307 300 303 306 306 301 300 298 292 297 295 293 285 282 278 279 279 283 282 286 284 283 279 275 278 272 276 292 293 287 291 292 296 295
306 305 305 305 305 305 306 306 306 306 305 307 305 304 305 306 307 311 310 314 312 305 304 308 308 308 306 304 300 297 296 295 292 285 282 285 283 285 280 280 289 282 285 282 284 284 291 293 294 295 296 295 295 295
305 305 305 305 305 305 306 306 306 305 303 302 303 303 304 305 308 312 311 310 305 298 301 304 304 310 312 310 308 298 295 301 297 293 290 285 279 282 281 283 283 290 293 285 287 292 293 294 296 299 298 297 297 297
304 304 305 304 304 305 305 305 304 303 302 303 304 304 304 306 308 312 309 308 302 295 289 298 309 307 312 313 311 306 304 301 297 293 288 286 281 290 281 286 284 289 293 290 287 292 294 297 298 299 299 298 297 298
304 304 304 304 304 304 304 303 301 302 303 304 305 305 305 307 308 311 309 307 308 301 290 291 304 308 309 311 308 307 305 301 294 288 286 285 283 288 287 285 285 293 291 285 285 293 294 293 298 299 297 297 298 296
303 303 303 304 304 304 304 301 301 302 303 304 305 305 306 306 309 306 300 308 307 306 296 290 298 301 304 307 306 306 305 300 297 292 286 289 294 288 287 287 294 296 298 295 294 296 295 297 298 299 298 299 299 291
302 302 302 303 303 304 304 303 301 302 303 304 305 305 304 306 307 302 296 304 304 304 294 291 288 296 300 302 298 300 301 299 298 292 288 290 288 293 287 285 295 296 298 299 299 299 294 296 296 299 295 292 291 289
301 301 302 302 302 303 303 303 302 302 303 305 306 305 305 306 306 305 306 303 304 299 294 288 287 289 299 290 290 298 291 296 296 293 291 290 289 287 286 293 296 298 298 298 298 300 298 298 297 291 289 288 287 286
300 300 300 300 301 302 302 303 303 302 303 306 305 305 305 303 301 304 303 303 304 300 290 287 286 286 295 292 290 290 294 287 294 290 289 290 286 287 292 294 295 296 296 296 297 297 296 293 289 289 288 288 286 285
300 300 300 300 301 301 302 303 303 302 305 304 302 296 293 298 304 304 301 295 293 295 292 286 290 288 295 287 287 287 287 289 287 289 292 287 288 292 293 294 295 296 297 297 291 289 287 287 289 290 289 289 288 286
301 301 301 302 302 302 302 303 304 305 304 299 296 292 299 302 298 294 290 289 291 289 292 290 288 289 294 288 288 287 286 285 285 284 288 286 284 287 292 291 291 294 292 291 292 291 291 290 288 286 286 287 286 284
302 301 300 300 301 301 302 303 303 300 299 298 297 299 296 291 289 287 287 287 287 287 287 288 289 292 290 291 289 287 286 285 283 287 285 283 283 285 286 287 288 289 289 288 289 288 289 289 290 288 285 283 282 281
301 300 300 300 300 301 301 301 301 301 300 296 293 289 293 287 286 286 285 285 285 285 287 286 287 287 289 290 286 286 285 284 285 284 283 284 287 289 288 288 288 290 289 289 289 290 288 285 284 282 282 280 279 280
300 300 300 300 300 300 300 301 300 299 296 289 287 285 285 283 283 284 284 285 285 285 285 286 285 286 285 286 285 284 284 284 282 277 275 284 287 288 288 289 288 286 286 286 284 284 282 282 281 279 279 277 275 277
300 300 299 299 300 300 300 299 299 296 289 286 285 281 281 283 285 285 285 285 286 287 286 286 285 286 284 284 284 282 280 278 278 277 283 285 287 287 285 284 283 283 283 284 284 282 281 280 279 280 279 278 281 281
300 299 297 299 299 299 299 296 292 289 284 286 285 282 284 284 284 285 285 285 288 286 286 286 284 283 282 282 279 275 275 275 281 284 284 285 285 284 285 286 286 286 285 284 283 282 281 279 279 281 280 278 277 277
298 295 299 299 299 298 298 292 286 284 282 285 283 285 285 285 285 285 285 286 289 286 284 284 278 277 282 278 278 283 280 283 285 285 285 286 285 286 286 286 284 285 285 285 283 284 282 279 276 277 279 283 280 280
295 295 299 299 297 294 291 290 283 282 283 283 282 284 284 285 285 285 285 286 286 285 285 282 283 278 278 276 278 283 284 285 285 285 284 285 286 286 286 285 285 284 284 282 281 282 280 278 280 282 283 283 281 280
294 295 297 298 294 288 284 287 286 278 282 283 283 283 284 284 284 285 285 286 285 282 280 277 274 273 274 279 284 285 285 281 283 283 282 285 285 284 284 285 284 284 284 284 284 281 281 283 281 281 281 279 277 280
297 296 296 296 295 284 282 280 288 282 282 280 284 283 282 282 284 284 285 285 285 284 280 275 277 277 278 279 279 278 281 283 278 276 277 279 279 282 282 281 280 282 281 281 280 277 280 280 281 281 279 282 282 283
292 292 292 289 287 285 285 284 284 285 282 282 282 282 280 282 282 283 284 284 283 282 276 277 279 283 280 279 278 278 281 280 278 277 277 278 279 280 281 280 280 279 277 278 279 279 280 279 280 281 281 282 283 284
289 293 286 289 284 285 285 285 284 284 282 282 282 282 280 279 280 281 282 281 282 278 278 275 283 284 284 284 283 284 284 282 282 280 278 278 278 278 279 277 276 274 276 278 277 277 276 277 278 277 278 279 281 282
292 289 286 284 282 280 276 285 283 281 279 279 282 279 278 279 280 282 279 281 281 283 283 283 284 284 282 282 281 281 281 281 278 277 276 278 277 273 274 275 274 272 272 273 274 273 271 270 271 271 272 274 275 276
290 283 281 281 280 278 281 278 282 278 278 278 278 276 275 278 279 278 276 276 282 283 282 282 283 281 281 279 277 276 278 279 276 275 274 275 275 275 274 273 270 269 268 269 269 265 267 266 266 268 269 270 270 271
279 272 280 275 279 278 275 274 272 275 270 271 275 273 275 275 270 273 271 277 279 280 281 281 282 281 278 277 277 275 276 277 276 274 273 272 268 268 268 269 267 268 267 264 264 265 264 265 265 266 266 267 267 269
275 275 277 275 271 275 267 264 267 273 266 270 272 272 273 275 273 272 275 276 278 278 278 278 278 277 277 278 275 273 272 273 273 270 270 270 268 260 259 260 262 261 266 261 263 263 263 263 264 264 264 266 267 268
272 267 274 279 280 278 278 278 277 276 274 275 272 272 273 273 271 273 276 277 276 276 278 279 278 277 275 273 272 270 268 267 267 270 269 268 267 266 262 257 259 263 264 262 260 260 261 261 262 263 265 267 266 265
273 275 272 273 278 280 276 276 276 276 277 278 277 274 273 272 270 273 274 276 276 275 274 274 274 271 270 268 265 265 266 265 269 268 266 263 262 259 257 256 257 264 259 256 258 258 259 261 263 264 263 260 261 263
274 276 276 274 273 275 276 276 276 278 280 278 273 271 269 270 268 268 272 274 274 272 269 269 267 267 265 265 263 261 259 259 258 255 252 251 253 256 256 253 253 254 255 255 261 264 263 265 266 262 263 261 258 256
274 273 271 268 273 273 276 278 277 279 280 275 274 272 270 267 268 270 269 269 268 266 265 264 262 261 256 255 255 258 258 254 253 255 252 252 255 256 252 253 254 254 254 252 256 257 259 255 257 253 255 255 257 258
279 279 277 273 275 277 278 280 280 281 280 275 272 267 264 264 265 267 266 265 264 263 261 257 258 253 256 253 252 252 254 254 253 256 256 254 251 250 251 253 252 252 250 251 251 251 254 250 249 249 250 250 251 253
276 272 268 268 269 272 269 269 264 272 267 271 271 268 261 259 255 261 262 259 257 256 252 250 252 255 254 254 253 252 256 253 252 252 254 254 251 250 250 251 249 248 248 248 249 250 250 248 248 248 247 248 248 249
261 262 264 259 265 265 262 261 259 262 264 269 262 261 258 259 258 260 262 258 256 254 254 253 252 250 252 252 252 251 254 251 250 256 257 257 254 254 250 248 247 246 246 246 247 247 248 247 247 247 247 247 247 248

GFSWCAN_sfc_thetae_012.txt.gz
Theta_e
306 306 305 305 306 306 306 306 306 306 305 305 305 305 306 308 309 314 310 310 305 300 301 305 304 299 298 296 291 296 294 292 284 282 279 279 276 283 282 285 284 282 279 274 275 270 275 290 292 287 291 290 293 293
305 305 305 305 305 305 305 305 306 305 305 302 303 303 305 307 309 314 312 313 309 304 303 307 307 306 305 302 298 295 296 294 292 284 278 282 283 284 278 279 288 282 284 281 282 282 289 291 292 294 294 293 294 294
304 304 305 305 305 305 305 305 304 303 302 303 304 304 306 307 309 312 310 306 304 298 301 303 302 309 311 308 306 297 293 298 293 291 284 285 279 281 280 282 282 288 290 283 286 290 290 292 294 296 297 295 296 296
304 304 304 304 304 304 304 303 301 302 303 304 304 305 306 308 309 310 308 305 301 295 289 296 307 305 310 311 308 304 301 298 295 292 283 285 280 287 279 284 283 288 291 288 286 291 291 294 296 296 297 297 297 297
304 304 304 304 304 303 302 302 302 303 303 305 305 306 307 307 309 310 307 305 305 299 290 291 302 304 307 308 305 304 302 298 293 287 283 285 282 286 286 285 284 291 290 285 284 292 292 292 295 297 297 297 298 296
304 303 303 304 303 302 302 302 302 303 303 304 304 305 306 307 308 301 298 305 307 302 296 290 296 299 303 305 304 303 302 298 295 291 285 287 292 287 286 282 292 294 294 294 293 293 294 294 296 297 297 298 297 294
303 303 303 303 303 302 301 302 302 303 305 305 305 305 306 306 307 298 295 303 304 301 294 290 289 294 298 300 298 299 300 297 296 291 286 283 289 290 287 281 295 295 297 297 297 295 294 295 296 297 297 295 290 288
302 302 302 303 303 303 301 300 302 303 305 305 305 305 305 305 305 304 305 304 303 297 293 286 286 288 297 290 290 297 291 295 295 292 290 288 290 288 287 292 294 296 297 297 297 297 296 296 290 288 288 288 286 286
300 301 301 302 302 302 302 300 302 304 305 304 304 304 305 303 301 303 303 303 303 299 288 287 286 285 295 291 290 291 293 287 293 289 288 291 286 287 290 290 291 293 293 294 295 295 292 287 286 287 287 288 286 285
300 300 301 301 301 302 302 301 303 305 304 303 302 296 293 299 304 303 299 294 292 292 293 286 291 288 296 287 287 287 287 289 287 288 292 287 288 289 287 288 289 291 293 294 288 285 285 286 287 288 288 288 287 286
301 301 301 301 302 302 302 303 303 304 303 298 294 293 300 301 298 291 288 287 290 289 291 289 288 288 293 289 288 287 286 286 285 283 287 285 285 284 286 286 288 288 289 289 289 290 290 289 287 287 286 287 286 285
301 301 300 301 301 302 302 302 302 300 297 297 298 298 294 292 289 287 286 287 287 284 287 288 288 291 289 290 289 287 286 285 283 287 285 282 282 286 286 286 288 289 290 290 291 290 290 290 290 288 285 284 282 282
300 300 300 300 300 301 301 301 301 301 299 295 291 287 291 287 287 285 284 285 285 285 286 286 287 286 288 289 286 286 285 284 286 284 283 283 287 289 289 289 290 291 290 290 290 289 287 285 284 282 282 280 280 281
300 299 300 300 300 300 300 301 300 299 296 289 287 286 286 284 283 283 284 285 285 285 285 286 285 286 285 286 285 285 284 284 282 279 277 284 286 286 287 287 287 285 283 283 283 283 282 282 281 280 279 279 277 279
299 299 299 299 299 299 299 298 298 296 291 286 286 281 281 283 284 285 285 285 285 287 286 286 286 287 285 284 284 282 277 274 274 271 282 284 285 285 284 284 285 284 281 282 283 282 281 280 279 280 280 279 279 279
298 298 296 298 299 299 298 295 291 289 285 286 284 283 284 284 284 285 285 285 288 286 286 286 284 283 282 282 277 276 275 272 279 284 284 285 284 285 285 286 286 285 284 284 283 282 280 276 276 279 278 277 277 277
298 294 298 298 298 297 297 289 285 284 285 284 283 285 284 285 284 285 285 286 289 286 284 283 277 277 282 275 274 279 275 281 285 285 286 286 285 286 286 286 284 285 285 284 282 283 280 278 276 278 281 283 281 279
291 292 297 298 295 292 289 286 281 282 283 283 282 283 285 285 285 285 285 286 286 285 284 281 284 277 272 271 273 281 283 285 282 282 283 286 285 285 285 284 284 284 283 281 280 281 279 279 280 280 281 281 279 279
293 294 296 296 293 285 283 284 284 281 282 283 283 283 284 284 284 284 285 286 282 279 280 276 273 273 275 277 282 285 285 284 282 283 284 284 283 283 283 284 283 282 282 281 281 280 279 280 280 279 279 280 279 281
296 295 294 294 292 283 281 280 286 283 281 282 283 282 282 282 283 284 285 285 285 280 277 275 275 276 277 276 277 279 286 285 277 275 277 278 281 282 281 280 280 280 279 280 280 279 279 278 278 279 278 278 278 278
291 291 291 288 285 284 282 281 282 283 283 282 282 281 280 282 282 282 283 284 283 282 278 276 275 282 282 282 278 278 281 279 277 278 281 280 279 279 279 278 277 277 277 276 275 276 275 275 275 273 271 271 273 276
287 291 283 285 284 285 281 284 283 282 282 282 281 281 279 278 279 280 282 281 281 281 281 276 281 284 283 282 281 282 282 281 281 280 279 277 276 277 275 274 274 272 273 272 272 269 267 270 270 269 268 269 273 273
289 285 279 278 274 272 278 285 280 278 279 277 281 278 278 278 279 281 277 281 281 283 283 284 283 283 281 281 280 280 280 278 275 275 275 275 275 274 272 270 268 266 266 268 269 267 265 264 265 264 266 266 267 267
288 279 276 279 275 270 280 279 281 279 274 276 272 273 275 276 278 276 276 278 281 282 282 283 282 279 279 277 276 276 277 277 275 273 274 275 273 272 271 269 267 265 265 266 265 262 262 259 261 263 263 263 263 264
272 272 275 273 277 267 274 274 276 277 275 265 275 267 275 274 274 273 274 274 278 278 279 281 281 279 275 275 275 274 275 277 274 270 270 270 267 267 267 267 265 266 264 259 259 259 259 259 260 259 261 261 262 264
273 274 276 275 275 275 266 266 269 274 271 269 270 272 269 268 267 269 273 274 277 276 277 277 276 274 274 275 273 272 271 272 272 268 268 268 266 261 260 258 258 259 262 255 255 255 257 258 258 257 259 261 261 259
268 267 274 280 279 276 273 273 274 275 274 272 272 274 274 272 271 272 276 275 275 274 275 276 277 274 272 270 270 269 268 269 268 268 268 267 266 264 258 254 255 259 260 257 252 252 254 257 257 258 260 259 255 258
275 277 268 270 274 276 275 269 269 275 276 277 276 273 272 269 267 271 273 275 274 273 271 270 270 269 267 266 266 266 267 267 266 266 264 262 261 256 255 253 254 261 254 251 250 253 252 256 259 259 259 257 253 252
273 275 276 270 271 274 273 272 272 276 278 277 272 269 268 268 267 267 270 272 272 270 267 266 266 266 265 264 262 260 260 257 256 254 252 250 251 255 253 250 250 251 249 249 257 261 261 261 257 252 251 252 254 253
274 272 268 264 267 269 275 273 274 274 275 274 272 271 268 265 267 269 269 268 266 264 263 262 262 262 257 256 254 256 253 250 251 253 251 250 253 254 248 249 250 252 250 247 249 251 255 251 252 249 249 249 248 247
278 277 275 270 270 276 271 279 280 280 277 271 269 264 262 262 263 265 263 262 262 261 259 254 253 249 252 251 250 250 252 251 249 252 252 251 250 248 248 249 248 246 244 244 244 245 246 246 244 244 245 246 246 245
274 268 264 267 268 268 266 266 267 268 271 271 262 262 256 258 255 260 260 258 257 255 252 248 251 253 252 250 248 248 252 250 249 250 250 251 251 249 248 248 245 244 244 244 244 244 244 244 244 244 244 244 244 245
262 261 266 265 268 268 260 258 257 259 266 265 258 257 256 258 258 259 260 257 256 254 252 251 251 250 250 250 250 249 252 249 249 255 256 256 252 251 248 245 244 244 245 244 243 242 244 245 244 244 243 243 243 243

GFSWCAN_sfc_thetae_015.txt.gz
Theta_e
306 305 305 305 305 306 306 306 306 306 305 305 305 305 306 307 308 312 310 312 308 302 304 307 304 300 299 300 295 298 297 296 290 288 288 286 286 287 287 288 287 286 284 282 278 280 282 292 295 292 297 297 297 298
305 304 304 305 305 305 305 305 305 304 303 302 304 305 306 307 308 311 311 312 311 306 305 308 309 309 309 305 301 298 300 296 296 290 286 285 285 285 284 287 290 287 289 288 287 288 294 294 297 298 298 297 298 298
304 304 304 304 304 304 305 304 302 302 302 303 304 306 307 308 309 312 312 309 306 301 303 305 305 310 311 309 309 300 296 300 296 295 289 287 287 287 285 286 288 291 291 289 290 293 292 294 297 297 299 300 300 300
304 304 304 304 304 302 301 302 303 302 303 304 305 306 307 309 309 311 309 307 304 297 290 299 307 306 309 311 309 306 301 298 296 294 289 287 287 290 286 289 289 292 292 290 289 293 294 296 298 300 300 300 300 301
304 303 303 303 301 301 302 302 303 303 304 305 307 307 308 309 309 311 308 308 306 304 293 294 303 304 307 307 304 304 302 300 296 292 288 289 288 289 288 288 288 293 293 291 291 297 296 297 298 300 300 300 301 300
303 303 302 302 301 301 301 302 303 303 304 305 306 308 308 307 307 307 303 306 306 303 298 291 298 299 302 304 304 303 303 299 298 295 290 290 293 292 287 288 294 295 297 297 296 297 297 298 298 301 300 301 300 299
303 303 302 301 301 301 302 302 304 304 304 304 306 307 308 306 308 301 299 303 303 302 295 291 291 296 298 301 299 300 303 298 298 293 289 289 292 292 288 287 295 296 298 299 299 299 298 299 298 297 294 290 290 289
302 303 302 302 301 301 301 302 303 304 304 304 305 305 305 306 305 305 305 303 303 297 295 288 288 291 298 293 292 297 294 297 296 293 291 290 291 291 289 292 292 293 295 298 297 299 297 291 290 289 290 290 289 288
301 301 302 302 301 300 301 303 304 304 303 303 304 304 305 303 301 303 303 302 303 299 289 286 288 288 297 292 291 293 295 289 294 291 290 294 287 286 285 286 287 288 290 292 291 289 289 288 288 289 289 289 287 287
301 301 301 301 301 301 301 303 303 303 303 303 302 298 293 300 303 303 300 295 293 292 294 287 291 288 296 288 288 289 290 288 288 290 293 288 287 286 287 288 288 288 289 293 288 286 287 287 288 289 288 289 289 290
301 301 301 302 302 302 302 302 302 303 304 300 295 294 300 301 299 292 288 288 290 287 291 289 289 289 293 291 288 288 288 287 286 288 288 287 284 284 287 288 289 290 290 290 291 290 290 289 288 288 288 288 288 288
301 300 300 301 301 301 301 301 302 300 298 298 299 299 296 293 289 288 286 287 286 286 287 288 289 292 289 293 290 288 287 286 285 289 286 283 282 286 288 289 289 290 290 290 291 290 290 290 290 289 287 286 284 283
299 300 300 300 300 301 301 300 301 300 299 297 293 289 292 288 285 281 284 285 285 286 287 287 287 288 290 289 287 287 286 285 287 285 283 283 287 288 288 289 289 289 289 289 289 289 287 286 285 284 284 283 283 284
299 299 299 299 299 299 299 299 299 298 295 288 287 285 283 285 284 284 285 285 285 285 286 287 286 287 286 286 285 285 284 284 282 281 280 284 286 286 287 288 287 286 282 284 284 284 282 282 282 281 280 280 280 282
299 298 298 298 299 299 298 298 298 296 291 286 286 281 281 283 285 284 285 285 286 287 287 286 286 288 285 285 284 284 280 279 280 278 283 284 285 285 285 286 285 284 281 284 285 284 281 280 279 282 281 281 281 281
298 297 295 297 298 298 297 296 293 292 288 285 285 283 284 284 284 285 285 285 288 286 286 287 284 284 282 284 282 281 279 275 280 284 285 285 284 285 286 287 287 286 286 285 285 284 282 281 280 282 282 282 280 280
296 290 296 297 297 296 295 289 287 286 285 284 283 285 285 285 284 285 285 285 288 286 284 284 283 280 283 280 279 282 278 282 284 284 286 287 286 286 287 288 286 286 285 284 284 283 282 280 279 280 280 281 280 281
289 291 296 296 294 292 288 286 283 285 283 283 282 283 285 285 285 285 285 286 286 285 285 282 284 279 277 274 278 283 283 285 286 286 286 287 287 287 287 286 285 285 283 282 281 281 280 279 279 278 278 279 279 280
292 293 295 295 292 285 284 284 284 281 282 283 283 283 284 284 284 285 285 286 284 282 284 279 276 277 278 280 283 283 284 284 284 285 286 285 285 285 284 284 283 282 281 280 280 279 279 278 277 277 276 276 275 277
294 294 294 294 292 283 281 281 286 284 281 283 283 282 282 282 283 284 285 285 285 281 278 277 277 279 279 280 281 285 288 286 283 281 281 281 283 282 281 281 280 280 279 278 278 276 275 276 275 273 272 272 271 272
290 290 290 288 284 284 284 282 281 283 283 282 282 282 281 283 282 282 283 284 284 282 281 279 281 282 283 282 282 284 284 283 282 282 282 280 280 279 277 277 277 276 275 274 273 270 270 270 271 270 269 269 270 272
286 290 282 285 280 281 281 283 283 281 283 281 280 281 280 280 280 280 282 282 282 281 283 282 283 285 283 281 281 281 282 282 281 280 280 279 278 276 273 272 272 271 271 270 270 267 267 268 268 268 267 267 268 269
288 283 278 276 274 274 275 282 279 278 275 273 280 276 277 278 278 281 279 281 281 283 284 284 282 282 280 280 280 279 279 278 276 276 276 275 273 271 270 269 268 267 267 267 268 267 266 263 265 264 265 265 266 266
286 281 270 269 270 268 278 278 281 279 278 273 272 269 271 271 275 274 273 278 281 282 282 282 280 278 278 277 275 276 277 276 274 272 275 274 271 270 270 268 267 266 265 265 264 263 263 262 260 263 262 263 263 264
273 275 271 266 272 269 273 273 276 277 275 273 271 267 276 274 271 267 270 274 276 276 278 280 279 277 274 274 274 274 275 276 272 269 270 270 269 269 268 267 266 265 265 262 261 260 260 261 261 260 261 261 263 263
267 277 276 275 275 275 267 269 270 274 274 267 269 271 273 273 270 269 271 272 274 273 274 276 275 273 272 273 272 271 271 273 271 268 267 267 266 264 263 262 262 263 263 260 259 259 259 259 259 259 260 262 261 260
269 274 277 280 279 277 268 268 273 274 269 270 273 272 271 271 266 270 274 273 273 272 272 272 274 272 271 270 270 269 269 269 269 268 267 266 266 264 262 260 260 262 262 260 258 257 257 257 258 260 261 262 261 259
278 278 272 276 270 273 269 268 269 270 274 277 275 268 269 269 269 269 271 273 272 271 270 269 269 269 267 267 267 268 267 267 266 265 265 264 262 261 259 259 258 260 257 256 257 257 258 258 260 261 259 259 259 259
271 272 271 267 268 270 269 269 269 273 277 274 269 267 267 267 267 266 269 271 271 270 267 266 266 266 265 264 262 260 260 262 262 258 257 258 258 261 260 258 257 257 256 255 258 260 262 263 261 259 257 257 256 256
269 273 267 263 269 269 276 275 276 273 273 272 271 269 267 265 266 268 267 267 266 264 263 262 261 263 259 260 259 260 258 256 258 259 258 258 258 260 257 257 256 256 254 254 254 256 257 256 257 255 254 254 254 254
272 273 274 270 268 274 272 274 278 278 270 267 267 263 263 263 264 264 263 261 261 261 261 258 258 254 258 257 257 257 258 258 253 255 256 256 257 257 257 256 255 253 253 253 253 253 253 254 253 253 253 253 252 251
267 262 264 267 268 266 264 263 267 267 272 269 262 261 260 261 256 262 262 260 261 260 255 253 255 257 255 254 253 253 253 255 256 255 254 255 257 257 256 255 253 252 253 253 253 252 252 252 253 252 252 251 251 250
263 263 268 267 269 270 262 259 257 261 267 265 260 257 258 259 258 261 261 258 259 259 259 256 256 255 254 253 255 255 253 255 253 255 256 256 254 256 256 254 253 252 253 253 253 251 252 252 252 251 251 249 249 249

GFSWCAN_sfc_thetae_018.txt.gz
Theta_e
302 302 301 304 305 305 305 304 304 305 305 306 306 306 306 307 309 319 320 321 320 312 309 312 310 308 307 310 306 305 304 303 302 300 300 298 296 295 294 294 293 293 292 290 288 288 287 297 300 295 302 304 303 304
301 303 304 304 304 304 305 305 305 305 305 305 305 305 306 307 308 314 319 319 321 316 312 316 315 315 314 314 311 308 309 306 308 303 300 298 292 289 295 293 296 292 297 297 294 296 299 301 303 305 304 303 304 305
304 304 304 304 304 305 304 304 304 304 303 304 305 305 306 307 309 314 319 319 320 315 312 314 311 315 317 316 317 308 308 309 306 307 304 301 291 298 291 296 296 297 298 297 294 299 299 301 303 303 304 304 305 306
304 304 304 303 303 303 302 302 302 302 303 304 304 305 306 307 309 314 320 317 319 313 298 308 314 312 315 317 315 314 312 308 306 308 304 295 296 299 298 298 298 299 298 297 296 300 301 302 303 304 304 306 306 307
303 302 302 302 302 302 302 302 302 303 304 305 305 306 307 308 309 316 316 314 316 314 302 307 310 310 313 312 311 312 311 309 308 304 296 301 299 299 297 298 297 299 298 297 297 302 301 302 304 305 304 305 306 306
302 301 301 301 301 302 303 302 303 304 306 305 306 308 308 309 311 320 309 315 312 315 312 303 307 307 310 312 311 310 310 309 310 308 301 300 298 302 293 297 300 301 302 302 300 303 304 305 305 305 304 300 300 300
301 301 301 301 302 303 303 303 304 305 307 306 307 306 305 307 317 312 309 310 306 312 309 299 301 305 306 308 305 308 310 308 310 303 296 298 301 302 293 297 297 297 299 301 303 304 303 298 297 297 296 296 295 295
302 301 301 301 302 303 303 303 304 305 306 306 306 306 306 305 308 313 311 306 306 309 311 299 296 301 306 300 298 302 301 307 302 297 296 296 296 299 295 294 295 295 297 301 297 301 298 297 296 295 296 295 292 290
302 301 301 301 302 302 302 302 303 303 304 305 305 306 312 310 312 312 303 304 312 311 303 300 297 294 301 296 297 300 303 295 299 297 296 299 291 291 288 289 291 292 293 294 294 295 295 293 293 291 290 289 288 288
301 301 301 301 302 301 301 302 302 303 303 304 311 310 304 306 302 305 308 307 305 304 301 290 297 292 299 295 293 297 298 293 290 295 296 293 288 288 289 289 290 293 295 296 292 289 291 288 289 289 289 290 290 290
301 301 301 301 301 301 302 302 302 305 307 309 304 301 308 303 308 301 296 297 298 294 296 293 294 293 299 295 293 295 292 292 288 293 292 290 286 286 288 289 292 294 294 294 294 292 291 291 290 290 290 292 292 290
301 300 300 301 301 301 301 301 303 306 304 305 306 305 305 301 299 291 290 292 293 290 291 293 293 295 294 298 296 293 290 289 287 294 289 286 286 287 289 289 291 292 293 293 293 292 292 292 292 290 287 287 286 286
299 299 300 299 299 300 300 300 301 301 301 306 301 293 297 291 288 289 285 288 287 289 289 289 288 293 295 297 291 292 288 287 293 287 286 287 287 288 289 289 291 293 292 292 290 290 289 288 288 287 287 286 286 287
298 298 298 299 299 299 298 299 299 301 302 294 291 286 288 287 286 286 287 287 286 287 289 292 289 293 290 290 290 289 285 287 284 283 284 285 287 287 289 290 290 288 286 288 288 288 287 286 285 285 285 285 285 285
298 297 297 297 298 298 298 297 298 301 296 289 291 283 284 285 286 285 286 287 287 289 289 291 290 294 288 287 287 286 284 283 285 285 285 286 287 287 289 290 288 287 286 288 289 287 285 286 286 286 285 285 284 284
297 297 295 297 297 297 297 298 295 296 291 288 287 285 285 285 285 285 285 285 289 288 289 289 286 285 285 287 285 285 284 283 285 287 286 286 287 287 288 289 290 290 289 288 288 287 286 284 284 284 284 282 282 282
296 293 295 297 296 296 296 296 294 289 287 286 285 285 286 285 285 285 285 286 289 287 285 287 285 283 287 285 283 287 285 287 286 287 288 288 288 288 289 289 289 288 288 287 287 285 284 284 283 282 280 281 281 282
293 295 295 296 296 296 294 293 291 288 284 285 285 284 286 285 285 285 287 289 291 289 289 285 287 284 284 282 284 287 286 286 287 288 288 289 289 289 290 290 289 288 286 284 283 282 282 281 281 281 279 279 280 280
294 294 294 295 296 295 290 289 291 284 284 286 286 286 287 285 287 288 287 288 289 292 290 288 285 285 286 289 285 285 287 288 287 286 286 286 288 289 288 287 286 284 283 283 283 282 282 280 279 278 278 278 277 278
294 294 293 293 296 292 287 287 293 286 283 284 286 285 285 285 286 286 287 288 290 291 287 286 285 286 287 286 286 288 288 288 287 284 284 284 286 286 286 285 283 283 282 281 279 278 279 279 277 276 275 275 275 275
294 293 293 295 292 290 286 286 285 286 286 284 285 286 286 288 286 285 286 288 289 287 285 284 284 285 285 285 286 287 287 289 290 290 287 282 283 283 282 281 281 281 280 279 277 276 275 275 274 274 274 274 273 275
292 291 291 290 287 287 286 287 285 288 287 285 287 288 285 284 284 285 287 286 284 284 285 285 285 286 285 282 283 284 284 285 284 283 282 282 279 278 277 278 278 276 275 275 275 273 273 273 272 272 273 272 273 274
291 290 287 286 282 283 281 288 283 283 281 282 285 282 282 283 284 287 283 284 284 284 285 285 283 283 282 282 281 281 281 281 280 279 278 276 276 275 274 274 274 274 273 272 272 272 271 268 270 269 271 271 272 272
289 283 279 280 281 277 283 280 282 280 282 281 280 278 279 281 283 282 279 279 279 281 282 283 282 281 280 279 277 277 278 278 276 276 277 276 274 273 273 272 271 270 269 269 270 270 269 269 267 269 269 269 269 269
280 278 280 276 280 277 276 276 278 279 277 278 277 278 279 281 279 277 276 276 278 277 279 280 280 279 277 276 276 275 276 277 274 272 272 274 273 272 271 270 269 268 268 268 267 267 267 267 267 267 267 268 266 266
276 279 277 277 278 277 277 275 275 277 277 276 277 279 281 279 274 272 274 275 276 275 275 277 277 276 274 274 273 273 273 275 273 270 270 270 270 270 269 268 269 268 268 267 266 265 265 265 265 265 266 267 266 265
275 276 280 282 280 279 279 279 280 279 276 276 279 278 278 273 271 273 276 275 275 274 274 274 275 275 273 272 271 271 271 272 272 270 270 269 268 268 268 266 265 266 266 265 265 264 264 263 264 265 265 266 266 265
279 280 275 278 279 280 277 277 277 276 278 280 279 274 273 273 272 273 273 275 275 274 273 272 272 271 271 271 271 272 271 270 269 269 269 269 268 268 266 267 266 263 264 264 263 264 264 264 265 265 265 264 263 264
279 280 280 273 276 278 277 277 277 279 279 280 278 274 271 270 271 271 273 274 275 275 272 271 270 270 269 269 268 268 269 270 269 266 265 267 267 267 267 266 265 265 264 264 263 263 264 265 264 263 262 262 262 262
278 280 278 274 274 275 278 280 280 280 278 276 275 272 270 269 269 271 272 272 271 269 268 268 268 270 268 269 268 267 266 266 265 265 265 264 265 266 265 265 264 264 263 263 263 263 263 263 263 263 262 261 261 260
280 281 278 278 276 279 277 277 281 278 276 273 272 271 269 268 269 269 268 268 268 269 269 268 267 267 267 266 266 266 266 266 263 263 263 264 265 265 265 264 264 263 263 262 261 261 260 261 261 260 260 259 258 258
276 273 274 274 276 275 274 275 274 277 276 273 269 269 267 268 266 268 267 268 269 267 262 265 267 266 265 265 264 264 258 263 264 263 262 263 264 265 264 264 263 262 262 261 261 260 259 259 259 259 259 258 257 256
274 274 275 274 274 274 272 271 270 271 272 270 267 267 266 267 264 266 267 266 266 266 266 266 266 266 264 262 263 264 261 264 262 261 261 260 259 260 262 263 263 262 260 260 260 260 259 258 258 258 257 256 256 255

GFSWCAN_sfc_thetae_021.txt.gz
Theta_e
300 301 301 301 301 302 302 303 304 303 306 305 306 306 306 307 307 313 326 328 318 310 311 313 311 309 309 310 308 310 307 307 307 302 303 302 300 300 298 299 296 295 294 293 294 289 287 301 301 295 303 305 305 306
301 301 301 301 301 301 303 304 304 305 304 305 305 306 306 307 307 310 324 327 329 317 315 320 319 319 317 317 314 312 310 310 310 307 306 308 297 293 299 294 301 295 300 299 297 298 303 303 302 305 306 305 305 305
301 300 300 300 301 301 304 304 304 304 304 304 305 306 306 307 307 311 326 327 324 318 315 314 313 318 320 321 323 312 315 315 313 318 311 309 296 304 293 299 301 301 302 299 297 300 301 303 305 305 306 306 307 308
300 301 301 303 303 303 304 304 304 304 304 304 305 305 306 306 307 309 324 328 323 317 302 311 318 315 318 320 320 320 319 317 316 315 312 300 299 306 303 303 301 303 302 299 299 302 302 303 306 306 307 308 308 309
302 302 302 302 303 303 303 303 303 303 304 305 305 305 306 307 308 318 324 322 324 317 305 309 314 314 317 317 316 317 316 314 312 309 300 305 306 305 304 304 301 303 300 299 298 304 303 304 307 308 307 306 306 307
301 301 302 302 302 302 302 302 303 303 303 304 305 306 306 307 308 319 316 319 319 323 314 305 313 311 315 316 315 315 316 315 315 311 306 308 305 307 298 299 303 303 304 304 302 306 307 307 304 303 301 300 300 300
302 302 303 302 303 304 304 303 304 304 304 304 305 305 306 308 319 313 309 313 309 321 312 303 304 310 312 313 312 314 316 314 315 311 303 308 305 306 297 298 302 300 301 304 304 305 304 301 299 301 300 300 297 296
301 302 302 303 303 304 305 304 304 305 305 305 306 306 307 307 306 314 310 306 311 312 315 303 298 305 311 307 305 311 309 314 307 303 303 303 303 305 299 299 299 299 301 300 300 302 301 301 300 298 297 294 292 291
301 301 301 302 302 303 303 304 305 305 305 306 307 309 317 316 314 312 302 307 316 313 307 304 296 294 308 301 304 305 309 300 304 297 302 304 294 295 295 295 296 297 297 298 299 299 299 296 293 293 293 292 290 289
301 301 301 301 301 302 302 302 303 304 304 305 316 312 307 309 303 307 309 310 310 309 306 294 303 296 305 298 296 299 300 297 293 296 300 296 294 292 293 294 296 297 299 299 294 293 292 290 291 291 292 293 293 294
300 300 300 301 301 301 301 302 303 304 305 315 311 305 309 304 307 306 300 302 304 298 299 296 298 296 303 297 293 297 294 295 290 295 293 292 291 290 292 293 295 297 298 297 297 294 294 294 292 292 292 292 290 289
300 300 300 300 300 300 301 301 305 309 308 309 309 309 309 304 303 295 292 295 296 292 293 293 295 297 297 304 297 296 290 292 288 297 291 289 287 290 290 291 293 295 295 294 294 293 293 292 292 290 289 288 287 287
299 299 299 299 299 300 300 300 301 301 304 311 306 297 301 296 290 288 285 289 289 291 291 292 290 296 297 300 295 294 289 290 297 290 288 288 288 289 290 292 293 294 293 293 292 291 291 289 289 289 287 286 287 289
298 298 298 298 298 298 299 299 301 303 306 298 294 288 288 289 287 286 287 287 287 288 292 295 292 294 294 291 292 287 287 291 286 285 287 286 287 288 291 292 292 291 290 290 290 289 288 286 285 285 285 286 285 285
297 297 297 297 298 298 298 299 301 303 299 292 292 284 285 285 286 286 286 287 288 291 294 296 295 297 291 289 290 288 285 285 287 287 287 287 287 288 290 291 290 288 287 290 291 287 286 287 286 285 285 284 284 283
298 299 296 297 297 298 298 300 301 300 294 290 288 285 286 286 285 285 285 285 289 289 292 295 289 289 286 289 287 287 287 285 286 288 287 287 286 288 290 290 291 292 291 291 290 288 286 285 285 285 284 283 283 283
298 297 295 297 297 298 299 298 296 291 289 288 285 285 286 285 284 285 286 286 289 288 285 289 287 285 288 287 285 289 286 287 287 287 289 288 287 288 291 290 290 290 290 290 289 287 285 284 284 283 282 282 282 282
296 298 295 296 299 299 296 297 293 290 285 288 286 285 287 286 286 287 289 291 292 290 289 286 289 286 285 284 285 287 288 287 289 289 289 290 289 289 291 291 291 290 288 286 285 285 284 284 283 283 281 281 281 281
294 295 295 297 299 297 291 291 293 285 285 287 288 288 288 287 290 290 289 293 294 294 292 290 287 285 286 287 285 286 287 288 287 287 287 289 290 290 290 290 288 287 286 286 286 286 284 281 281 281 280 280 279 280
294 294 294 296 299 294 287 288 294 288 285 286 288 286 288 288 289 287 288 292 293 292 288 285 283 283 284 284 285 287 289 289 286 285 284 286 288 289 288 287 286 286 285 282 281 281 283 282 280 279 278 278 277 277
296 294 295 298 296 293 288 288 287 288 288 286 288 289 287 290 288 287 288 292 290 285 284 286 285 286 286 285 286 287 287 289 289 289 288 285 287 287 285 284 284 284 284 282 281 279 278 277 277 277 277 277 276 277
294 294 296 295 291 289 288 290 288 290 288 287 287 288 286 285 286 286 289 287 283 282 284 285 284 285 284 282 282 283 285 287 286 285 284 284 282 282 281 282 281 279 278 278 278 276 276 275 275 275 275 275 276 277
293 294 292 290 285 285 282 290 284 285 283 284 287 283 283 283 285 290 284 284 281 283 285 284 283 283 282 282 282 281 282 282 280 279 279 278 278 277 276 276 277 277 276 274 275 274 274 272 273 273 274 274 274 274
291 286 283 282 284 279 285 281 285 284 285 283 282 279 279 282 286 284 279 279 280 282 281 282 285 283 282 280 278 278 280 279 278 278 279 277 275 274 275 273 273 273 272 273 273 273 273 273 271 273 272 272 272 271
283 280 283 280 284 281 279 279 281 282 279 280 279 280 280 283 280 278 276 277 279 278 279 281 281 281 279 278 278 276 277 278 276 274 276 277 276 275 274 273 272 271 272 272 271 271 271 271 271 270 270 270 269 269
277 280 279 280 280 280 279 278 278 278 279 278 279 281 282 281 276 274 276 276 277 277 276 277 279 278 276 276 276 275 274 277 277 274 272 273 273 273 272 272 272 272 271 271 270 269 269 269 268 267 268 269 268 268
277 278 281 284 281 281 280 281 282 280 278 278 279 279 279 275 274 274 276 277 276 276 277 277 277 277 276 275 274 274 274 274 273 272 273 272 272 272 271 269 268 269 269 269 268 268 267 267 267 267 267 269 268 267
280 281 277 279 281 282 279 279 278 277 279 281 280 276 275 275 274 275 276 277 277 277 276 275 275 275 274 274 275 275 275 274 273 273 273 273 272 272 270 270 269 266 268 268 266 266 266 266 266 267 267 266 266 267
280 281 281 276 279 280 279 278 278 279 281 280 279 277 274 273 273 275 275 276 278 278 275 274 273 275 274 274 273 273 273 272 271 268 268 270 270 271 270 269 269 269 268 268 267 267 266 265 266 265 265 265 266 266
279 282 280 278 277 276 278 281 281 280 280 279 278 275 273 272 272 275 275 275 274 272 272 272 273 273 272 273 271 270 270 269 268 267 267 266 267 268 268 268 268 268 267 267 266 266 266 266 266 266 265 265 265 264
282 283 280 280 277 279 280 281 282 280 279 277 277 276 272 271 272 272 272 272 272 273 273 271 270 271 270 268 269 268 268 269 266 266 266 266 267 268 268 267 267 267 266 266 265 265 264 263 264 264 264 263 262 261
280 277 277 275 277 279 280 279 279 279 278 277 273 274 272 272 269 270 270 272 272 270 267 270 270 268 268 269 268 269 263 267 267 266 266 266 266 267 267 267 267 266 266 264 264 264 264 262 262 262 262 262 261 259
278 278 278 277 277 276 277 277 276 274 275 273 271 272 270 271 266 269 271 271 270 269 269 269 270 270 268 266 267 267 267 268 266 266 265 265 263 263 264 266 266 266 264 264 264 264 263 262 262 261 260 260 259 259

GFSWCAN_sfc_thetae_024.txt.gz
Theta_e
299 299 299 299 300 300 301 302 302 303 303 303 303 303 303 303 305 307 307 312 313 309 312 315 313 308 312 313 306 310 307 309 312 303 302 304 299 302 300 299 296 294 294 292 296 288 286 302 301 296 304 307 305 305
299 299 299 300 300 301 301 302 302 303 303 303 304 303 304 306 307 309 304 314 318 317 315 322 319 320 318 316 315 313 311 309 312 308 306 309 294 293 299 295 302 296 301 300 297 297 305 305 303 306 307 305 306 306
300 300 300 300 301 301 302 302 302 303 303 303 304 305 305 306 307 308 308 312 322 319 314 314 313 318 321 322 326 311 315 316 315 321 315 311 293 304 293 300 303 302 304 302 301 300 302 304 305 305 306 306 307 308
300 301 301 301 300 300 301 302 302 302 304 304 304 305 305 306 307 308 308 314 322 317 301 311 319 315 319 321 322 322 322 323 321 319 313 297 297 309 303 305 306 304 303 299 300 302 303 304 306 307 307 308 308 308
299 299 299 300 299 300 301 302 302 303 304 304 305 305 305 307 308 310 312 317 325 316 305 308 315 316 317 319 318 320 321 318 316 310 297 306 310 307 306 307 304 304 301 301 300 304 304 304 305 306 303 302 302 301
300 300 300 300 302 301 302 303 303 303 304 304 305 305 306 307 307 311 310 321 323 325 313 304 313 312 315 317 316 316 318 318 316 312 307 310 309 309 298 299 303 304 305 305 303 306 306 304 302 302 299 299 299 298
302 302 302 302 302 302 302 302 303 303 304 304 305 305 306 306 314 312 307 310 308 324 313 301 301 310 315 314 314 314 317 316 315 312 307 308 306 307 297 299 303 302 302 305 304 305 301 302 298 301 297 297 296 294
302 303 303 302 302 302 302 302 303 303 303 304 305 305 306 306 308 311 313 308 308 315 314 299 293 302 312 308 305 312 313 313 309 304 306 306 303 308 300 301 301 300 302 301 301 302 301 300 298 296 296 295 293 291
301 301 302 303 303 303 303 303 303 303 304 305 305 306 311 315 313 313 304 305 321 311 299 301 294 293 309 302 304 306 310 300 305 299 305 305 296 296 299 299 298 298 300 299 300 300 298 295 294 294 293 292 290 290
300 300 301 302 304 304 304 304 304 304 305 306 311 312 303 309 305 306 311 310 309 306 307 295 302 296 303 298 295 298 301 297 293 297 302 297 295 296 297 298 298 299 300 300 295 291 292 291 292 292 292 292 291 289
300 300 300 301 301 302 303 305 306 307 307 317 310 302 309 306 310 306 299 300 300 295 298 297 299 297 304 297 294 298 294 295 291 294 295 292 290 292 295 295 297 299 299 298 297 295 295 293 292 291 289 288 288 287
300 299 300 300 301 302 302 303 305 310 311 310 310 310 309 306 300 292 292 295 296 292 292 293 296 298 299 305 296 296 290 293 289 296 290 288 291 292 293 293 295 296 296 295 295 293 293 291 290 289 288 287 285 285
299 299 299 299 300 301 301 301 302 304 305 312 304 295 298 293 288 289 285 288 287 290 290 291 290 297 298 300 294 293 288 290 296 288 288 289 290 291 292 293 293 294 294 293 291 291 290 289 288 286 285 285 286 287
298 298 298 298 299 300 301 301 302 306 307 299 292 286 287 286 285 285 286 286 286 287 289 293 291 293 292 290 291 287 287 292 286 284 287 287 289 290 292 292 292 290 289 289 289 287 286 284 284 284 284 284 282 282
298 297 298 297 299 300 301 301 301 302 297 290 289 283 283 285 286 286 286 287 287 291 291 295 295 295 290 287 289 287 285 285 286 287 287 288 289 290 290 291 288 288 287 288 288 286 284 285 284 283 283 283 283 281
299 299 296 297 298 300 300 300 301 299 292 288 286 284 285 285 284 285 285 285 288 289 293 295 290 288 286 288 287 285 287 285 285 286 286 287 287 289 290 289 289 290 290 288 287 286 285 285 284 283 283 282 281 280
299 296 295 297 298 299 300 298 296 291 288 287 285 285 285 285 284 285 285 286 289 288 286 289 286 283 288 286 285 286 283 285 284 286 286 287 287 289 290 289 289 289 289 288 287 286 285 284 284 283 282 281 282 282
296 298 297 298 300 299 298 297 292 290 285 286 284 285 286 286 285 286 288 290 290 287 288 286 288 286 284 283 283 285 286 285 288 288 287 288 289 289 291 290 290 290 288 286 286 285 284 284 284 282 281 281 282 281
294 296 296 298 300 297 292 292 294 285 285 286 287 288 287 288 290 290 289 293 296 295 291 288 284 282 282 283 283 284 285 286 285 286 287 288 288 289 289 289 287 286 286 286 286 285 282 281 281 280 279 279 278 279
296 295 296 297 299 294 288 289 295 288 284 286 289 287 288 288 289 287 288 293 293 291 286 283 281 282 282 282 283 284 286 287 287 285 284 286 289 289 288 287 287 286 284 282 282 283 282 281 279 278 278 277 277 276
296 295 297 298 296 293 290 289 287 289 288 286 289 290 287 289 288 287 288 292 285 283 282 283 283 283 284 284 283 284 284 284 284 286 287 284 285 285 285 286 286 286 283 282 280 278 278 277 276 276 277 277 276 277
294 295 297 296 291 289 288 291 288 290 287 287 287 289 286 284 285 286 290 284 280 281 283 282 282 283 281 280 281 283 283 283 282 282 284 284 282 280 280 281 280 278 277 277 277 276 276 274 274 274 275 275 275 276
295 295 292 291 285 285 282 291 284 286 282 284 287 283 282 282 285 290 282 281 280 282 283 283 282 283 281 282 281 280 282 281 279 279 278 278 277 277 276 275 276 276 274 274 275 274 274 273 273 273 274 274 274 274
293 286 283 283 285 280 287 282 286 284 285 283 282 279 279 281 286 283 277 278 279 281 281 281 283 282 281 279 277 277 279 279 278 278 279 277 275 274 274 273 273 273 273 274 274 273 273 273 271 272 272 271 271 271
283 280 283 280 286 282 280 280 281 281 278 280 280 279 280 285 280 278 276 277 278 277 278 281 280 279 279 277 277 276 278 278 275 273 275 278 276 275 273 272 272 271 273 271 270 270 271 271 271 270 269 269 269 268
277 280 279 280 280 280 280 278 278 278 279 279 278 280 282 281 277 274 275 276 276 275 276 277 278 277 275 275 274 273 274 277 277 272 272 273 273 274 273 272 272 270 271 271 269 268 268 268 268 267 267 268 268 268
276 278 281 284 282 282 281 281 283 281 279 278 279 280 280 276 274 274 276 277 276 276 276 277 277 275 274 274 274 274 274 274 273 273 273 273 272 272 270 268 267 267 269 269 268 267 266 266 266 266 267 268 268 267
280 280 277 280 281 283 279 279 279 278 278 280 281 276 275 273 271 275 275 277 278 277 276 276 275 275 274 274 275 275 275 275 274 274 274 273 273 272 271 270 269 268 268 268 267 267 266 266 265 265 266 265 265 267
279 282 283 277 280 279 279 278 279 279 280 279 279 276 273 273 274 275 275 277 279 278 276 275 275 276 275 274 273 273 272 271 270 268 268 269 270 269 270 270 269 269 269 268 268 268 268 266 266 265 265 265 265 266
278 283 280 279 277 276 278 281 280 280 279 279 278 275 272 272 273 276 275 274 274 273 273 273 273 273 271 272 271 270 270 268 267 266 265 265 265 268 269 269 268 268 268 267 266 266 267 267 266 266 266 266 265 264
282 283 280 280 278 278 279 281 282 281 280 277 277 275 271 270 272 272 272 274 273 273 273 271 270 270 269 268 268 267 268 269 267 267 266 266 267 267 268 268 268 268 267 266 266 265 264 264 264 264 264 263 263 262
280 277 277 276 278 279 280 279 279 280 278 277 274 274 273 273 269 269 270 272 272 270 269 270 269 268 269 269 269 269 264 268 268 267 266 265 265 266 266 266 266 267 266 265 265 264 264 264 263 263 262 262 261 260
279 279 279 278 277 277 278 277 277 275 275 273 271 272 271 270 266 269 272 272 270 269 269 269 270 270 269 268 268 268 267 269 268 268 267 267 264 264 264 265 265 265 264 263 263 263 263 263 263 262 261 260 260 259

GFSWCAN_sfc_thetae_027.txt.gz
Theta_e
298 298 299 299 299 299 299 299 300 301 302 303 303 304 304 303 304 302 300 304 307 304 306 310 308 305 308 305 297 303 302 300 293 291 288 286 285 288 288 295 290 286 283 280 284 282 280 299 297 289 295 298 299 298
299 299 299 299 299 299 299 300 301 301 301 302 303 303 303 303 303 303 296 306 311 304 307 315 314 314 314 312 306 304 305 303 303 296 293 291 288 287 287 283 297 287 292 287 289 287 298 298 297 300 300 298 299 300
299 299 299 299 299 300 300 301 301 302 302 303 303 303 303 303 304 303 301 310 309 303 305 309 308 312 317 317 315 304 307 309 307 309 298 294 289 287 285 286 290 296 300 291 291 296 297 298 302 303 303 302 302 300
299 299 299 299 300 300 301 301 301 302 302 303 303 303 303 304 305 305 303 308 308 304 295 305 316 310 316 318 317 317 313 314 313 309 294 291 290 300 287 293 290 296 297 295 293 296 301 301 302 302 300 301 297 296
299 299 299 300 300 301 301 301 302 302 303 303 303 304 304 306 307 308 308 309 311 303 298 301 310 313 314 315 315 317 313 310 305 295 288 290 292 294 288 290 287 298 295 288 286 300 297 297 299 300 297 296 297 295
300 300 300 300 300 300 300 301 301 302 302 303 304 304 305 305 306 308 301 309 310 308 301 293 307 308 310 313 312 312 311 309 308 300 294 298 302 294 286 284 298 300 301 301 299 300 299 297 296 297 295 294 294 293
299 299 299 299 300 299 300 300 301 302 303 304 304 304 305 305 308 303 302 308 309 309 303 292 293 306 310 310 306 308 310 307 305 301 293 295 296 299 286 285 297 299 300 300 301 300 296 297 293 294 293 293 293 292
298 299 300 300 299 300 300 300 301 302 303 304 304 304 305 306 307 306 310 307 307 309 305 292 291 297 309 295 294 304 298 300 300 296 295 290 294 288 286 295 297 299 299 298 297 299 295 295 294 294 293 292 289 288
301 300 301 301 301 301 302 302 302 303 304 304 304 305 306 307 306 308 306 306 313 306 292 291 289 289 304 297 295 298 301 291 299 289 289 292 286 287 295 295 295 297 297 296 296 295 294 292 292 291 289 289 287 287
301 301 301 301 301 301 302 302 302 303 304 305 306 306 297 305 306 307 306 300 298 299 296 288 295 291 299 290 290 291 290 290 285 291 294 287 283 292 294 295 295 297 297 294 290 288 289 290 289 290 289 287 287 287
302 302 302 302 302 302 302 302 303 304 304 307 302 296 304 306 305 296 288 289 290 286 289 290 293 291 299 290 288 290 288 287 282 287 286 286 283 290 293 293 294 296 298 297 294 293 293 292 289 287 286 285 283 282
301 302 302 303 303 303 303 303 304 307 307 306 305 306 304 300 294 288 286 286 289 287 286 289 291 296 292 298 288 290 287 285 282 292 287 282 286 291 292 292 294 295 294 294 293 291 290 289 288 286 284 283 282 282
300 301 301 301 302 304 305 305 305 306 306 304 297 291 295 289 287 286 282 285 285 286 288 288 287 289 292 294 288 288 287 285 288 286 283 282 289 290 291 292 291 292 291 289 289 289 288 286 285 284 284 283 282 281
298 299 300 301 301 301 301 301 303 304 302 292 287 284 285 285 283 283 284 285 285 285 286 289 287 287 287 287 286 285 285 286 284 281 281 285 288 290 291 291 290 288 286 285 285 284 283 283 282 281 281 279 279 279
298 298 298 298 300 300 300 300 300 299 292 286 286 281 282 284 285 285 285 286 286 288 287 288 288 290 286 286 286 285 284 282 283 280 284 287 288 289 289 288 286 285 284 284 284 283 282 281 280 281 280 280 280 277
300 297 296 298 300 300 300 300 298 295 289 286 284 284 285 284 284 284 285 285 288 286 288 288 286 285 285 285 284 284 282 279 281 283 285 287 287 288 287 287 287 287 286 285 285 284 283 281 280 280 280 278 276 274
298 293 297 298 299 299 299 296 293 288 285 284 283 285 285 284 283 285 285 286 289 287 285 286 284 282 285 284 281 283 280 282 284 284 286 287 287 286 286 287 287 286 285 284 284 284 283 282 280 279 278 279 279 277
293 295 298 299 300 297 297 294 288 286 283 284 282 284 285 285 285 285 286 287 287 286 286 284 286 282 280 279 279 283 283 284 285 285 285 287 288 288 289 288 288 287 285 284 283 283 282 280 280 278 278 279 278 277
294 295 297 299 298 293 287 288 290 283 283 284 285 286 285 285 286 287 287 289 289 288 287 285 280 278 278 280 279 281 284 284 284 285 286 287 288 288 288 286 285 284 284 283 283 279 279 279 278 277 277 276 274 274
296 296 297 297 298 287 284 285 292 285 283 284 286 284 284 284 286 286 285 285 286 284 280 279 278 279 279 280 281 282 282 285 285 283 284 286 287 286 285 285 284 282 281 280 280 279 277 276 277 276 275 274 270 268
294 293 296 296 291 289 285 283 284 284 285 283 284 283 282 284 284 283 282 283 280 279 278 279 280 279 281 281 282 283 281 281 281 283 284 281 283 283 282 283 283 282 280 278 276 275 274 273 273 274 267 265 264 265
290 296 288 289 285 284 283 286 283 284 284 283 282 283 279 277 279 282 281 278 277 278 280 279 280 279 279 278 279 280 281 280 279 278 278 278 276 276 276 277 276 274 274 275 275 273 272 272 272 270 264 263 266 266
293 291 285 284 277 276 275 284 277 281 275 277 279 277 279 280 281 284 276 278 278 281 281 281 280 280 278 278 278 278 279 278 276 276 275 274 274 274 273 273 274 273 272 273 274 273 272 272 271 268 268 266 261 263
291 284 278 277 277 276 277 274 280 279 276 275 274 274 277 279 279 273 273 275 277 278 279 279 281 278 277 276 274 275 277 276 275 275 276 274 272 272 272 271 271 271 272 272 271 270 269 266 266 265 260 257 257 257
276 275 277 271 277 273 274 278 278 278 276 278 273 275 278 278 272 273 273 274 272 272 274 278 275 274 274 273 273 273 274 275 272 270 271 275 273 271 270 270 269 269 269 266 264 261 261 259 257 257 257 255 257 257
275 279 277 278 278 278 278 275 276 277 277 276 277 279 278 276 270 269 272 272 271 270 272 273 274 270 271 272 271 270 271 275 273 269 270 270 269 269 267 266 266 264 265 260 257 256 257 257 255 257 255 259 261 260
275 277 280 283 281 280 279 280 280 276 272 273 277 276 275 272 266 271 272 273 272 271 273 273 274 273 272 272 273 271 271 271 270 270 270 270 269 268 263 259 257 261 261 259 256 254 254 255 254 254 257 260 258 256
278 280 276 279 279 281 277 277 276 274 275 278 278 269 267 267 266 272 273 275 273 273 273 273 273 272 271 271 271 269 268 269 267 267 270 268 266 263 262 260 261 266 262 261 257 260 257 257 254 253 254 254 253 253
278 281 276 274 278 277 277 277 276 277 278 277 273 269 268 270 271 272 273 275 275 273 271 271 272 271 268 268 266 265 264 263 260 258 256 257 260 261 261 259 260 258 257 257 262 264 261 259 260 256 254 258 258 256
277 279 273 271 272 273 273 278 276 277 278 276 271 271 270 269 270 272 271 271 270 267 268 270 269 267 264 265 263 263 260 258 258 256 253 253 254 259 258 261 259 256 258 255 255 257 261 258 258 254 254 255 259 256
280 276 272 272 269 273 277 279 277 278 276 271 271 267 265 266 266 269 268 270 268 269 269 264 264 263 261 260 257 256 257 257 257 259 257 255 255 255 261 262 262 257 256 261 259 255 253 253 255 256 253 253 255 254
277 275 268 268 271 273 279 275 276 277 273 270 265 264 263 265 260 263 267 268 267 266 266 264 262 261 258 258 258 257 258 257 260 257 257 255 254 255 254 255 254 259 261 260 259 257 257 257 256 257 255 255 252 250
272 271 270 269 269 270 270 268 272 268 267 265 264 266 262 262 260 263 267 266 262 260 260 261 265 264 262 259 258 258 262 260 260 263 265 264 260 259 256 254 255 253 253 253 253 253 254 257 258 258 256 252 250 252

GFSWCAN_sfc_thetae_030.txt.gz
Theta_e
298 298 299 299 299 299 300 300 300 300 300 301 301 301 301 302 305 302 302 304 301 299 302 306 304 300 302 304 297 300 300 299 291 289 287 285 282 288 287 291 288 285 282 279 283 277 279 298 295 289 291 296 297 296
299 298 298 299 299 299 300 300 300 300 300 300 300 302 302 304 304 303 299 305 306 298 302 308 308 308 308 309 304 301 301 301 300 294 291 288 286 285 286 283 294 286 289 285 287 286 295 296 296 298 298 297 297 299
298 298 298 299 299 299 299 300 300 300 300 301 301 302 303 304 304 302 301 304 304 299 301 302 303 310 314 313 314 302 303 306 304 304 296 293 286 285 284 283 288 293 298 290 290 295 295 299 300 301 301 297 295 297
299 299 299 299 299 298 299 299 300 300 301 302 302 303 303 304 304 303 301 304 306 303 292 300 314 309 315 315 314 311 309 311 309 302 292 289 287 294 284 290 288 293 295 293 291 295 298 298 297 297 295 295 293 294
299 299 299 299 300 299 300 300 300 301 302 302 303 303 303 304 304 303 304 305 307 303 294 297 308 312 314 315 314 313 312 307 300 293 287 287 288 293 284 288 285 295 293 288 286 297 295 295 296 297 294 294 293 292
299 299 299 300 300 300 300 300 301 301 302 302 303 303 303 303 304 303 298 306 309 309 298 290 304 306 311 313 313 311 310 307 303 297 289 295 300 292 284 282 295 298 299 299 297 299 296 295 295 295 293 292 292 291
299 299 300 300 300 301 301 301 301 302 302 303 303 303 304 304 304 300 298 305 308 308 298 291 293 305 309 307 305 306 308 303 303 298 291 292 295 294 283 285 296 297 298 297 297 296 292 294 290 292 292 291 292 290
300 300 300 300 300 300 300 301 301 302 302 302 303 303 304 304 305 303 305 307 309 305 304 290 292 295 306 295 295 302 297 298 298 296 294 289 293 286 286 294 296 296 296 296 295 296 294 292 291 290 290 290 288 286
298 299 299 299 299 299 300 300 301 302 303 303 304 304 304 303 300 302 306 307 308 305 294 288 288 289 300 293 293 295 295 290 296 289 289 292 287 284 292 293 295 295 294 292 293 293 292 290 289 288 288 287 285 284
298 298 299 298 299 299 299 300 301 302 303 303 303 301 293 302 306 308 305 300 299 299 294 288 294 290 297 289 290 287 289 288 286 288 292 286 286 290 292 293 295 294 294 293 288 287 288 287 287 287 286 286 285 283
300 299 299 300 300 300 300 301 302 303 303 302 299 295 305 306 303 297 289 289 289 286 289 289 289 292 297 290 288 288 287 285 283 287 286 285 284 288 292 293 294 295 295 293 292 291 290 289 287 285 284 283 282 282
302 302 301 301 302 302 302 302 303 303 303 305 304 305 304 299 290 287 285 287 286 286 288 288 290 295 292 297 290 288 286 284 281 290 283 284 287 291 293 293 294 294 294 293 293 290 289 288 287 284 282 282 282 282
302 302 302 302 302 303 303 303 303 304 304 301 295 289 292 286 284 281 282 285 284 286 287 287 287 289 291 293 287 287 284 282 287 286 283 282 289 291 291 291 289 290 289 289 288 288 287 286 285 283 282 281 281 281
300 301 301 301 301 301 301 301 301 301 296 288 286 283 284 282 282 282 284 285 285 285 286 287 287 288 286 287 286 284 285 286 279 276 279 285 288 289 289 289 288 286 285 284 284 284 283 283 281 282 281 280 280 279
299 299 300 300 300 300 300 299 299 296 290 285 285 280 281 284 285 285 285 285 286 287 286 287 287 289 285 286 285 285 283 281 280 279 283 286 288 288 287 287 285 284 283 283 283 282 281 281 280 280 280 280 279 278
298 298 297 299 300 300 299 298 294 292 286 282 284 283 284 284 283 284 285 285 288 286 287 287 285 284 284 285 283 282 281 279 280 283 285 287 286 286 286 286 285 284 283 283 283 282 281 280 280 280 279 277 276 275
297 292 298 299 299 299 299 294 289 286 285 283 282 284 284 284 283 284 284 285 288 286 285 285 282 281 285 281 279 282 278 281 283 284 285 287 285 286 286 285 285 285 284 284 283 282 281 280 279 279 277 278 278 276
290 293 299 300 298 296 295 293 287 285 283 284 282 283 285 285 284 284 285 287 286 285 285 283 285 279 276 276 276 279 283 284 284 284 286 286 286 286 288 287 287 285 284 284 283 282 280 279 279 278 279 278 277 277
294 295 297 298 296 290 287 288 289 282 283 284 284 285 285 285 285 284 284 286 288 287 285 282 277 276 275 277 277 279 280 283 283 284 285 287 287 287 287 286 285 284 283 283 281 279 278 278 277 277 276 275 273 273
296 296 296 296 294 285 284 285 290 284 282 284 285 284 284 284 284 283 281 282 284 282 279 276 275 276 276 277 279 279 279 282 284 283 283 284 285 285 284 284 281 281 280 279 278 277 276 275 276 275 274 273 271 269
291 291 293 290 286 286 283 282 283 284 284 282 282 282 281 283 280 278 278 281 278 278 275 278 276 277 279 279 279 280 279 278 277 281 280 277 278 278 277 278 279 278 276 275 273 273 273 272 273 273 272 270 269 268
287 293 281 285 281 281 281 283 282 282 283 281 281 281 278 277 278 277 278 275 276 277 279 278 277 277 276 276 277 278 278 277 277 276 275 275 273 274 274 274 274 273 273 273 272 271 271 272 272 271 270 268 269 268
289 286 281 279 274 274 274 281 277 281 275 275 277 277 277 277 280 280 274 276 276 278 279 277 276 277 276 276 276 276 276 276 274 274 273 272 272 272 272 272 273 272 271 272 273 271 270 271 270 268 267 266 263 260
287 279 277 272 274 271 272 274 278 276 274 273 272 273 276 277 277 272 270 272 274 275 276 276 277 274 274 273 271 272 274 274 272 272 273 271 270 270 270 269 269 269 269 269 268 267 267 265 265 264 261 256 254 254
274 273 272 268 271 272 274 273 272 273 270 269 271 274 276 273 270 267 268 270 270 270 272 273 272 272 269 269 270 271 273 272 270 268 269 272 270 269 268 267 266 266 267 264 261 260 260 258 257 256 255 250 256 257
274 275 273 277 277 276 276 273 274 274 268 268 274 277 271 266 262 264 269 266 268 267 268 269 267 269 269 270 268 268 270 273 271 267 268 269 268 265 264 263 262 261 262 255 254 252 253 252 251 252 252 257 259 256
274 271 278 281 280 277 274 273 273 269 266 267 269 268 272 261 262 268 272 272 270 268 272 271 271 270 269 270 270 270 269 269 269 268 269 268 267 265 260 256 256 259 258 255 252 251 252 251 250 250 249 250 251 251
277 277 272 276 273 275 267 267 266 268 271 275 272 264 262 260 263 270 272 274 273 273 272 271 271 270 268 266 265 264 263 264 268 267 266 265 264 263 260 260 259 266 258 254 253 257 256 257 257 255 253 251 253 250
277 278 272 271 269 272 272 269 268 273 276 274 267 264 264 268 268 268 271 272 272 270 268 267 268 267 265 264 262 262 262 261 257 255 251 251 253 256 261 262 260 258 255 254 259 262 259 257 258 255 252 252 257 254
270 269 266 263 264 267 269 273 272 272 270 266 268 268 267 266 268 269 269 268 267 265 264 264 264 263 260 256 257 259 257 255 257 254 250 250 253 256 254 254 255 256 257 252 254 257 258 252 254 253 253 253 249 250
272 267 266 265 268 274 276 275 276 269 263 263 263 260 260 262 263 267 267 266 267 264 263 261 259 256 257 256 253 251 253 254 256 256 254 252 251 249 250 250 250 250 252 253 254 255 254 252 251 252 254 255 253 250
265 262 263 264 267 271 272 275 271 270 264 262 259 255 258 257 256 262 265 262 262 262 261 258 257 259 255 251 250 254 257 256 255 255 255 255 254 254 256 254 249 249 248 248 247 249 249 251 253 255 256 254 253 250
264 261 259 261 266 265 262 264 266 264 262 261 260 260 258 258 257 260 264 263 260 255 254 253 255 257 260 258 256 254 256 253 252 258 258 259 256 257 252 250 250 250 251 249 249 246 251 252 250 250 251 252 253 251

GFSWCAN_sfc_thetae_036.txt.gz
Theta_e
302 302 302 302 302 302 302 303 302 302 302 302 302 301 301 302 302 297 293 299 297 292 294 299 301 295 296 296 290 294 298 297 288 288 286 285 280 287 285 289 288 288 283 279 278 276 280 292 292 287 290 291 293 294
301 302 302 301 302 302 301 301 301 301 301 301 301 301 301 301 302 298 292 299 301 297 296 302 301 301 300 300 297 297 295 297 296 292 286 286 282 280 286 283 291 287 289 286 287 286 293 293 292 294 294 294 294 294
297 299 299 299 300 300 300 300 300 300 300 300 300 301 301 301 301 298 296 298 298 296 295 297 295 302 304 304 305 297 298 302 299 301 294 291 287 286 284 285 288 290 292 287 288 291 292 294 295 295 295 294 296 296
297 297 298 298 299 299 299 299 299 299 299 299 300 300 301 301 301 300 297 302 301 298 288 294 306 303 309 307 306 306 304 304 302 301 293 289 288 292 285 291 288 291 292 289 288 292 293 295 294 293 292 293 292 292
298 298 298 298 298 298 298 298 299 299 299 300 300 300 300 301 302 300 300 303 303 295 289 292 298 303 306 309 308 307 307 302 297 293 287 289 290 291 286 290 285 293 292 289 289 294 294 294 293 293 292 291 291 290
298 298 298 298 299 299 299 299 299 299 299 300 300 301 301 301 302 298 292 301 305 304 294 286 297 298 305 307 306 306 307 300 298 294 290 295 299 295 288 286 294 295 296 297 295 297 293 292 292 292 291 289 289 288
298 299 299 298 299 299 299 299 299 299 300 300 301 301 301 302 300 294 291 297 303 303 295 287 284 295 305 305 301 301 302 300 299 295 290 293 295 293 284 286 295 297 297 296 295 294 290 291 289 290 289 288 288 287
298 298 298 298 298 299 299 299 300 300 300 300 301 301 302 302 300 295 299 303 303 299 296 287 287 292 303 295 296 301 292 295 297 295 289 289 293 285 287 292 293 293 294 294 293 293 293 291 290 288 288 287 285 284
299 299 299 299 300 299 300 300 300 300 301 301 302 302 300 295 291 293 303 304 304 298 289 288 287 286 298 294 295 291 292 287 295 289 289 291 286 287 289 291 292 292 293 290 290 290 290 288 287 287 286 285 284 283
299 299 299 299 300 300 300 300 299 301 301 302 299 294 285 292 303 303 301 296 297 297 297 288 293 287 296 289 290 289 288 287 284 288 292 286 286 289 290 292 292 292 291 290 286 285 285 285 285 285 284 285 285 284
299 299 299 300 300 300 301 301 301 302 301 296 292 290 298 303 300 294 287 288 289 286 290 289 290 290 296 288 288 289 287 286 286 288 289 286 286 287 291 292 293 292 292 293 292 290 289 287 285 283 283 284 283 284
300 299 299 299 300 300 301 301 302 300 295 296 299 302 300 294 288 286 285 285 285 286 287 288 289 294 291 295 288 288 286 285 284 289 286 285 286 289 290 290 291 291 290 289 290 288 287 286 286 284 283 283 282 281
299 299 299 299 299 300 300 301 301 302 302 301 294 289 289 285 284 281 282 284 284 285 287 287 286 288 290 291 286 286 285 284 287 286 283 284 288 289 289 289 289 290 289 289 288 288 286 285 285 283 282 282 281 280
299 299 299 299 299 300 300 301 301 300 297 288 287 280 282 280 281 281 282 284 285 285 285 286 286 286 285 286 285 285 284 286 282 279 279 284 286 286 287 288 287 285 285 284 284 284 282 282 281 282 281 281 280 279
299 299 299 299 300 300 300 300 298 296 290 285 284 279 281 284 284 284 285 285 286 287 286 286 286 288 285 285 285 285 283 279 280 279 282 285 286 286 285 284 284 283 283 283 283 281 281 281 280 279 279 279 279 278
300 299 298 300 301 301 299 298 295 292 285 284 283 281 283 282 282 283 283 284 287 286 286 286 285 284 283 281 277 276 278 275 278 281 284 285 284 284 284 284 283 284 283 283 282 281 281 280 279 278 277 277 276 275
298 294 299 299 298 298 298 293 289 285 283 281 281 282 281 282 280 280 281 282 286 286 284 284 277 276 281 277 273 275 274 278 280 283 284 285 284 283 283 283 283 283 282 282 282 281 280 279 279 277 276 276 276 275
293 296 299 299 298 297 294 291 284 284 281 283 279 279 279 279 278 278 280 283 285 285 282 278 280 271 269 268 270 274 276 277 283 283 283 284 284 284 284 283 283 282 282 281 280 280 279 278 278 277 277 276 276 276
294 295 298 299 297 292 286 287 287 280 279 281 280 281 280 278 280 280 280 282 282 282 280 277 272 270 271 273 272 274 274 275 279 278 278 279 282 284 283 283 282 281 280 280 278 277 277 277 276 277 276 276 273 272
295 294 295 298 297 287 284 284 288 283 281 279 280 277 277 276 277 277 278 279 279 278 274 271 270 272 272 273 275 275 275 276 279 276 274 275 277 277 277 277 277 277 277 276 276 276 275 274 274 274 274 274 273 271
289 289 289 289 286 286 284 283 284 284 284 281 281 278 276 276 274 273 274 277 274 273 271 273 273 274 275 275 276 276 275 274 272 274 274 272 274 275 274 275 274 274 272 272 271 271 271 271 271 271 271 270 270 271
284 288 280 283 281 281 280 281 282 282 281 279 278 279 275 270 269 272 274 271 271 272 273 273 273 273 273 273 273 274 274 274 273 272 271 271 269 269 269 271 271 270 270 269 269 268 268 269 269 268 267 267 268 267
286 283 278 278 274 274 273 279 274 278 271 270 273 273 271 269 272 275 268 271 271 273 275 274 273 273 272 273 272 272 273 272 270 270 269 268 267 267 267 266 267 267 266 266 267 266 264 265 264 263 263 263 261 260
283 275 269 268 272 265 268 269 275 273 271 269 269 267 271 266 270 266 265 268 270 271 271 272 272 270 270 270 268 269 270 270 268 268 269 267 265 264 265 264 264 264 264 264 263 261 260 258 259 259 256 253 254 252
274 272 269 266 267 267 264 263 265 268 263 264 266 270 267 267 262 261 263 265 266 265 266 269 269 268 265 266 266 267 268 268 265 264 265 266 263 264 263 263 262 262 262 258 255 252 251 249 248 248 250 248 252 251
270 273 272 264 267 268 264 263 264 263 262 264 268 270 264 260 258 260 266 263 265 264 264 264 263 265 266 266 265 265 266 267 266 263 263 264 263 257 256 257 257 260 259 252 251 251 251 250 248 250 249 251 251 247
270 268 274 275 271 270 265 263 266 265 265 268 263 259 258 254 256 265 269 269 267 267 268 266 266 264 264 265 266 265 265 265 264 263 264 263 262 262 258 255 256 259 260 255 253 252 252 252 250 250 249 245 246 247
275 270 265 264 266 267 262 260 260 262 263 270 263 255 253 254 258 265 268 269 268 267 266 265 264 262 261 262 262 263 262 260 261 259 259 259 258 256 254 253 254 260 251 249 250 250 250 252 253 252 250 250 251 248
266 264 267 262 262 265 266 262 262 267 268 262 255 257 259 263 263 263 267 267 267 265 261 260 260 258 257 257 256 255 255 252 253 251 248 248 248 253 253 250 249 247 246 248 255 259 260 257 256 253 251 250 252 253
265 262 263 259 261 263 262 261 258 257 263 260 264 265 263 262 265 267 265 263 262 257 251 250 249 252 250 251 251 254 253 249 249 251 248 248 251 253 250 248 248 248 247 246 245 248 253 247 250 247 246 248 247 248
262 262 262 262 265 263 261 258 255 256 254 255 254 254 254 258 260 262 260 257 255 253 254 252 252 248 250 249 247 248 250 250 248 250 250 248 248 247 247 247 246 245 244 244 243 243 244 244 243 243 243 245 246 247
259 257 260 261 265 264 262 264 255 256 254 253 254 252 252 252 251 255 258 255 252 252 251 248 250 252 251 250 247 246 250 248 248 248 248 249 249 248 246 246 243 243 243 243 242 242 243 243 243 243 241 242 245 245
255 254 255 258 262 263 263 264 261 259 256 256 255 254 253 252 252 256 258 251 251 250 250 249 248 248 251 250 249 247 251 247 246 253 254 254 251 250 246 244 243 242 244 243 242 242 243 244 243 243 242 242 243 244

GFSWCAN_sfc_thetae_039.txt.gz
Theta_e
302 302 302 301 301 301 302 302 302 302 302 303 302 303 303 303 302 298 294 299 296 291 293 297 296 296 295 295 290 294 295 296 292 289 289 289 287 291 291 292 290 290 288 287 284 286 286 296 294 293 299 297 298 299
302 301 302 301 301 302 302 302 302 302 303 302 302 302 303 302 302 299 292 300 300 294 294 301 302 302 300 301 296 298 295 296 296 293 290 289 288 286 290 288 293 291 294 291 293 293 299 297 300 299 298 299 298 300
300 301 301 302 301 301 302 302 302 302 302 302 302 302 302 303 302 299 295 296 296 293 291 294 294 301 304 302 305 295 298 303 300 303 295 294 288 290 287 288 291 292 294 294 295 297 296 298 298 300 299 300 299 301
299 299 300 301 301 301 302 302 301 302 302 302 301 301 301 302 302 299 296 297 295 295 286 291 304 301 309 306 304 305 305 305 304 302 295 291 291 297 291 294 292 294 295 292 293 295 297 299 299 300 297 298 298 297
298 298 299 299 300 300 300 301 301 301 301 301 301 301 302 302 301 297 297 299 299 295 288 291 299 302 304 304 305 305 305 304 300 296 291 293 293 293 290 292 290 295 295 292 292 298 299 299 301 298 296 297 296 294
298 298 298 298 299 299 299 299 300 300 300 300 301 301 301 301 300 296 290 298 302 302 291 286 298 297 304 307 306 304 304 303 303 298 293 295 300 295 290 290 298 299 300 300 298 299 295 294 296 296 295 294 294 294
298 299 299 298 298 299 299 299 299 299 299 299 300 301 301 300 298 293 291 296 301 303 294 287 288 297 302 305 304 304 305 303 302 299 294 296 297 297 288 291 298 298 299 298 297 297 294 294 294 293 292 291 291 290
298 299 299 299 299 299 299 299 299 299 300 300 300 300 300 300 299 295 300 303 303 298 296 285 286 290 302 294 295 302 298 299 299 297 293 294 294 290 288 294 296 296 296 295 295 295 297 293 291 289 289 289 288 286
298 298 299 299 299 299 299 299 299 300 300 300 301 301 298 296 293 294 302 302 303 297 287 286 285 286 299 295 295 294 296 291 296 291 293 295 289 290 293 293 294 294 295 293 292 292 292 291 288 288 288 288 286 285
299 299 299 299 299 299 299 299 300 300 300 300 298 294 286 294 301 302 298 294 293 295 295 288 293 289 295 289 289 289 290 289 289 290 293 290 289 291 291 292 294 293 292 292 288 287 287 287 287 287 287 287 287 286
299 299 300 300 299 299 299 299 300 301 300 297 292 290 295 302 297 292 285 287 288 287 290 290 290 290 296 289 288 290 287 287 286 290 290 288 288 288 292 292 293 293 293 293 293 291 291 290 287 286 285 286 286 285
300 300 300 300 300 300 300 300 300 299 297 296 297 300 299 294 289 285 284 285 285 286 288 288 290 294 291 295 288 289 286 285 285 290 287 286 286 289 291 291 291 292 292 290 290 288 287 287 287 285 285 284 283 282
299 300 300 300 301 301 300 301 301 301 301 300 294 288 290 285 284 282 281 284 284 285 286 287 286 289 290 291 286 286 284 285 288 286 282 283 287 288 289 289 288 289 289 288 287 286 286 285 285 284 282 282 282 281
299 299 299 299 300 300 300 299 299 299 296 286 285 281 282 279 281 281 282 283 285 285 285 286 286 287 286 285 285 285 285 285 283 280 279 283 285 286 286 286 286 284 284 284 284 283 283 282 281 282 281 282 281 279
299 299 299 299 300 300 299 299 298 296 289 284 283 279 280 284 284 284 284 285 285 286 286 286 287 288 285 285 284 284 283 278 278 277 281 283 285 285 284 284 284 283 282 282 282 281 281 281 280 279 280 281 280 279
299 298 297 299 300 300 299 298 295 291 286 284 279 278 280 280 278 279 279 281 285 285 286 287 285 283 281 280 277 274 276 273 275 278 282 284 283 283 283 283 283 283 282 282 282 281 281 279 278 278 278 278 277 277
299 295 300 299 299 298 298 293 289 285 284 282 278 279 277 278 276 278 279 280 284 286 282 282 275 273 279 274 272 274 271 274 275 278 283 284 283 283 283 283 283 283 282 281 281 280 279 279 279 278 276 277 277 276
295 298 299 299 298 296 293 290 284 283 279 279 276 277 277 277 275 276 279 281 284 283 280 276 278 271 269 269 269 272 274 275 279 277 277 281 283 283 283 282 282 281 280 280 280 280 280 278 277 276 276 276 276 276
297 298 298 298 296 291 286 286 286 277 277 279 278 278 277 275 277 278 279 280 281 281 279 276 270 269 269 271 271 272 273 274 276 275 275 277 278 278 279 278 278 278 278 278 277 277 276 277 277 277 277 276 274 275
297 297 298 296 295 287 284 284 288 281 277 278 279 275 274 274 274 275 276 277 277 275 272 270 269 270 271 272 274 273 273 275 278 273 272 273 275 275 275 275 275 275 275 274 274 274 274 273 273 274 274 274 273 272
290 290 293 291 286 286 283 283 283 283 282 280 280 277 274 274 272 271 272 275 272 271 269 271 271 272 274 274 275 274 273 272 271 272 271 269 272 273 273 273 273 272 271 270 270 269 269 269 270 271 271 271 271 272
286 288 283 284 282 282 281 281 281 281 279 278 276 277 272 269 267 270 273 269 269 271 272 272 272 272 271 271 272 273 273 272 271 270 269 269 267 267 267 269 269 268 268 268 267 266 266 266 267 267 267 267 268 267
285 283 279 278 275 274 273 279 274 277 271 271 273 272 269 267 270 274 267 269 269 272 273 273 273 273 271 271 271 271 271 270 268 268 267 266 266 266 265 265 266 265 264 265 266 264 263 263 264 263 264 263 263 263
283 274 269 268 271 266 268 269 275 273 270 270 270 269 270 267 269 266 265 267 269 270 270 271 271 270 269 268 267 267 269 269 267 266 267 266 264 264 264 264 264 264 264 264 263 261 260 259 258 260 259 260 260 260
273 271 269 266 267 267 264 264 266 268 265 267 267 268 265 267 262 261 263 266 267 265 267 268 268 268 265 265 266 266 267 267 265 263 264 265 264 264 264 263 263 262 263 262 260 260 260 259 259 259 259 258 259 258
269 270 270 264 266 269 267 265 265 263 265 264 266 267 262 261 259 260 265 265 266 266 265 265 265 265 265 266 265 265 266 267 266 263 263 264 263 261 261 260 260 261 261 258 260 259 259 259 258 258 259 259 255 256
267 265 272 273 270 268 265 264 266 264 264 265 263 259 258 255 256 265 268 267 266 265 265 264 265 265 265 265 265 264 265 265 264 263 263 263 263 262 261 259 258 260 260 258 258 258 258 257 257 258 257 258 258 256
271 269 264 263 265 266 261 259 259 261 263 268 261 256 253 255 259 264 267 267 266 266 264 263 263 263 262 262 263 263 262 262 261 262 262 261 260 259 258 257 257 257 256 256 258 257 258 258 258 257 257 256 256 256
264 261 266 259 261 262 264 260 261 264 266 260 256 256 259 263 263 263 266 267 266 264 261 260 259 258 258 259 257 257 258 259 259 255 254 255 255 258 257 256 255 255 254 256 257 260 262 260 259 257 255 254 254 254
263 262 262 258 259 260 257 258 256 255 261 260 264 264 262 261 263 265 264 263 262 258 255 254 253 257 256 257 256 257 255 254 256 256 255 255 256 257 255 255 255 255 253 254 254 255 255 254 256 255 253 253 253 253
262 261 262 263 263 260 258 255 252 254 254 255 254 255 256 259 262 263 262 259 256 254 256 255 255 252 255 254 255 254 256 255 250 253 254 254 254 254 255 254 253 252 252 252 252 252 252 253 252 252 252 251 250 250
258 256 260 261 262 261 262 257 253 255 252 255 252 252 253 254 252 257 259 255 255 255 252 252 253 256 253 253 251 251 250 253 254 253 252 254 255 255 255 254 251 251 253 252 251 251 250 251 251 251 251 250 250 249
254 253 255 259 260 260 261 260 259 258 255 254 254 253 250 254 254 257 257 252 256 256 254 253 253 252 251 251 253 253 253 253 250 253 254 255 253 254 254 253 251 251 252 252 251 250 251 251 251 250 250 249 249 249

GFSWCAN_sfc_thetae_042.txt.gz
Theta_e
302 302 299 301 301 301 300 302 301 302 302 302 302 302 303 303 303 300 299 307 302 297 298 299 299 297 297 298 294 299 298 300 299 294 294 294 294 295 294 297 295 293 293 292 295 292 290 302 300 299 306 306 307 307
301 301 301 301 301 301 301 301 301 301 301 301 301 303 303 302 303 301 296 304 306 300 295 302 300 303 301 303 301 302 298 299 300 297 299 299 296 294 297 292 300 293 299 298 298 298 307 304 307 308 310 308 306 307
301 301 301 301 301 301 301 301 301 301 301 302 302 303 303 303 303 301 299 302 301 297 294 294 296 302 305 307 310 298 301 302 303 307 303 303 297 300 294 296 299 299 299 298 298 303 304 306 308 307 307 307 307 308
301 301 301 301 302 302 302 302 301 301 301 302 302 302 303 303 301 301 299 303 301 297 289 292 303 301 306 308 308 308 306 308 309 307 304 300 299 303 300 301 299 302 299 299 301 304 302 305 307 308 306 305 305 307
300 301 301 301 301 302 301 302 301 302 302 302 302 303 302 301 301 301 303 301 301 296 290 292 298 301 303 302 303 308 306 306 304 303 297 297 302 301 301 300 299 301 300 299 300 307 306 308 309 309 306 304 305 305
299 299 300 301 301 301 302 301 301 301 301 301 303 303 301 300 300 296 290 299 304 303 293 287 300 299 302 302 302 304 305 304 304 302 302 304 304 303 297 296 301 304 305 306 304 304 306 304 304 309 306 305 305 304
299 299 299 300 300 300 301 301 301 301 301 301 301 300 300 300 300 294 293 299 302 303 292 287 291 299 302 303 304 304 306 306 304 303 302 303 303 303 299 296 302 306 306 306 303 301 301 300 301 301 303 303 301 303
299 299 299 299 299 299 299 300 300 300 300 301 300 300 300 300 300 298 302 302 305 298 296 288 289 293 302 299 296 306 302 303 302 300 300 301 302 300 296 302 304 305 302 302 302 301 299 300 300 299 299 298 297 296
299 299 299 298 299 299 299 299 299 299 300 300 301 300 299 298 293 295 301 302 304 300 291 289 287 288 300 295 296 295 299 295 301 297 300 301 298 295 298 300 300 300 299 300 297 299 297 297 295 294 294 295 295 292
299 299 299 299 299 299 299 299 300 300 300 300 299 293 288 294 301 302 298 291 294 297 298 290 294 286 294 294 295 291 290 289 289 294 300 295 297 298 296 298 299 299 297 297 294 293 293 291 292 293 293 294 293 292
299 299 299 299 299 299 299 300 300 300 299 298 292 290 300 301 300 297 288 287 289 286 293 293 293 288 296 292 292 296 289 287 287 292 294 292 293 292 294 296 297 297 297 297 298 297 297 296 294 291 291 292 292 290
300 300 299 299 299 299 299 300 300 300 299 298 300 302 301 297 293 286 285 286 286 286 291 290 291 293 295 300 296 293 291 289 286 292 292 288 286 289 291 293 294 296 296 295 296 294 294 293 293 292 290 287 285 284
300 300 300 299 300 300 300 300 300 301 302 303 297 293 291 288 283 283 283 285 285 286 288 288 288 293 296 298 291 289 287 287 288 286 281 281 285 287 287 288 288 289 290 289 289 288 287 287 287 285 283 283 283 283
300 300 300 300 299 299 299 299 299 300 297 289 286 282 284 282 283 283 283 285 287 286 286 288 287 289 288 287 286 287 286 287 284 280 278 281 284 285 286 286 285 283 284 284 283 283 282 281 281 282 283 283 282 281
299 299 300 300 300 299 298 297 297 296 289 284 285 280 281 283 282 283 283 285 286 286 286 287 287 288 285 285 284 285 283 278 279 277 280 281 285 285 284 284 283 282 282 282 282 281 281 281 281 281 282 282 282 281
298 298 299 300 300 299 299 297 295 293 288 282 278 276 278 279 277 278 279 280 283 283 285 286 285 283 280 280 277 275 277 272 274 276 279 283 283 283 283 283 283 283 282 282 282 281 281 280 279 279 280 280 279 279
299 297 299 298 298 297 298 295 292 286 284 280 277 278 277 277 276 277 279 280 283 286 283 282 277 276 282 276 273 275 272 274 276 276 278 281 282 282 283 283 283 283 282 282 281 281 280 281 281 279 277 278 278 278
296 299 299 298 299 297 295 293 286 282 278 278 276 277 277 277 276 277 280 283 285 283 281 277 279 273 272 272 271 274 275 277 278 277 276 278 279 279 280 280 280 281 280 281 281 280 280 279 278 278 278 278 278 277
298 299 298 298 297 294 289 288 287 277 277 278 278 279 278 277 279 280 281 282 282 283 280 277 273 271 271 273 272 274 276 278 276 276 276 276 277 278 278 278 278 277 277 277 277 277 277 277 278 278 278 279 277 278
298 297 295 296 296 290 286 287 289 281 278 279 280 277 277 277 278 279 279 281 279 277 273 271 270 272 272 274 275 274 275 278 278 274 273 274 276 275 275 276 276 276 275 275 274 275 275 275 275 275 276 276 275 275
294 293 292 293 290 289 285 286 285 284 283 282 283 280 278 279 277 275 275 279 275 273 271 273 273 274 275 275 276 276 274 274 273 274 273 271 273 274 274 274 274 274 273 273 272 271 271 271 272 273 273 273 273 273
291 289 289 289 287 286 285 286 286 286 284 283 282 280 277 275 274 274 276 272 270 272 274 273 274 274 273 273 273 274 274 274 273 272 272 272 270 270 270 272 272 270 270 270 269 269 269 268 270 270 270 270 271 270
288 287 285 285 282 283 280 286 282 281 279 280 281 276 275 274 275 277 271 271 271 273 275 274 273 274 273 273 273 272 273 272 271 271 271 270 270 270 269 269 270 269 268 268 269 268 267 266 267 268 268 268 269 268
286 279 277 277 281 276 280 278 281 279 279 278 276 273 273 274 275 272 268 269 271 273 273 273 274 273 273 272 270 270 271 272 271 270 271 271 269 268 269 268 268 268 268 268 268 267 266 266 266 267 266 266 265 265
278 275 279 275 279 276 275 275 275 276 274 275 273 273 272 275 269 268 267 270 271 271 271 272 272 272 270 270 270 270 270 271 270 268 269 270 270 270 268 268 267 266 267 267 266 266 265 265 266 265 265 264 263 263
272 274 275 275 275 276 275 272 272 272 273 272 271 272 273 270 266 265 268 271 271 270 270 271 271 270 270 271 270 269 269 271 270 267 267 268 268 267 266 265 266 265 266 265 265 264 264 264 263 263 263 263 261 262
271 272 275 276 276 275 274 274 275 273 270 270 270 268 269 264 264 267 270 271 270 269 270 270 272 271 269 269 269 269 269 269 268 267 267 267 266 266 265 264 262 263 265 264 264 263 262 262 262 262 262 263 262 261
274 275 269 270 272 273 269 270 269 268 269 271 270 263 263 263 265 269 270 270 269 269 269 269 269 270 269 268 269 268 268 267 266 266 267 266 266 265 264 264 263 262 263 263 263 263 263 263 262 262 261 260 260 261
271 273 273 264 268 268 267 267 268 268 268 270 266 264 263 266 267 269 270 270 270 270 268 266 265 267 266 266 266 266 267 267 264 260 260 262 264 263 264 264 264 263 263 263 262 263 263 263 262 261 260 260 260 261
271 273 270 266 264 265 266 266 266 267 267 268 268 266 265 266 267 270 270 270 269 268 266 266 266 268 266 267 265 264 264 263 263 263 262 262 262 263 263 263 262 262 262 262 261 262 261 261 261 261 260 260 260 258
271 274 270 269 266 267 267 267 268 268 267 266 266 265 264 265 267 267 267 266 265 265 266 265 264 265 265 264 265 264 263 263 260 260 261 262 263 263 263 262 262 262 261 261 260 260 259 260 260 259 259 257 257 257
269 269 269 266 266 267 268 269 269 268 267 267 265 265 264 265 263 265 266 267 266 266 262 264 265 265 263 263 262 262 256 262 262 261 260 262 263 263 263 262 261 261 260 260 260 259 258 258 258 258 258 257 256 256
268 270 270 268 266 266 268 269 267 265 266 266 265 264 265 265 263 265 264 264 267 267 265 265 265 264 262 261 262 262 260 262 258 258 258 258 257 259 260 262 261 260 259 259 259 258 257 257 257 257 257 256 255 255

GFSWCAN_sfc_thetae_045.txt.gz
Theta_e
301 302 302 301 302 302 301 301 302 302 302 302 302 302 302 302 303 301 299 308 303 297 298 300 301 297 298 299 295 297 298 299 300 294 294 293 293 294 293 293 295 294 293 294 296 293 290 305 304 299 306 311 310 310
302 302 302 301 302 301 301 301 302 303 302 301 302 302 302 302 303 303 298 306 309 300 295 303 305 306 304 302 300 301 300 300 301 297 298 297 297 301 295 290 298 293 299 297 298 299 308 307 308 310 311 310 312 311
302 302 301 301 301 301 301 301 301 301 301 301 301 302 302 303 302 303 302 305 303 297 297 299 298 304 306 306 310 297 303 304 303 306 301 300 296 302 294 295 295 300 304 300 301 305 306 308 308 310 312 312 313 313
301 302 302 301 301 301 301 301 301 301 301 301 302 302 302 303 302 303 302 304 302 297 291 295 304 301 306 304 305 309 307 308 309 306 303 301 298 301 300 300 299 302 303 301 301 304 306 308 309 311 312 312 311 311
301 301 301 301 301 301 301 301 301 301 301 302 302 303 303 302 303 303 303 305 305 297 292 294 300 302 306 304 302 306 308 306 304 303 303 298 301 301 303 303 300 303 302 301 299 305 307 308 311 312 312 311 310 309
301 301 301 301 301 301 301 301 301 301 302 302 302 302 302 302 301 299 291 301 305 303 297 290 301 299 303 302 301 303 306 305 305 301 303 302 303 301 298 296 301 302 306 307 304 309 309 310 310 310 311 312 311 310
300 301 301 301 301 301 301 301 301 302 302 301 301 301 301 301 301 296 294 300 303 304 296 291 292 300 302 301 302 303 306 304 304 301 301 302 302 303 302 297 301 302 302 303 307 308 304 306 305 307 309 311 308 310
299 300 300 301 301 301 300 301 301 301 300 300 300 301 301 300 300 299 304 302 304 298 298 289 290 295 303 298 296 305 302 304 303 300 302 301 303 303 296 300 302 304 305 307 307 308 307 305 304 304 305 305 304 305
298 299 299 299 300 300 300 300 300 300 300 300 300 300 299 298 295 297 301 301 305 299 291 291 288 287 295 296 300 300 300 294 303 299 299 301 299 294 299 300 302 304 303 303 302 302 303 301 302 300 300 301 301 301
298 298 299 298 299 299 299 299 299 300 299 300 300 295 290 297 301 301 297 293 296 298 298 291 295 288 290 292 290 292 297 292 289 293 302 297 297 299 297 300 302 302 302 302 299 299 300 299 299 298 299 300 300 297
299 299 299 299 299 299 299 300 300 299 299 300 294 293 299 300 297 295 288 286 287 288 293 293 294 290 298 289 289 296 290 291 287 293 297 294 292 286 289 294 298 300 300 301 301 301 301 301 300 298 297 297 297 296
300 299 299 299 299 300 299 299 299 301 300 298 300 302 302 297 294 288 286 287 287 288 293 293 293 295 294 295 292 294 288 290 287 293 293 282 282 285 286 288 290 292 296 296 298 297 298 297 297 295 293 289 287 285
299 300 300 300 300 300 300 300 300 300 303 305 299 294 294 290 284 282 282 286 285 287 289 292 289 293 294 294 292 291 288 287 287 284 280 282 284 285 285 286 286 286 286 287 287 287 287 286 286 285 283 284 283 282
300 299 299 299 298 298 298 298 298 300 301 291 288 283 285 283 283 282 282 284 286 285 286 290 287 288 290 290 285 286 285 289 284 281 278 282 283 284 285 284 283 282 282 282 282 282 282 282 282 283 283 283 283 282
299 299 299 298 298 298 297 297 298 298 292 284 285 278 280 282 282 283 284 285 286 286 286 287 287 288 285 285 285 288 284 279 278 277 279 281 284 284 284 283 283 282 282 282 282 282 282 282 281 281 282 282 281 280
299 299 299 299 299 299 298 298 297 296 289 282 278 277 278 280 279 280 281 281 285 283 286 287 285 283 281 282 278 277 277 274 276 278 279 282 283 283 283 283 283 283 283 282 282 282 281 280 280 280 281 281 281 281
300 298 298 298 297 297 297 295 291 284 283 280 278 278 277 278 276 278 280 281 286 286 283 283 278 277 282 276 273 274 272 275 277 278 280 280 279 280 281 282 282 282 282 282 281 281 281 281 281 280 278 279 279 279
298 299 298 298 300 298 294 292 286 282 277 278 277 277 278 278 277 279 281 282 285 283 281 278 281 274 273 272 272 276 277 277 278 277 277 279 279 278 279 279 279 279 279 279 279 280 281 280 279 279 279 279 279 279
300 300 297 298 298 295 289 287 286 278 278 280 279 280 280 279 280 282 283 284 283 284 282 278 274 272 272 275 276 277 279 279 276 277 277 277 278 278 278 278 277 277 277 277 277 277 277 277 278 279 279 279 277 278
296 296 296 296 298 292 286 286 289 283 279 280 282 280 279 279 281 282 282 283 281 279 274 272 271 273 274 275 277 277 279 281 279 275 275 276 277 277 277 277 277 278 277 276 276 276 276 276 276 276 276 276 275 274
294 293 294 297 294 291 288 287 286 286 285 283 284 283 281 282 279 278 278 279 276 274 272 274 274 275 277 277 278 277 276 277 276 276 275 274 276 276 276 276 276 275 274 274 273 272 272 272 273 274 274 274 273 274
292 290 293 292 289 288 287 289 287 288 285 284 283 283 280 278 277 277 278 274 273 273 275 275 275 275 274 274 276 277 276 276 276 275 275 275 273 273 273 274 274 272 272 272 272 271 271 270 272 272 272 273 273 271
291 292 290 289 286 286 282 290 283 284 280 281 283 278 277 277 277 280 274 273 273 277 276 276 276 276 275 275 275 275 276 276 275 274 274 274 274 274 273 273 273 272 271 271 272 271 270 269 270 270 271 271 271 271
289 284 282 282 284 279 285 281 284 282 282 280 277 274 275 277 279 275 270 272 274 276 275 276 277 275 275 274 273 274 275 275 274 274 275 274 272 271 272 271 271 271 272 272 271 270 270 270 269 270 269 268 267 268
281 277 281 278 283 281 278 278 279 279 276 278 275 275 275 279 273 272 270 271 273 273 274 275 276 275 274 274 273 272 274 274 273 271 273 274 274 274 272 271 269 269 270 270 268 269 268 268 267 267 267 266 264 265
274 276 277 278 279 279 279 276 276 276 277 274 274 276 278 275 270 269 271 273 273 273 273 274 274 274 273 274 272 271 272 274 273 270 270 270 270 270 269 268 268 267 269 268 267 267 266 266 266 265 265 266 264 264
275 275 277 280 280 280 278 279 279 277 274 273 275 273 273 268 267 269 272 274 272 273 274 275 275 273 272 272 271 272 272 271 270 269 270 269 269 269 268 266 264 265 268 267 267 266 265 265 265 264 264 265 265 264
277 277 272 275 275 278 273 274 273 272 273 274 275 268 267 268 268 272 272 273 274 273 273 273 273 273 273 272 272 272 271 270 269 270 270 270 269 268 267 267 265 264 266 265 265 266 266 265 265 264 264 263 263 264
275 277 274 268 272 271 270 271 271 271 271 274 271 268 267 269 272 271 272 273 274 273 271 270 270 271 270 270 270 270 270 270 267 263 262 266 267 266 267 267 267 266 266 266 265 264 264 264 264 263 263 263 264 264
274 279 272 269 268 268 269 271 269 270 272 272 271 269 268 269 270 274 273 273 272 271 271 271 271 272 270 270 268 267 267 267 266 266 265 265 265 266 266 266 265 265 265 265 264 265 263 264 264 264 263 263 263 261
279 277 273 271 268 270 271 272 272 272 272 271 272 270 268 268 270 271 271 271 271 270 270 269 269 270 269 268 269 267 266 266 263 264 264 266 266 266 266 265 265 265 265 264 263 263 262 262 263 263 262 261 260 260
275 274 271 268 268 271 273 274 273 272 272 271 269 270 269 269 267 269 270 271 270 270 266 269 269 268 268 267 266 265 262 266 266 265 261 265 266 265 265 265 265 264 264 262 263 263 262 261 261 261 261 261 260 259
275 274 273 272 270 270 272 273 271 270 271 270 269 269 269 270 266 269 269 271 271 271 269 270 269 268 266 265 265 266 264 266 261 260 260 260 260 261 262 264 264 263 262 262 262 262 261 261 260 260 260 259 259 258

GFSWCAN_sfc_thetae_048.txt.gz
Theta_e
301 301 301 302 302 302 302 302 302 302 302 302 302 302 302 303 303 301 297 303 300 296 298 300 299 296 297 297 292 297 297 299 294 292 293 291 291 293 291 294 293 291 290 290 293 290 288 306 303 297 303 309 311 310
301 302 302 302 302 301 302 301 302 302 302 302 302 302 302 302 303 302 294 303 305 299 297 303 303 305 303 302 299 299 298 298 299 295 296 297 296 296 293 287 298 291 294 293 296 296 306 307 305 308 311 312 312 311
302 303 302 302 301 301 301 301 302 302 302 302 302 302 302 303 303 302 299 302 301 296 297 298 297 305 308 308 310 300 301 303 302 304 300 300 294 298 294 294 295 298 303 297 296 300 304 307 308 310 310 310 312 313
302 302 302 301 301 301 301 301 301 302 302 302 302 302 302 303 302 303 299 302 301 299 291 292 302 302 307 307 306 308 306 306 307 306 300 299 295 301 296 298 296 298 300 299 299 302 303 304 305 308 311 312 312 311
301 301 301 301 301 301 301 301 301 301 301 302 302 302 303 303 303 303 303 303 307 298 290 293 300 303 305 305 303 305 305 303 303 298 298 296 299 300 302 301 298 301 299 297 298 304 304 306 308 311 309 308 310 311
301 301 301 301 301 301 301 301 301 301 301 302 302 302 302 302 303 299 290 300 305 303 295 288 299 300 303 303 301 300 302 303 303 299 299 302 304 301 298 295 300 302 304 304 303 309 308 310 308 310 309 309 311 312
301 301 301 301 301 301 301 301 301 301 301 302 302 302 302 302 301 297 295 300 304 305 295 290 291 298 301 302 301 300 303 300 301 300 298 300 301 301 297 292 298 301 302 302 303 305 303 305 306 307 307 308 309 311
300 301 301 301 301 301 301 301 301 301 301 301 301 301 302 302 302 299 302 302 304 298 296 289 290 294 301 296 295 302 299 301 301 299 301 300 301 301 293 298 301 302 303 304 304 306 307 307 306 305 305 305 306 306
300 300 300 300 300 300 300 300 300 301 301 301 301 301 300 299 295 297 301 302 308 299 290 290 287 286 295 297 298 299 301 292 301 297 297 300 297 291 290 293 298 301 301 301 303 303 303 303 303 303 301 301 300 301
299 299 299 299 299 299 299 300 300 300 300 301 300 295 289 297 301 302 299 294 294 296 296 291 294 289 293 289 292 292 296 291 289 295 300 294 292 288 287 289 292 293 298 301 298 298 299 299 301 301 300 300 301 300
299 299 299 299 299 299 299 299 300 300 301 299 295 291 298 301 299 295 288 288 289 286 292 293 294 290 294 287 286 293 291 288 288 293 292 292 285 283 286 287 290 291 294 296 298 299 299 299 299 299 297 294 292 289
300 300 300 300 299 299 299 300 300 300 299 298 298 300 298 292 290 287 285 286 285 286 294 292 293 294 292 294 286 289 287 287 285 295 288 279 281 285 285 285 285 286 288 288 289 289 289 289 289 287 285 284 284 283
300 300 300 300 299 300 300 300 300 300 303 303 298 293 292 289 284 283 280 283 285 284 286 292 289 292 292 291 285 286 284 284 287 283 279 279 282 284 284 283 282 283 283 283 283 283 283 283 283 282 281 281 281 280
299 299 299 299 298 298 299 299 299 301 301 292 288 282 284 281 281 280 280 283 285 285 284 286 288 286 285 285 285 285 285 285 282 278 275 279 282 283 283 283 282 281 282 281 281 281 280 280 280 280 281 280 279 279
299 299 299 298 298 298 298 298 298 297 290 283 283 277 278 281 282 282 284 285 285 286 285 287 286 288 285 285 284 286 283 276 276 273 276 280 282 282 282 282 282 281 280 280 280 280 280 280 279 279 280 279 279 278
299 299 298 299 299 298 297 297 296 295 288 281 278 277 279 280 278 280 281 282 286 284 286 287 285 283 280 281 278 276 276 272 274 277 278 280 280 280 281 281 281 281 281 280 280 280 279 278 278 278 278 278 278 278
299 298 298 297 297 296 297 294 290 283 281 280 277 279 279 279 278 280 281 281 285 284 283 283 278 277 282 276 273 275 272 274 276 277 278 278 277 278 279 278 279 279 280 280 280 280 279 279 279 278 276 278 278 278
298 298 298 299 299 298 293 291 285 282 276 278 277 278 280 280 279 281 282 283 285 283 282 277 279 273 271 271 271 275 275 276 276 275 276 278 278 277 278 277 278 278 277 277 277 278 278 278 278 278 279 279 278 278
299 298 297 298 298 295 288 287 287 277 278 280 280 280 280 280 280 282 283 283 282 282 281 277 272 271 271 274 275 277 277 276 275 275 276 277 278 278 278 277 276 276 276 277 276 275 275 276 276 276 277 276 274 276
296 296 296 296 298 292 286 285 290 283 279 280 282 279 279 278 280 279 278 280 280 277 273 271 271 273 273 275 277 278 279 279 277 275 275 276 277 276 276 276 276 276 275 274 274 275 274 274 275 274 274 274 273 272
294 295 296 297 294 292 289 288 285 285 284 282 284 282 280 281 277 276 277 278 276 274 272 274 273 275 277 278 278 278 277 278 277 276 274 274 276 275 275 275 275 274 273 272 271 270 271 272 272 274 273 272 271 272
292 293 295 295 290 289 288 291 287 288 285 284 283 283 280 278 277 277 278 274 272 274 275 275 275 275 275 275 276 277 277 277 277 276 276 275 273 274 273 274 273 272 272 272 271 270 270 269 272 272 271 272 272 270
291 293 292 291 286 286 282 290 284 285 281 281 282 278 278 277 278 280 273 273 274 277 277 276 276 276 275 275 276 276 277 276 275 274 275 274 274 274 273 273 273 272 271 271 271 271 270 269 269 270 270 270 270 270
291 286 283 283 284 280 286 282 284 282 282 279 277 274 275 277 280 275 270 272 274 277 277 278 277 275 275 274 273 274 275 276 275 275 276 274 272 271 271 270 270 271 271 271 270 270 269 269 268 269 268 266 266 267
281 278 282 279 285 281 279 279 279 279 277 278 275 275 276 279 274 272 270 272 274 275 276 277 276 275 273 273 273 273 275 274 272 270 272 274 274 273 271 269 268 268 270 269 268 268 267 268 267 267 266 265 264 264
274 277 278 279 280 280 279 277 277 277 277 275 275 277 279 276 272 269 271 273 273 273 274 276 275 273 272 273 271 271 272 275 273 269 269 270 270 270 269 268 267 266 268 268 267 266 266 266 265 265 265 265 262 263
275 275 278 283 282 281 279 280 280 277 275 274 275 275 275 269 268 269 273 274 272 274 275 276 275 274 272 271 272 272 271 271 270 269 270 269 269 269 267 265 263 264 267 266 266 266 265 265 265 264 264 264 264 263
277 278 274 276 275 279 275 275 274 273 273 275 276 270 269 269 268 272 272 274 274 274 274 274 274 273 272 272 273 272 272 271 270 271 270 269 269 268 268 267 266 266 266 266 265 265 265 264 264 264 263 263 263 264
276 277 274 269 272 271 271 272 271 271 272 275 272 269 267 271 273 272 273 274 275 274 272 271 271 272 271 271 270 270 270 269 268 265 265 266 267 266 267 267 267 266 266 266 266 266 264 264 264 263 263 263 264 265
275 279 272 270 268 267 269 272 270 273 273 272 271 269 269 270 273 275 274 274 273 272 272 272 272 272 271 271 268 267 268 267 266 266 265 264 264 266 266 266 265 266 266 265 265 265 266 264 265 265 264 264 263 262
279 277 273 271 268 270 271 273 274 274 274 273 273 269 267 268 270 273 272 273 272 272 271 270 270 271 270 269 269 268 266 266 264 264 264 266 266 266 266 265 266 265 265 265 264 264 263 262 262 263 263 262 261 261
277 274 271 268 268 272 274 275 274 273 273 271 269 270 270 270 268 269 272 272 271 271 266 271 270 268 268 268 267 265 263 266 266 265 265 264 266 265 265 265 265 265 264 263 263 263 263 262 261 261 261 261 261 260
276 275 274 272 271 272 273 274 273 271 272 270 269 271 270 270 267 269 271 272 272 272 270 271 270 268 267 267 267 266 263 265 262 262 262 261 259 260 261 264 264 263 262 262 262 262 262 262 261 261 260 259 259 260

GFSWCAN_sfc_thetae_051.txt.gz
Theta_e
301 301 301 301 301 302 302 302 302 303 302 303 302 302 302 302 303 300 296 298 293 287 294 297 299 294 294 294 288 291 291 292 290 285 284 283 281 289 288 290 287 288 286 283 287 284 282 300 301 294 297 302 303 303
300 301 302 302 302 302 302 302 302 302 302 302 302 302 302 302 302 302 295 298 299 291 295 302 302 302 300 301 296 295 291 292 292 287 288 288 283 287 287 281 294 288 292 288 290 288 299 300 302 305 305 305 305 304
301 302 302 302 302 301 301 301 302 302 301 302 302 302 302 302 302 302 297 298 296 290 293 297 297 303 306 304 306 294 294 296 296 297 292 292 285 289 284 286 290 293 297 291 293 296 297 299 303 305 307 304 306 306
301 302 302 302 301 301 301 301 301 301 301 302 302 302 302 302 302 302 297 299 297 294 287 291 302 300 305 304 303 304 302 302 300 298 293 291 287 296 286 291 289 292 296 295 294 297 299 301 302 305 307 307 306 307
302 301 301 301 301 301 301 301 301 302 302 302 302 302 302 303 302 301 300 300 302 295 287 289 297 300 303 303 301 302 301 298 296 292 288 287 293 293 292 292 288 295 293 291 288 300 299 300 304 307 305 305 306 306
301 301 301 301 301 301 301 301 301 301 302 302 302 302 302 302 302 299 292 298 300 302 293 284 296 297 301 302 299 298 298 297 297 294 293 295 299 296 287 284 295 297 298 299 297 300 303 304 306 308 305 306 306 305
301 301 301 301 301 301 301 301 301 301 301 301 302 302 302 302 300 294 291 298 302 303 293 285 287 296 300 299 296 295 297 296 295 293 293 295 296 297 283 282 295 298 299 300 302 302 298 300 299 302 302 303 304 305
301 301 301 300 300 301 301 301 301 301 302 302 302 301 302 303 302 297 301 302 302 296 293 283 282 287 297 289 288 296 292 294 293 292 294 290 293 291 286 289 291 293 297 299 299 300 300 301 301 299 300 300 299 299
300 300 300 300 300 300 300 301 301 301 301 302 302 301 300 298 293 295 302 302 303 296 286 283 280 279 292 289 291 291 294 286 293 285 289 292 285 283 284 285 288 290 291 294 297 298 298 298 299 298 297 297 296 294
299 299 300 299 300 300 300 300 301 301 301 301 299 292 287 294 301 301 297 293 293 292 292 283 288 284 290 287 288 289 287 282 281 285 295 286 282 285 285 286 287 288 291 293 291 289 291 291 295 290 290 290 287 285
300 299 299 299 300 300 300 300 301 301 301 298 292 290 296 301 296 291 284 283 285 282 287 287 285 284 290 285 285 287 285 285 284 285 286 284 277 281 284 284 285 286 288 289 290 289 289 289 288 286 284 284 282 281
300 300 300 300 300 300 300 300 300 299 297 296 296 299 296 291 289 283 281 284 283 283 287 282 284 288 289 289 283 286 285 285 282 288 283 275 279 282 282 282 282 284 285 285 285 284 284 284 283 282 280 279 279 278
300 299 299 299 299 300 300 300 299 300 301 299 296 287 289 285 281 278 278 281 282 283 284 286 286 283 288 288 283 285 283 283 286 280 274 275 279 281 281 281 281 282 282 281 281 281 280 280 280 280 278 278 278 277
299 299 298 298 298 298 299 299 299 298 295 287 284 276 279 276 277 277 277 279 282 284 283 284 285 285 285 282 284 283 283 283 277 273 270 276 278 279 281 281 280 279 279 279 279 279 278 277 277 277 277 277 277 276
299 299 299 298 298 298 298 298 297 291 285 278 278 273 273 279 279 280 281 282 284 284 283 284 285 286 283 282 282 283 278 272 272 270 273 276 278 279 279 279 279 278 278 277 278 277 277 277 277 277 278 278 278 277
299 299 296 296 297 298 298 296 292 290 284 277 275 271 274 272 270 274 278 279 283 282 284 285 284 280 277 277 274 272 271 268 270 273 275 277 276 276 276 278 279 279 278 278 277 277 277 276 276 276 277 277 277 276
299 295 297 298 298 296 296 291 285 281 279 277 273 277 273 272 274 278 279 278 284 283 280 280 273 272 278 270 268 271 267 270 273 274 275 275 275 276 276 276 276 276 276 277 278 278 278 278 278 276 275 276 276 276
294 296 298 299 300 296 290 288 282 280 275 276 273 276 277 275 275 278 279 280 282 281 280 275 277 271 269 268 268 271 272 273 274 275 275 275 275 275 275 275 276 276 275 275 275 274 275 275 275 274 275 277 276 275
295 295 297 297 297 291 284 285 285 276 277 278 278 278 278 277 277 278 279 280 280 280 279 275 270 269 269 273 272 273 273 273 272 273 274 275 276 276 275 275 274 273 273 274 274 273 273 273 272 273 273 273 272 273
297 296 296 296 297 289 284 283 288 280 277 278 278 276 275 275 277 276 276 278 277 275 272 270 269 271 272 273 276 276 276 277 275 272 272 273 274 274 273 273 272 272 271 271 271 272 271 271 272 270 269 270 269 268
295 295 295 295 292 290 286 284 283 283 282 280 281 279 276 276 273 272 273 276 272 271 270 272 272 273 275 276 276 275 274 275 274 273 272 271 273 273 272 272 272 271 269 268 267 266 267 268 268 270 268 264 265 268
291 294 289 292 285 286 283 285 283 284 281 280 278 279 273 269 269 271 274 270 270 271 272 272 273 274 274 274 275 276 276 275 275 273 273 272 270 270 270 270 269 267 267 267 265 263 264 266 267 266 265 266 265 264
292 291 286 285 280 279 277 285 278 282 274 276 277 274 273 271 274 276 268 272 272 275 275 274 275 276 274 275 275 275 276 274 272 271 270 269 269 267 267 267 267 264 265 266 267 266 263 265 263 261 260 262 260 261
290 283 279 278 279 273 278 275 280 279 276 274 272 269 270 271 274 268 267 270 272 276 275 275 274 272 272 271 270 272 273 272 270 270 270 269 266 266 266 266 265 266 267 268 265 262 262 257 260 260 255 254 254 253
275 274 276 273 279 273 271 271 272 273 269 271 268 269 270 274 267 267 267 270 271 271 272 274 273 271 268 266 268 270 271 270 267 266 266 269 269 268 266 265 264 265 265 260 260 255 255 254 255 255 255 251 255 253
269 273 274 275 274 272 273 268 268 268 268 267 270 274 272 266 262 264 269 269 267 268 271 270 267 268 268 269 267 266 268 271 268 264 266 266 265 260 259 261 259 259 262 258 255 258 255 255 253 254 253 258 254 252
268 272 277 280 278 277 273 274 274 269 267 270 270 268 264 259 260 267 271 269 267 270 272 272 271 269 268 268 268 267 267 267 265 266 266 266 266 264 260 255 254 258 261 257 255 254 255 255 254 255 253 251 252 252
275 275 269 271 269 273 267 267 266 266 265 270 269 260 259 260 262 269 268 269 269 270 270 269 270 269 269 269 269 268 266 264 262 265 265 264 262 260 261 260 260 264 260 257 254 253 253 252 252 252 251 251 253 253
271 272 270 265 266 267 267 266 265 267 270 270 262 261 262 269 267 267 268 268 270 269 264 262 262 262 263 264 263 262 261 260 257 255 254 257 258 257 257 257 256 256 255 256 262 260 257 255 254 254 253 252 252 256
271 273 267 264 263 263 267 268 269 266 267 265 267 268 267 267 269 269 270 272 270 267 265 264 267 266 265 264 257 256 256 254 254 255 255 255 256 255 257 254 254 255 254 255 255 255 261 254 255 256 256 255 254 250
275 271 267 266 264 265 264 267 270 270 269 267 264 263 261 262 264 268 266 263 262 262 261 260 261 261 261 258 258 258 255 255 253 254 254 254 255 259 256 253 256 254 254 254 252 252 252 251 251 251 251 252 252 253
272 267 264 262 265 268 270 271 267 265 265 261 260 261 263 263 260 262 264 266 266 263 262 265 263 259 256 256 254 253 256 256 257 254 253 253 254 251 252 253 254 258 255 252 252 252 252 253 252 251 251 251 250 249
270 269 267 265 264 265 268 268 266 266 265 262 260 262 262 262 259 261 263 264 268 266 265 263 259 257 256 258 257 254 257 253 254 260 257 256 254 254 250 251 251 250 250 250 250 251 253 254 253 253 253 251 250 250

GFSWCAN_sfc_thetae_054.txt.gz
Theta_e
301 301 300 301 301 301 301 302 302 301 302 302 302 302 302 302 303 299 297 300 293 286 289 294 297 291 291 290 285 288 288 288 286 282 281 280 277 285 284 288 285 285 286 285 286 284 281 299 300 292 296 299 300 303
300 301 301 301 301 302 302 302 302 302 302 302 302 302 302 302 302 302 294 299 300 293 290 296 298 302 298 297 293 291 289 290 291 285 284 283 280 279 283 280 291 285 289 287 289 288 297 300 300 303 303 301 301 302
301 301 301 302 301 301 302 302 301 301 301 302 302 302 302 302 302 301 295 296 296 290 290 291 291 301 306 303 302 292 293 296 293 293 289 288 283 284 279 281 287 291 295 290 291 295 298 300 302 305 303 303 304 305
302 302 301 301 301 301 301 301 301 301 301 302 302 302 302 302 303 301 296 298 295 291 285 289 298 295 305 303 303 301 299 302 300 296 289 284 283 292 282 288 285 291 296 294 292 295 298 299 300 301 302 305 305 306
301 301 301 301 301 301 301 301 301 301 301 302 302 302 303 303 302 300 299 299 298 292 285 288 297 300 302 300 300 300 300 298 296 291 287 284 289 289 288 291 289 295 293 291 288 297 297 297 300 302 302 303 304 305
301 300 300 301 301 301 301 301 301 301 301 302 302 303 303 302 302 297 291 298 299 299 293 285 295 297 299 299 297 296 298 297 297 293 290 292 296 294 286 285 292 293 295 298 294 298 299 302 303 304 304 303 303 303
301 301 301 301 301 301 301 301 301 301 301 302 302 302 302 301 299 292 290 295 301 299 290 286 286 296 300 297 294 294 296 295 295 292 290 292 293 295 286 285 289 291 292 296 297 299 297 298 296 299 300 301 301 301
300 300 301 300 300 301 300 301 301 301 301 302 302 302 301 301 300 295 299 301 300 293 294 283 285 287 295 290 289 296 292 292 293 291 289 289 293 292 285 284 287 289 291 293 294 295 296 297 298 297 298 298 293 289
300 300 300 300 300 301 300 301 301 301 301 301 301 301 300 296 293 296 300 300 299 296 285 282 281 283 290 288 288 290 291 284 290 285 284 289 284 278 281 283 285 285 287 289 293 291 292 292 290 290 290 289 286 283
299 300 299 300 300 300 300 301 301 301 300 300 298 292 285 295 302 301 297 292 291 290 289 281 285 285 289 283 287 286 283 280 284 285 289 281 278 283 282 284 283 285 287 289 288 287 288 288 287 285 284 283 282 281
300 300 300 300 300 300 300 300 300 301 301 295 291 289 296 300 295 290 284 283 284 282 284 283 282 283 288 281 282 287 285 285 282 284 282 278 274 279 282 281 283 284 286 286 287 286 286 285 284 282 281 280 279 279
300 300 300 299 299 299 299 300 300 297 294 295 295 297 292 291 286 280 280 281 280 283 286 280 283 286 286 288 282 286 285 284 281 286 278 270 276 279 280 280 281 282 282 281 282 281 281 281 280 279 278 278 277 277
299 299 299 299 299 299 299 299 300 300 299 298 292 287 286 281 274 273 275 277 279 282 283 285 286 287 286 286 283 284 283 282 285 275 270 273 277 279 279 279 279 280 280 279 278 278 278 278 278 278 276 276 276 276
299 299 298 298 298 297 297 297 298 295 291 282 279 271 272 271 274 273 272 272 278 282 282 283 285 285 285 279 284 281 279 279 272 265 268 274 276 278 278 279 278 276 277 277 277 277 276 276 276 276 276 277 276 274
297 297 298 297 298 298 296 296 294 289 283 277 277 269 270 275 273 275 278 275 280 283 282 284 284 285 281 279 277 278 272 268 269 267 270 274 275 277 276 277 277 276 276 276 276 276 275 276 275 275 276 276 276 276
299 297 295 298 296 297 295 292 288 287 281 275 274 269 272 270 271 273 277 276 281 281 283 284 282 278 275 274 271 268 269 266 268 271 274 275 274 275 275 276 277 277 277 276 276 276 276 275 275 274 275 275 275 275
297 293 298 299 297 295 295 287 283 279 276 273 270 271 269 268 269 273 275 276 282 281 276 277 270 272 276 271 268 270 267 270 271 272 274 274 274 274 275 275 275 275 274 274 274 275 275 276 276 275 273 274 274 274
293 295 298 298 298 293 288 285 280 278 273 274 270 273 272 270 270 271 277 278 280 280 278 273 276 270 269 268 267 269 271 272 274 273 273 273 273 272 273 272 273 274 273 273 273 273 272 273 272 272 274 274 273 273
295 295 297 298 295 287 282 282 282 275 275 275 275 275 275 274 276 276 278 279 278 279 277 274 269 267 268 271 270 271 272 272 271 271 272 273 274 273 273 272 272 271 271 272 272 271 270 271 270 271 271 271 270 270
297 296 296 296 295 285 281 281 286 279 276 276 276 273 273 273 275 275 275 276 276 274 271 269 268 270 270 273 274 274 274 274 272 270 270 271 273 272 271 271 270 270 270 269 269 269 269 268 268 267 267 267 266 266
293 292 294 293 290 287 284 283 281 280 279 278 278 276 274 275 272 271 272 275 271 270 269 271 271 273 274 275 275 275 274 274 272 272 270 269 271 271 270 270 269 268 267 266 265 265 266 265 267 266 263 261 262 264
289 293 285 287 284 284 282 284 282 282 280 279 278 278 273 269 268 270 273 269 269 269 271 271 273 273 273 273 273 274 274 273 272 271 270 270 267 267 266 266 266 265 264 262 262 258 259 263 263 263 261 257 261 260
290 288 283 282 278 277 276 282 277 281 272 273 274 271 268 264 269 274 266 271 271 274 274 273 273 275 273 274 273 273 274 272 269 268 266 266 265 262 264 265 264 261 263 264 264 262 260 260 258 256 257 257 256 256
287 280 278 273 275 271 273 273 278 276 273 271 270 266 269 265 271 266 266 270 272 273 273 272 272 270 270 270 269 270 270 269 267 266 265 265 264 263 264 263 264 265 263 264 261 258 258 253 256 255 253 253 251 250
274 272 273 269 273 270 267 267 268 270 266 267 266 266 267 270 263 261 263 268 269 269 267 269 269 268 265 264 265 266 268 268 265 264 265 266 264 264 263 263 262 263 263 258 254 251 250 251 250 251 251 250 252 249
268 271 271 270 269 270 269 265 265 265 265 267 267 271 266 261 258 261 266 263 265 263 264 259 265 265 266 267 264 264 266 268 266 263 264 265 263 258 256 255 255 257 258 253 254 253 253 251 250 252 252 252 251 249
267 271 276 277 274 273 268 268 270 266 264 263 265 262 259 254 255 264 268 267 266 264 267 266 267 266 265 265 266 266 265 265 264 264 264 264 263 261 257 252 253 258 255 252 251 251 250 250 251 249 248 247 247 248
272 269 263 264 266 268 262 261 260 260 261 269 264 256 255 255 260 265 264 265 265 268 268 267 267 267 266 266 263 262 262 260 262 263 263 262 259 256 255 255 255 261 256 253 250 248 249 248 249 248 247 248 249 251
265 265 267 261 262 263 264 261 262 266 268 264 256 256 261 266 261 265 266 266 265 266 263 263 259 259 259 260 258 256 254 260 258 254 253 252 253 257 253 251 252 251 250 253 259 257 257 253 250 251 253 253 252 253
266 266 263 260 259 261 264 263 259 259 264 262 266 267 266 266 269 266 267 268 261 258 256 257 256 258 255 254 251 254 251 247 249 253 251 251 253 255 251 250 250 250 248 250 250 251 257 251 252 250 249 251 251 250
270 264 264 263 262 263 261 263 265 264 259 257 255 257 258 261 263 266 264 261 258 258 260 258 259 253 257 254 251 249 251 251 248 249 251 251 253 251 249 248 248 250 252 250 247 247 248 249 250 248 247 247 247 247
264 260 261 262 263 266 264 261 257 256 254 255 254 251 255 255 255 257 263 259 261 259 256 255 255 254 250 249 248 248 253 251 250 249 250 248 247 246 246 248 248 248 247 247 246 246 246 248 249 250 250 250 250 248
266 266 261 262 261 260 261 262 259 260 257 254 258 258 257 256 255 259 262 259 258 259 256 253 251 250 252 252 252 250 252 250 250 257 254 253 251 252 246 245 245 245 246 246 245 245 247 248 246 246 245 245 245 245

GFSWCAN_sfc_thetae_057.txt.gz
Theta_e
301 301 300 300 300 301 301 301 301 301 301 301 301 302 302 302 302 300 296 302 296 289 291 294 295 290 290 289 283 287 287 287 284 280 279 280 276 282 283 286 284 283 283 284 285 283 280 297 296 292 296 298 300 301
300 300 300 301 301 301 301 302 302 301 302 302 301 301 302 302 302 301 293 299 301 293 292 296 297 297 297 295 291 289 288 289 288 283 281 281 277 276 282 278 288 282 285 283 286 286 296 297 298 300 302 301 301 301
300 301 301 302 302 302 302 302 302 302 302 302 302 302 302 302 302 300 294 297 296 290 291 291 290 296 302 301 299 289 291 294 291 291 286 285 281 281 276 280 284 287 291 287 288 291 294 296 298 300 301 303 304 305
301 301 301 301 301 301 301 301 301 302 302 302 302 302 302 303 302 301 294 297 295 292 283 286 297 294 300 301 302 299 297 300 297 294 288 284 280 289 280 286 283 287 291 289 289 292 295 297 299 300 302 304 304 306
301 301 300 301 301 301 301 301 301 301 301 302 302 302 302 303 302 299 297 297 298 291 284 284 295 297 299 299 300 301 300 297 293 289 287 286 287 287 286 287 284 292 290 288 284 294 294 297 300 300 299 299 303 302
301 300 301 301 301 301 301 301 301 301 301 301 302 302 303 302 302 296 290 297 299 297 291 283 292 295 299 299 299 299 299 297 294 292 288 292 294 292 283 281 289 291 292 293 292 294 295 299 299 298 299 300 300 297
300 301 300 300 301 301 301 301 301 301 301 302 302 302 302 302 297 291 289 294 299 295 287 285 287 295 298 297 296 295 297 295 292 290 288 289 292 295 285 280 286 289 289 291 294 293 296 296 293 294 296 295 293 290
300 301 301 300 301 300 301 301 301 301 302 302 302 302 300 299 300 294 297 300 298 291 291 284 285 289 298 290 290 292 289 291 291 289 288 288 292 292 283 282 285 286 288 292 290 293 292 293 291 289 290 288 285 283
300 300 300 300 300 300 300 301 301 301 301 302 301 301 299 296 292 295 301 299 297 294 285 284 280 283 292 287 289 288 289 282 289 284 286 289 283 278 279 281 282 283 284 285 288 291 291 289 287 285 284 283 281 279
300 299 299 300 299 299 300 300 300 300 300 300 298 292 286 293 301 300 294 289 287 290 291 284 283 285 289 285 285 285 286 284 284 286 289 278 277 280 280 281 281 283 286 286 286 287 286 286 285 282 281 281 280 279
300 299 299 299 299 299 300 300 300 301 301 295 288 288 297 301 294 289 284 284 284 281 284 282 282 285 288 282 283 284 285 285 281 284 283 277 274 277 279 279 281 282 283 283 285 284 283 283 282 280 279 279 278 278
299 299 299 299 299 299 300 300 300 297 295 295 295 296 295 290 284 280 280 279 282 282 284 284 282 285 285 286 281 286 283 284 279 282 276 271 275 278 278 278 279 280 280 279 280 279 279 279 278 278 277 276 276 276
298 299 298 298 298 298 299 300 298 299 299 293 287 282 282 277 270 269 272 277 277 281 282 285 285 286 286 286 284 284 282 280 281 273 270 271 276 277 277 277 277 278 278 278 277 278 277 277 277 277 275 276 275 274
298 298 298 298 296 296 295 295 294 291 287 280 276 268 269 267 271 271 271 270 278 281 281 283 285 285 285 283 282 278 276 276 267 264 267 272 274 275 276 277 276 275 276 275 275 275 275 274 274 275 275 275 273 272
298 298 297 296 297 295 295 295 292 287 282 277 276 267 270 273 273 272 274 274 279 282 282 284 283 281 277 274 274 273 268 265 267 263 267 272 274 275 275 276 275 275 275 275 275 274 274 274 273 273 274 274 274 274
297 297 296 297 296 295 293 290 287 285 280 276 273 269 270 269 271 273 273 273 279 280 283 283 278 275 271 271 269 267 267 264 265 269 272 274 273 273 273 273 273 274 275 275 275 275 274 274 273 273 273 273 273 272
297 293 298 298 296 293 293 285 282 278 275 273 269 273 267 268 270 272 275 276 280 280 274 276 271 272 275 269 266 268 266 268 270 270 271 272 272 272 273 273 273 273 273 273 273 273 274 274 274 273 271 272 272 272
294 295 298 298 296 290 286 283 279 277 271 271 269 272 271 270 270 271 276 277 279 278 276 273 275 268 266 266 265 268 269 271 272 271 271 271 271 271 272 271 272 272 272 271 271 271 271 271 271 271 271 271 270 270
295 295 296 297 292 285 281 280 280 271 271 270 271 272 271 272 275 276 276 277 277 278 276 273 268 267 267 269 269 270 270 271 269 270 271 272 272 272 271 271 270 270 270 270 270 269 268 269 269 269 269 269 267 267
297 296 295 296 293 283 281 279 283 276 272 273 274 272 272 272 274 274 274 276 276 274 270 268 267 268 269 271 272 272 272 272 271 269 269 270 271 270 269 269 269 269 268 268 268 268 267 267 266 266 266 266 264 262
291 290 293 291 287 285 282 280 278 278 277 275 276 275 273 274 271 271 272 275 270 269 268 270 270 272 273 273 273 273 272 272 270 268 268 267 269 269 268 268 267 266 264 263 262 262 263 263 264 263 260 256 257 259
287 292 285 287 283 283 281 283 281 281 279 277 276 277 270 265 266 269 272 268 268 269 271 271 272 272 272 272 272 273 272 271 270 269 268 268 265 264 263 262 263 261 261 258 259 255 258 262 261 259 257 252 258 257
288 286 281 281 277 276 278 281 277 280 272 272 273 270 266 263 267 273 265 269 270 272 272 272 273 273 271 271 271 271 272 270 267 266 265 264 264 261 262 263 260 258 260 262 262 260 256 257 257 256 255 254 252 250
286 279 275 270 274 270 272 271 278 275 272 271 269 268 266 263 269 265 265 268 270 272 271 271 271 269 269 268 267 267 268 268 265 263 263 264 262 262 263 263 262 261 260 262 259 255 255 249 252 253 248 248 246 248
275 272 272 268 271 269 266 265 266 269 265 266 266 265 264 268 261 260 262 266 266 264 263 268 268 266 262 260 264 265 268 267 265 264 262 264 261 262 261 262 261 262 260 255 250 248 249 246 246 247 248 246 249 247
269 272 270 268 267 269 268 264 264 264 264 264 265 266 263 260 258 259 264 261 264 259 257 260 262 263 265 266 263 264 265 266 265 260 263 265 263 257 253 253 254 256 257 252 251 248 249 248 248 249 248 249 248 246
265 268 272 274 271 271 265 266 268 264 261 262 262 257 256 253 253 262 266 265 264 262 267 266 266 264 264 264 265 264 264 264 263 263 262 262 262 260 255 252 253 257 254 251 249 249 249 248 247 247 247 246 245 247
270 267 262 261 263 265 257 256 255 257 260 267 261 254 253 254 259 263 263 266 265 267 266 266 266 265 264 262 260 261 259 259 260 260 260 260 258 254 252 252 253 260 252 248 248 246 247 247 247 247 245 247 247 245
262 261 263 256 259 261 262 257 258 264 267 260 254 255 260 265 262 262 265 266 265 265 263 261 258 255 256 256 254 252 253 255 254 251 249 249 248 255 253 249 249 248 247 251 258 255 256 250 248 248 248 247 250 250
261 261 260 257 259 259 259 259 258 259 263 261 265 267 264 263 266 262 263 260 259 257 254 255 252 253 252 252 250 252 247 246 251 255 250 248 251 251 248 249 248 247 246 246 247 250 255 250 252 248 247 247 245 246
265 261 261 262 261 260 260 257 264 261 256 257 254 256 257 260 262 266 265 259 256 258 258 255 253 250 252 248 247 248 250 249 246 247 248 247 247 248 248 247 245 245 246 245 245 245 246 245 245 245 246 246 247 246
260 257 260 261 262 262 262 255 254 253 250 253 253 249 254 254 253 259 261 259 258 254 252 250 254 253 248 247 246 246 250 250 248 247 248 247 246 245 244 246 243 244 244 244 243 243 244 245 245 245 245 245 244 244
263 265 260 260 260 258 259 259 258 256 253 253 256 253 253 252 253 258 260 255 256 257 255 254 250 249 249 249 250 248 250 248 248 255 252 252 249 249 244 243 242 243 245 244 242 243 244 244 243 242 242 242 242 242

GFSWCAN_sfc_thetae_060.txt.gz
Theta_e
300 300 300 300 300 301 301 301 301 301 301 301 301 301 302 302 303 300 297 300 294 286 292 294 295 291 290 290 284 288 288 285 282 279 280 282 277 281 280 284 285 284 283 280 283 281 277 294 294 292 294 297 298 299
300 300 300 300 301 301 301 301 301 301 301 301 301 301 301 301 302 302 291 300 299 293 292 297 299 298 297 295 291 291 287 286 286 281 280 281 277 275 281 277 287 280 284 282 284 284 292 294 295 298 299 298 299 299
300 300 300 301 301 301 301 302 301 301 301 301 301 301 301 301 301 300 295 296 293 288 291 291 291 296 299 299 299 288 289 292 288 290 284 283 279 280 276 279 283 286 290 285 285 288 291 293 295 297 298 299 301 302
300 301 301 301 301 301 301 301 301 301 301 302 302 302 301 302 302 300 295 297 294 291 285 289 297 296 301 301 301 299 296 298 294 292 285 282 280 287 279 284 282 285 288 287 286 291 293 294 296 297 296 300 300 301
301 301 301 301 301 301 301 301 301 301 301 302 302 302 302 302 302 299 298 297 298 292 284 285 294 296 297 298 297 299 298 295 293 289 283 285 285 286 284 285 283 290 288 284 283 292 292 292 295 294 294 295 295 294
301 301 300 301 301 301 301 301 301 301 301 302 302 302 302 302 302 296 289 296 299 299 290 282 291 294 295 295 295 296 298 297 293 291 288 288 292 289 285 280 289 291 291 292 291 292 291 293 294 291 290 292 291 289
301 301 301 300 301 301 301 301 301 301 301 302 302 302 302 302 297 291 287 294 299 298 290 284 285 294 296 295 294 293 297 297 295 292 289 287 289 293 286 283 285 287 287 289 293 291 291 292 289 289 288 289 288 285
300 300 300 300 300 301 301 300 301 301 301 301 302 302 301 300 300 295 295 299 299 293 290 283 285 289 296 290 289 295 292 294 293 291 288 287 289 289 284 281 284 284 285 287 288 289 291 291 289 286 286 285 282 280
300 299 299 299 300 300 300 301 301 301 301 302 302 299 297 293 291 294 300 299 297 292 282 282 282 282 293 289 291 289 292 285 290 285 284 287 284 280 277 279 280 281 282 283 286 287 290 289 285 283 282 282 280 279
299 299 299 299 299 299 300 300 301 301 300 299 296 290 284 294 300 300 294 289 288 288 290 284 285 284 289 286 285 286 285 282 279 283 284 278 276 278 279 280 280 281 282 283 283 283 283 283 282 280 279 279 279 278
299 299 298 299 300 300 300 300 300 300 300 294 290 288 295 299 293 289 284 283 284 283 286 285 285 285 289 281 284 284 283 285 281 280 280 277 273 275 278 278 279 280 281 281 282 281 280 280 279 278 277 277 277 276
299 299 298 298 300 299 300 300 300 296 295 295 295 296 292 286 283 282 280 282 282 282 284 285 285 287 287 285 283 285 282 284 277 280 275 269 274 277 278 277 277 278 278 278 279 278 278 278 278 277 276 275 275 274
298 298 297 297 297 297 298 300 300 299 297 291 286 281 281 277 272 273 271 274 276 280 281 285 284 285 285 286 284 284 281 276 279 272 269 270 274 276 276 276 276 277 277 277 276 277 276 275 275 275 273 274 274 273
297 297 298 296 296 296 294 294 295 291 286 280 275 267 268 265 269 270 269 270 278 280 281 284 285 283 284 282 280 277 273 273 266 264 266 271 274 274 275 276 275 274 274 274 274 274 273 273 273 273 273 273 272 271
298 298 296 296 296 294 293 292 290 286 280 275 273 265 268 272 274 274 275 276 279 281 282 282 277 280 273 270 273 273 267 265 266 263 268 271 272 273 273 274 275 274 274 273 273 273 272 272 272 272 272 272 272 271
297 297 296 295 295 294 292 289 287 285 279 274 272 267 268 267 269 268 270 271 278 278 278 279 272 270 268 270 267 265 266 263 264 267 270 272 272 272 272 273 273 273 274 274 274 273 273 272 271 271 272 271 271 270
297 293 297 298 294 292 291 285 282 278 275 271 269 270 267 267 266 269 271 274 278 277 272 275 269 270 274 267 264 267 261 263 266 269 271 272 271 271 272 272 272 272 272 272 272 273 272 273 272 271 269 270 271 271
291 293 297 297 293 289 285 282 279 275 269 269 266 269 270 271 269 270 274 277 278 277 276 272 274 268 265 265 265 267 269 270 271 271 271 271 271 271 271 271 271 271 271 270 271 271 271 270 270 269 269 269 268 268
294 294 296 296 290 284 281 279 278 269 268 269 271 272 272 271 275 275 276 278 278 278 276 273 268 267 267 269 268 269 270 270 269 270 270 271 271 271 270 270 270 269 269 269 269 268 268 268 268 268 267 267 265 265
296 295 295 295 291 282 280 278 281 275 271 273 274 272 272 272 274 274 274 276 275 273 269 267 266 268 269 270 270 270 271 272 270 267 267 268 269 269 268 268 268 268 267 267 265 266 266 265 264 263 263 263 261 259
290 290 292 289 284 283 280 278 277 276 276 274 275 274 272 273 271 271 271 274 270 268 267 269 267 270 272 272 272 272 271 271 268 268 267 266 268 267 266 266 265 264 262 260 261 260 261 260 261 260 257 252 251 253
285 291 283 285 282 281 279 280 278 279 278 277 276 275 270 268 268 269 271 267 267 267 270 270 271 271 271 271 271 271 271 270 269 268 267 267 264 263 261 260 262 258 259 256 258 253 257 260 258 257 254 249 255 255
288 286 281 281 277 277 277 282 277 279 271 272 272 268 264 261 265 272 264 269 269 272 272 271 271 272 270 270 270 270 270 269 266 265 263 263 262 258 261 260 258 257 257 259 260 257 255 257 255 251 250 251 248 248
285 277 272 270 274 268 271 270 276 273 271 269 268 264 263 262 267 264 263 266 269 272 271 271 270 269 268 267 266 266 266 266 264 261 262 263 261 261 262 261 260 259 259 261 258 253 253 246 250 251 246 245 244 245
273 271 270 265 270 269 266 264 265 268 264 265 264 263 262 266 261 260 261 265 265 263 265 267 267 265 260 260 263 264 266 266 264 262 259 262 260 261 260 261 260 261 258 252 249 248 247 245 244 246 247 244 248 247
268 269 266 266 265 267 266 262 261 262 262 261 262 262 261 260 258 258 264 259 264 259 256 257 260 262 264 264 262 262 264 266 265 259 263 264 261 254 252 252 253 256 256 251 249 247 248 247 246 248 247 248 247 245
262 264 270 271 270 269 264 263 266 263 259 260 260 255 255 252 253 261 265 263 262 259 264 262 264 263 263 263 263 263 262 262 262 261 261 261 261 260 255 251 252 255 253 250 248 248 248 248 247 247 246 244 245 245
267 265 261 258 261 263 256 256 255 256 260 266 260 253 252 253 258 263 264 265 265 265 264 263 263 263 262 261 259 260 258 257 259 258 259 258 257 253 251 250 253 259 251 247 246 245 246 246 246 246 245 246 246 244
260 258 262 256 258 259 260 256 257 263 265 258 253 254 259 263 261 261 264 265 264 264 260 258 256 252 254 255 252 250 252 253 253 250 248 248 247 253 250 248 247 246 245 249 255 252 253 249 247 246 245 245 247 246
260 259 257 253 255 256 256 258 256 257 262 260 264 266 263 262 265 264 261 261 261 259 253 253 249 249 250 250 249 251 248 247 251 255 252 248 250 249 246 247 247 246 244 244 246 249 254 249 250 246 246 244 243 243
262 257 258 258 258 258 258 254 262 259 255 255 252 255 256 258 262 264 260 253 253 254 255 251 250 247 251 247 247 248 250 248 244 246 246 245 245 245 246 245 243 243 245 245 244 243 244 243 242 243 243 244 243 242
255 253 257 257 258 258 258 251 252 252 249 253 252 249 252 253 252 258 259 256 255 255 253 250 251 253 251 247 244 244 248 248 246 246 247 246 245 243 243 244 241 241 242 242 241 242 243 243 242 242 241 241 241 241
258 261 257 258 257 256 256 257 256 254 251 252 253 250 249 251 253 257 258 254 256 258 255 252 249 246 247 247 248 246 248 246 246 255 251 251 248 247 242 241 241 242 243 242 241 241 242 243 242 241 241 240 240 240

GFSWCAN_sfc_thetae_063.txt.gz
Theta_e
300 300 300 300 300 300 300 301 301 301 301 301 300 301 301 301 302 299 296 299 294 286 291 294 295 292 291 290 285 289 288 288 287 283 283 282 282 284 283 286 287 285 284 284 286 283 280 295 297 291 296 300 300 301
300 300 300 300 300 300 301 301 301 301 301 301 301 301 300 300 302 301 294 300 299 292 290 297 298 299 298 296 292 292 290 288 288 285 285 286 283 283 284 281 289 284 289 288 288 288 294 297 297 298 299 298 300 300
300 299 300 300 300 301 301 302 302 302 301 301 301 301 301 301 301 301 293 298 296 290 290 291 292 298 300 300 301 290 292 294 291 292 288 287 284 285 282 284 286 289 292 289 289 291 294 296 298 299 298 298 299 296
299 299 300 301 301 301 301 301 301 301 301 301 301 302 301 301 301 297 294 296 295 291 286 289 298 296 302 302 300 299 298 298 296 295 289 286 286 289 285 287 286 289 291 289 289 292 296 296 296 295 296 297 295 294
300 301 301 301 301 301 301 301 301 301 301 302 302 302 302 301 301 299 298 296 297 292 285 288 294 297 299 300 299 300 299 297 296 292 287 288 289 290 288 289 288 293 290 289 288 291 290 293 297 293 293 292 291 290
301 301 300 301 301 301 301 301 301 301 301 301 302 302 302 301 300 295 288 296 299 298 290 285 293 293 296 299 298 297 298 297 296 293 290 292 294 292 286 285 290 292 291 290 289 292 292 294 294 291 290 290 289 286
300 300 300 300 300 301 300 301 301 301 301 301 302 302 302 301 297 291 289 294 299 300 289 285 286 294 295 295 295 296 298 296 295 293 291 291 293 294 288 285 287 286 287 287 290 290 292 292 290 288 288 288 287 285
299 300 300 300 300 300 301 301 301 301 301 302 302 302 302 300 299 295 297 299 299 294 291 284 285 289 296 289 289 296 292 294 293 291 290 290 292 291 284 282 283 283 284 287 285 287 288 290 288 286 286 285 283 282
299 299 299 300 300 300 300 301 301 301 301 302 302 301 295 292 290 294 300 300 299 293 285 284 283 282 294 290 291 291 293 285 291 287 286 290 287 283 277 278 279 280 280 282 284 286 287 286 283 282 281 281 280 279
298 299 299 299 299 300 300 300 301 301 301 299 296 291 285 290 300 299 294 288 289 290 291 283 288 285 290 288 286 286 287 285 284 286 286 281 275 278 279 279 279 279 281 282 280 281 280 280 280 279 278 278 278 277
299 300 300 300 300 300 299 299 299 299 299 294 290 288 295 299 294 290 285 282 283 282 286 287 286 285 287 285 285 286 285 285 281 282 284 278 273 276 278 277 278 279 280 279 281 280 280 279 279 277 276 276 276 275
298 299 299 299 300 300 300 300 299 296 295 295 293 293 290 285 284 281 281 282 282 281 285 285 285 288 286 289 286 286 284 284 278 281 277 270 274 276 277 276 276 278 278 277 278 277 277 277 277 276 275 274 274 273
297 297 297 298 300 300 300 299 296 297 293 289 284 280 280 275 271 272 273 275 276 279 282 285 285 286 287 288 286 285 281 275 279 272 269 271 274 275 276 276 276 277 276 276 275 276 275 274 275 274 273 273 273 272
296 297 295 296 295 294 295 294 293 290 286 279 276 268 268 267 271 271 271 272 278 280 280 285 283 282 282 281 279 276 274 275 268 266 266 271 273 274 275 276 275 274 274 273 273 273 273 272 272 273 273 272 271 270
298 296 295 295 295 293 292 292 290 285 281 275 274 266 267 272 273 274 275 277 278 280 283 282 277 279 274 272 274 274 269 266 267 266 269 272 273 273 273 274 274 273 273 273 273 272 272 271 271 270 272 272 271 271
297 296 295 294 293 292 291 289 286 283 279 274 271 269 269 269 269 270 272 274 278 278 281 279 274 270 269 270 267 266 267 264 266 269 271 272 272 272 272 273 273 273 273 273 273 273 272 271 271 271 271 271 270 270
297 291 297 297 293 291 290 284 281 277 274 271 269 269 268 269 269 270 272 274 278 279 273 274 269 270 273 266 264 267 264 266 268 270 272 272 271 272 272 272 272 272 272 272 273 272 272 272 272 270 269 270 270 270
292 291 296 297 291 288 284 282 278 274 269 270 269 270 271 272 271 272 275 277 278 277 275 272 274 268 266 265 265 268 269 270 271 271 271 271 271 271 272 271 271 272 271 271 271 271 271 271 270 269 270 269 268 268
293 292 296 293 289 284 280 279 278 269 269 268 271 273 273 272 275 275 276 277 278 278 276 273 268 267 267 269 269 269 270 270 269 269 270 271 271 271 271 271 270 270 269 270 269 268 268 268 268 268 268 268 266 267
294 294 294 293 290 282 279 277 280 274 270 273 274 272 273 272 274 274 274 275 275 273 269 267 266 268 269 270 271 271 271 271 270 268 267 268 270 269 269 269 268 269 268 267 267 267 267 266 265 265 265 265 264 263
289 289 291 287 283 283 280 278 276 275 275 273 275 274 272 274 271 271 271 273 270 268 267 269 269 270 272 273 273 273 272 272 270 270 268 266 268 268 267 267 266 266 265 264 264 263 263 263 263 263 262 260 261 262
285 290 282 285 281 281 279 280 278 278 277 275 275 274 270 268 268 269 272 267 267 268 270 270 271 271 270 270 271 271 271 270 269 268 268 268 266 265 264 264 264 262 262 262 263 261 262 263 262 262 261 260 261 261
287 285 281 280 275 275 278 283 277 278 272 273 273 269 267 265 268 272 265 268 269 272 272 271 271 271 270 270 270 270 270 269 267 266 265 264 264 263 263 263 263 262 262 262 263 262 261 260 258 259 259 260 260 259
284 276 270 270 275 270 273 272 277 273 271 270 268 264 264 264 268 265 264 266 269 271 271 270 270 269 268 268 266 266 266 266 264 264 265 264 263 263 263 263 263 263 263 262 261 260 258 257 256 259 257 258 257 258
273 269 269 266 270 269 266 264 265 267 263 264 263 262 262 267 262 261 262 266 267 265 266 268 267 266 263 264 265 266 267 267 265 264 264 264 263 263 262 262 262 262 262 261 259 259 257 255 256 258 258 258 258 257
266 267 266 265 264 266 265 260 260 261 261 260 260 262 262 260 258 259 264 264 266 264 262 262 264 265 265 266 265 265 265 267 266 263 264 265 263 261 260 260 260 261 260 259 259 259 258 256 256 257 257 256 251 255
259 261 268 269 269 267 262 262 265 263 259 260 259 256 257 254 255 263 266 265 265 262 265 265 266 266 265 264 264 263 263 264 264 263 263 263 262 262 261 260 259 261 259 258 258 259 259 258 257 257 257 256 255 255
265 263 260 257 260 261 255 256 256 257 261 265 261 254 254 255 259 264 265 266 264 264 263 262 263 264 263 262 261 261 260 260 261 261 262 262 260 258 257 258 258 259 257 256 257 255 257 257 257 257 256 256 256 255
259 257 261 254 256 257 258 256 258 263 264 259 256 257 260 263 262 263 265 265 265 264 261 260 257 257 257 257 255 256 259 260 260 256 255 257 256 259 256 256 256 255 255 257 256 257 258 257 257 256 256 255 255 253
259 259 257 252 254 256 256 258 258 258 261 261 265 265 263 263 265 265 265 264 263 260 256 257 254 257 257 258 257 257 254 253 256 259 257 257 258 256 254 256 257 255 253 256 257 258 257 256 256 254 254 254 254 254
261 258 257 258 257 259 259 256 261 259 256 257 256 257 258 259 263 263 259 255 255 255 257 257 255 252 255 254 256 256 257 255 249 251 252 253 253 254 254 253 252 252 253 254 254 254 254 253 253 253 253 253 251 250
258 254 257 257 258 259 257 252 252 254 253 256 255 251 254 256 254 260 260 260 259 257 255 255 256 259 255 254 251 252 250 255 254 253 253 254 255 253 252 252 249 251 252 252 252 252 251 252 252 252 251 251 250 249
258 260 258 258 257 256 255 256 256 255 253 253 252 250 249 254 255 259 259 257 260 261 258 257 255 253 252 252 254 253 251 253 251 256 252 252 249 252 251 251 251 251 252 252 252 251 251 251 251 250 250 249 249 249

GFSWCAN_sfc_thetae_069.txt.gz
Theta_e
298 299 299 299 300 300 301 301 301 301 301 301 301 301 301 301 300 300 298 302 294 288 291 294 295 292 293 292 289 293 290 290 288 286 286 287 286 289 287 291 288 287 286 285 287 284 282 301 299 293 299 303 303 303
299 299 299 299 299 300 300 301 301 301 301 301 301 301 301 301 300 300 295 302 301 292 291 300 299 300 300 297 294 293 291 291 293 290 291 292 288 291 289 285 295 287 291 289 290 290 300 303 301 303 304 302 301 302
298 299 299 300 300 300 300 300 300 300 301 301 301 301 301 301 301 299 295 297 295 289 290 294 294 300 303 303 304 292 295 297 296 299 293 293 288 293 287 289 291 294 297 294 293 297 298 301 303 302 303 302 302 301
299 299 300 301 301 300 301 301 301 301 301 301 302 301 301 301 302 300 295 297 295 291 286 292 300 297 304 304 303 302 298 302 300 300 294 292 290 295 292 292 292 294 295 293 293 296 299 301 301 300 301 301 300 300
299 300 300 301 301 301 301 301 301 301 302 302 302 302 301 301 301 300 298 298 300 294 289 290 298 300 300 300 300 300 298 298 295 292 293 291 296 295 296 295 292 296 294 291 292 297 297 298 299 298 298 297 297 297
300 300 300 300 300 300 301 301 301 301 301 302 302 302 301 301 301 296 287 298 300 301 292 287 297 296 298 299 298 297 298 297 295 292 294 296 299 296 292 289 296 297 297 297 295 297 297 297 295 295 294 294 294 293
300 300 300 300 300 301 301 301 301 301 301 302 302 301 301 300 297 293 292 296 301 300 291 287 290 296 299 299 299 298 298 296 294 292 294 295 296 297 293 288 289 292 294 294 294 294 294 293 290 292 290 291 292 291
300 300 300 300 301 301 301 301 301 301 301 301 302 301 300 299 299 295 299 301 301 295 293 287 288 291 298 293 292 297 293 293 293 292 295 294 296 295 288 285 287 288 291 292 290 292 290 291 289 286 287 288 286 284
300 299 300 300 301 301 300 301 301 301 301 301 301 300 297 295 293 296 300 301 303 296 289 289 287 284 295 292 293 293 294 286 294 288 291 295 291 280 280 281 282 283 283 284 288 290 289 287 285 284 284 284 284 283
299 299 299 300 300 300 300 300 301 301 301 301 295 289 285 294 300 299 294 288 290 293 295 289 295 287 293 292 290 290 291 290 284 288 293 289 280 282 283 283 283 283 284 285 283 283 283 284 284 283 282 283 282 281
300 299 299 299 300 300 300 300 300 299 298 294 288 288 296 300 296 292 287 287 288 287 292 292 292 289 295 289 288 293 290 290 285 287 287 284 278 279 282 282 282 283 283 283 283 283 282 282 282 282 280 280 279 278
300 298 299 299 300 300 299 299 300 300 298 296 292 294 294 292 288 285 285 287 287 286 290 288 290 293 292 296 290 290 287 289 282 290 286 280 278 280 280 280 280 281 281 280 281 280 280 280 280 279 278 277 276 276
297 297 298 297 297 298 299 299 299 298 299 297 290 286 288 285 282 282 279 282 282 286 286 289 287 290 292 292 289 288 284 284 288 284 279 277 278 278 279 279 278 279 280 279 278 278 278 277 277 276 275 275 275 275
296 296 296 295 294 294 295 294 295 296 294 287 284 276 281 279 280 280 282 283 283 286 286 289 287 289 288 286 286 282 282 285 281 279 275 277 276 277 278 278 277 276 276 275 275 275 275 274 274 274 274 274 274 272
295 295 295 293 293 293 292 292 292 293 288 282 283 276 276 279 281 281 283 284 285 286 286 289 288 290 285 283 284 282 279 277 278 277 276 277 277 277 277 277 276 275 275 275 275 274 274 274 273 273 274 274 273 272
298 297 292 294 292 292 292 291 290 289 285 281 279 278 280 281 281 281 282 282 284 285 289 290 284 282 279 282 279 275 279 277 275 277 277 277 275 276 276 276 276 277 276 276 276 275 275 273 273 273 273 272 272 272
298 297 292 292 292 290 292 290 287 281 279 278 277 280 280 279 279 280 282 282 286 286 284 287 280 276 282 278 274 277 274 275 276 277 278 277 276 276 276 276 276 277 276 276 275 275 275 275 275 274 273 273 273 272
298 297 292 292 294 291 287 287 283 280 275 279 277 278 280 281 281 281 283 285 286 286 285 279 284 277 276 273 274 274 276 277 277 276 276 277 277 277 277 276 276 277 276 276 276 276 276 276 275 274 274 273 273 272
298 296 296 295 294 290 284 283 285 276 277 279 280 281 281 280 281 282 283 284 285 286 284 281 276 274 273 276 275 275 276 276 275 275 276 276 276 276 276 276 276 276 276 276 276 275 275 274 275 275 275 275 274 274
294 295 294 294 293 287 281 282 288 280 277 278 280 279 279 279 280 281 280 281 281 279 275 273 273 275 276 278 279 277 278 278 278 276 275 276 277 276 277 277 276 276 275 275 275 275 274 274 273 273 273 273 274 272
294 293 293 295 291 289 285 283 281 281 280 278 281 280 278 280 278 278 277 279 276 275 273 275 275 277 278 279 279 279 279 280 279 279 277 275 276 276 275 276 276 276 275 275 275 273 273 272 272 273 273 272 272 271
295 292 295 293 287 286 284 285 282 283 281 279 279 280 278 276 276 275 278 275 273 275 277 276 276 276 276 276 277 277 277 277 276 276 275 276 275 275 275 275 275 273 273 273 273 273 272 272 272 272 272 271 271 271
292 294 292 289 284 283 280 288 281 281 277 277 279 276 276 276 277 280 274 274 274 277 277 276 276 276 275 275 275 276 277 277 276 275 275 275 274 275 274 274 274 273 272 272 273 273 271 267 269 271 270 271 271 270
289 283 282 283 283 278 283 280 282 279 279 277 275 273 274 276 278 276 271 273 275 276 275 275 276 275 276 276 275 274 275 276 275 275 275 275 273 272 273 273 272 272 272 272 271 271 271 270 266 270 269 269 269 268
281 275 280 277 282 279 277 277 276 277 275 275 273 274 274 278 274 273 271 272 274 275 275 276 277 277 275 275 274 273 274 276 275 273 274 274 273 273 272 272 271 271 272 272 271 270 269 269 269 269 268 268 267 266
273 273 276 277 278 278 278 275 275 276 275 273 273 275 278 276 272 270 273 274 274 275 275 276 276 275 275 276 274 274 273 275 275 273 272 273 272 272 272 271 271 270 271 270 270 270 269 268 267 265 266 265 263 264
272 272 275 277 279 278 277 278 279 277 274 272 274 273 274 269 268 270 274 276 275 276 277 277 278 277 275 273 273 273 273 273 272 271 272 271 271 271 271 270 267 269 270 269 269 268 267 267 267 266 266 267 267 266
272 272 269 271 272 275 271 272 272 271 272 273 274 268 268 268 268 273 274 275 275 276 276 276 276 276 274 273 273 272 271 271 270 271 271 271 271 270 269 269 268 265 268 267 268 267 267 266 266 266 266 265 265 266
271 273 270 264 268 269 268 269 270 270 271 274 271 269 267 269 273 272 273 274 276 275 273 272 271 273 272 272 272 273 273 273 268 264 264 268 269 269 269 269 269 268 268 268 264 265 266 266 265 265 265 265 266 265
269 274 268 266 265 265 267 270 269 271 272 272 271 269 269 269 272 275 274 275 274 273 273 273 273 273 271 271 269 269 270 270 268 268 268 267 267 268 268 268 267 267 267 267 266 266 265 266 266 265 264 265 265 265
274 273 269 268 266 269 270 271 272 273 273 272 273 270 268 269 271 271 272 273 273 272 272 270 271 271 270 270 271 269 268 267 264 265 267 267 268 268 266 265 266 266 266 265 264 265 264 263 264 264 263 263 262 261
272 269 267 265 266 269 272 272 272 271 271 271 270 271 272 271 268 270 271 273 272 272 269 272 271 270 270 269 268 267 266 266 266 265 264 266 266 265 265 265 265 265 264 264 264 263 263 262 262 262 262 262 261 260
272 271 271 269 268 269 270 272 271 270 271 270 269 270 269 270 267 269 270 271 271 272 271 270 270 268 267 267 267 266 266 265 263 263 262 261 260 262 264 266 265 264 263 263 263 263 262 261 261 261 261 260 260 260

GFSWCAN_sfc_thetae_072.txt.gz
Theta_e
297 298 299 299 299 299 300 300 300 301 301 301 301 301 301 301 301 299 297 302 294 288 289 292 293 290 291 292 288 292 290 291 288 283 284 285 286 288 287 290 287 286 284 284 285 283 281 300 299 293 298 301 301 301
298 298 298 298 299 299 300 300 300 300 301 301 301 301 301 301 301 300 293 300 301 292 290 296 297 298 296 295 293 290 290 290 291 288 289 289 288 290 288 284 294 286 290 288 288 289 299 301 300 302 302 299 299 299
298 298 298 299 299 300 300 300 301 301 301 301 301 301 301 301 301 300 297 299 297 290 290 290 290 296 300 301 303 291 294 295 293 298 293 291 287 292 286 288 290 294 297 292 293 297 297 299 300 301 301 299 299 299
298 298 299 299 300 300 301 301 301 301 301 301 301 301 301 301 302 301 294 298 296 291 284 287 297 296 299 302 302 302 299 300 299 299 291 290 289 295 290 292 291 294 294 293 293 295 295 296 297 299 298 298 298 298
298 298 299 300 301 301 301 301 301 301 301 302 302 302 302 301 301 300 297 299 299 291 286 287 295 298 301 299 299 300 299 297 294 292 291 289 293 293 294 295 290 295 293 292 289 294 294 293 295 297 295 295 295 294
298 299 300 300 300 301 301 301 301 301 302 302 302 302 302 301 301 295 286 296 300 299 289 285 295 296 299 299 297 296 298 296 295 292 291 295 298 294 290 288 290 293 294 293 290 295 296 295 293 294 292 292 293 291
299 300 300 300 300 301 300 300 301 301 302 302 302 302 302 301 298 291 291 296 300 299 288 286 287 296 298 297 297 297 298 295 294 292 291 293 294 295 291 285 286 288 293 291 292 294 291 289 288 290 290 291 290 288
299 300 300 300 300 301 301 301 301 301 301 302 302 301 300 300 298 294 300 301 300 294 292 285 287 290 298 293 291 298 292 293 292 292 294 292 295 295 282 283 284 286 289 288 289 292 290 290 288 287 288 288 287 284
300 299 300 300 300 301 301 301 301 301 302 301 300 300 297 294 291 295 301 300 301 294 288 288 284 284 297 294 293 294 292 286 292 288 290 293 287 279 280 282 281 283 283 285 288 287 288 287 286 286 285 285 284 282
299 299 300 300 300 300 300 300 301 301 301 300 295 289 285 293 300 299 294 287 289 291 294 288 292 287 293 292 289 288 291 288 285 288 293 286 278 283 283 283 283 283 284 284 283 281 282 282 283 282 281 281 281 279
299 299 299 300 300 300 301 301 301 299 299 294 288 288 296 300 296 291 285 286 287 286 291 292 291 288 295 288 287 293 287 290 284 286 286 283 278 279 282 281 282 282 282 282 282 282 282 281 281 280 278 278 277 277
299 299 299 299 300 300 300 299 299 299 297 294 293 296 295 291 289 286 284 287 286 285 291 290 291 293 292 294 289 290 287 288 282 290 286 278 277 280 280 279 279 280 280 279 280 279 279 279 279 278 276 275 275 275
298 298 298 299 299 299 300 299 299 298 299 297 292 288 289 286 282 282 279 282 284 287 288 289 288 292 292 293 290 289 284 283 289 284 278 276 277 279 279 279 278 279 278 278 277 277 276 276 276 275 274 274 274 273
296 296 295 296 295 296 298 298 298 297 295 288 285 278 282 280 281 280 281 283 285 287 289 289 288 289 289 286 286 282 283 285 281 279 274 276 276 277 277 278 276 275 275 275 274 274 274 274 273 274 273 273 272 271
295 295 295 293 294 294 294 294 295 295 290 284 284 277 277 280 282 283 285 286 285 287 287 289 290 289 285 284 285 283 279 278 277 274 275 276 277 277 276 276 276 275 275 275 275 274 273 273 273 272 273 273 272 272
296 296 292 294 293 292 293 293 293 291 286 281 280 280 282 282 281 283 284 283 286 286 288 292 285 283 281 283 280 278 279 276 275 275 276 277 276 276 276 276 276 276 276 275 275 274 274 273 272 272 272 272 272 272
298 294 292 293 293 293 294 290 287 282 281 279 278 281 282 281 280 281 283 283 287 286 285 287 281 278 283 278 275 276 274 275 277 277 278 277 276 275 276 276 277 276 276 276 275 275 275 275 275 274 272 273 273 272
296 292 293 295 294 292 289 289 284 281 277 280 278 279 280 281 281 282 283 286 287 286 285 280 285 278 275 275 273 275 276 277 278 277 277 277 277 278 278 276 277 276 276 276 276 276 276 275 275 274 273 273 273 273
298 295 293 293 293 290 285 285 286 277 279 281 281 282 282 281 282 283 284 286 286 287 285 281 276 274 274 276 275 276 276 276 275 276 276 277 277 276 276 277 277 276 276 276 276 275 275 274 275 275 275 275 274 273
296 296 296 295 294 287 282 283 288 281 279 279 282 280 280 280 282 282 283 283 282 280 276 274 275 276 277 278 279 278 278 278 277 275 274 276 277 277 277 277 276 276 276 275 275 275 275 274 273 273 272 272 273 272
294 293 293 294 291 290 286 284 281 282 281 279 282 281 279 281 279 279 278 280 277 275 273 276 276 278 280 280 281 281 280 281 280 279 276 274 277 277 276 276 276 276 276 275 274 273 273 272 272 272 272 271 271 271
294 292 294 293 287 286 284 286 283 284 282 280 281 281 279 277 277 276 279 275 274 276 277 276 276 277 277 276 277 278 278 278 278 277 276 277 275 275 275 275 275 274 273 273 273 272 272 271 270 272 271 271 270 269
292 294 292 289 283 282 280 288 281 282 278 278 280 277 277 276 277 281 273 274 275 278 278 277 277 277 276 277 277 278 278 277 276 276 276 275 275 275 274 274 274 273 272 272 272 272 270 265 269 270 270 270 270 269
290 285 284 283 282 278 283 280 282 280 280 278 276 274 276 277 279 276 272 273 275 277 276 276 277 276 276 276 275 275 276 277 276 276 276 275 273 273 273 273 272 272 271 271 271 271 270 270 264 269 269 269 269 267
282 276 281 278 283 280 278 278 278 278 276 276 275 275 275 279 275 273 271 272 275 276 277 278 279 278 275 274 274 274 277 277 275 273 274 275 274 273 272 272 271 271 272 271 271 270 269 268 269 268 267 268 266 266
274 275 277 279 279 279 279 276 277 277 277 274 274 276 279 277 274 271 273 275 275 276 277 278 277 276 276 276 274 274 274 276 276 272 272 273 272 272 271 270 270 269 271 270 269 269 269 268 267 266 266 266 261 264
274 274 276 280 281 280 279 280 280 278 275 273 275 275 275 271 269 271 277 278 277 278 279 279 279 277 275 274 274 273 273 273 272 272 272 271 271 271 270 268 267 267 270 269 269 268 267 267 267 267 266 267 267 267
274 274 271 274 274 277 274 274 274 273 273 276 276 270 270 270 269 274 275 277 277 277 277 277 277 276 275 274 274 272 271 271 271 272 271 271 271 270 269 268 267 267 267 267 266 267 267 266 266 266 266 266 266 267
273 274 271 266 270 270 270 271 271 271 272 276 272 269 268 271 274 274 275 276 277 275 273 272 272 274 273 274 274 274 273 272 270 267 267 268 269 267 269 269 269 268 268 268 266 265 266 265 265 265 264 264 265 266
271 276 269 268 267 266 268 272 271 272 273 272 271 271 271 272 274 277 276 276 275 274 274 274 274 274 272 271 269 269 270 270 268 268 268 267 267 268 268 268 267 267 267 267 266 266 267 266 266 266 264 264 265 265
276 275 271 270 267 269 272 274 276 275 274 273 273 269 268 269 271 273 274 274 274 274 273 272 272 272 271 271 271 269 267 266 265 265 267 268 268 267 266 265 266 266 266 266 265 265 264 263 264 264 264 263 262 261
275 271 269 265 267 272 274 274 273 271 272 271 270 272 272 272 268 270 272 274 274 272 272 273 271 269 269 268 268 267 266 267 266 266 266 266 266 265 266 266 266 266 265 264 264 264 264 262 262 262 262 262 261 260
273 272 271 269 268 269 272 274 272 271 272 271 270 271 271 271 267 269 272 272 273 273 271 270 269 269 268 268 267 267 266 264 262 264 262 261 260 261 263 266 265 265 264 263 263 263 263 262 261 261 260 260 260 260

GFSWCAN_sfc_thetae_075.txt.gz
Theta_e
296 297 297 298 298 299 299 299 299 300 301 301 301 301 300 300 301 296 291 294 290 285 286 289 290 286 287 288 284 288 288 289 285 278 279 279 279 284 285 287 285 282 282 280 282 279 278 299 297 291 296 300 298 297
296 297 298 298 298 299 299 299 300 300 300 300 301 301 301 301 301 299 289 295 296 289 286 292 292 293 292 292 290 287 287 288 289 285 283 285 283 285 286 281 292 283 287 284 285 285 297 299 299 299 298 296 296 295
296 298 298 298 298 299 299 299 300 301 301 301 301 301 301 301 301 300 293 292 291 286 287 287 286 292 295 295 298 287 291 293 291 296 290 288 284 288 281 284 288 292 294 290 290 294 295 296 297 297 298 296 296 295
297 297 298 298 299 299 300 301 301 301 301 301 301 301 301 302 301 301 294 294 292 287 278 283 294 291 296 296 296 297 295 298 296 293 288 287 285 293 286 289 287 288 294 291 286 288 292 293 294 295 295 295 294 293
297 297 298 299 299 300 300 301 301 301 302 302 302 302 302 302 302 300 297 296 296 288 283 285 291 295 296 296 294 295 296 295 290 287 288 287 292 290 290 291 285 289 285 286 285 290 289 288 292 293 291 291 290 289
297 298 298 299 299 300 301 301 301 301 301 302 302 302 302 302 302 294 285 295 297 295 286 280 292 292 295 296 293 294 294 292 290 291 289 291 296 291 286 283 286 287 289 289 289 292 291 290 289 291 289 288 286 284
298 298 299 299 300 300 301 301 301 301 301 301 302 302 302 302 297 291 288 293 298 297 287 283 283 292 295 294 292 292 293 292 291 290 289 290 292 293 286 280 283 285 287 288 291 291 286 286 285 288 289 287 286 283
298 299 300 300 300 300 300 300 301 301 301 302 302 302 302 300 298 293 299 299 298 292 290 282 283 288 295 287 287 294 291 292 291 290 290 289 291 287 277 281 282 283 285 285 288 289 288 287 286 285 286 285 282 280
299 299 299 299 300 300 300 301 301 301 301 302 302 301 296 294 290 293 301 299 299 292 284 284 281 281 293 290 292 291 292 284 292 286 287 290 282 275 279 279 280 281 281 281 285 284 285 284 283 282 281 281 279 278
299 299 299 300 300 300 300 301 301 301 301 299 295 289 285 293 300 299 292 289 288 291 290 285 288 282 290 287 286 287 287 285 283 285 290 280 277 281 281 280 280 281 281 281 279 278 280 280 278 278 277 278 277 276
299 299 300 300 300 300 300 301 301 299 298 293 288 288 295 300 294 289 283 284 285 283 286 287 287 285 292 285 285 287 285 284 280 284 284 280 276 277 279 278 279 280 280 279 280 279 278 279 277 276 275 275 274 274
299 300 300 301 300 300 300 299 299 297 295 293 294 296 294 290 287 283 282 284 283 279 283 284 287 290 289 292 286 285 284 284 280 287 283 273 275 277 277 276 277 278 277 276 277 276 276 276 275 275 274 273 273 273
299 297 298 300 299 300 300 300 300 299 299 296 291 287 288 284 279 276 276 275 280 285 286 286 286 288 289 291 286 285 281 279 283 280 271 272 275 276 277 276 275 276 276 275 274 274 274 273 273 272 271 270 270 270
296 296 297 296 297 298 299 299 297 296 293 286 281 271 278 278 278 278 280 281 284 285 286 286 285 285 286 284 284 280 281 283 276 271 269 272 272 273 274 275 274 272 272 271 269 269 269 269 269 269 269 267 267 267
296 295 294 295 296 295 296 296 296 292 286 280 280 273 274 277 276 281 283 284 284 286 286 284 283 285 283 281 282 279 278 276 272 266 269 273 273 273 271 272 273 270 269 269 267 268 267 267 267 268 267 267 267 266
296 295 292 294 295 295 295 294 291 290 284 280 277 276 278 278 278 281 282 281 284 284 286 283 283 280 279 280 276 271 275 268 267 268 272 271 270 269 273 273 269 269 268 268 267 268 268 266 266 267 266 265 264 264
298 291 294 295 294 295 294 289 286 282 279 278 274 277 279 274 276 279 281 282 286 284 284 281 277 277 279 273 270 272 267 270 272 273 272 269 268 267 269 270 271 272 273 273 271 269 267 267 268 269 268 267 268 268
290 292 293 294 293 291 289 287 282 280 276 277 274 274 273 277 278 279 282 281 284 280 279 277 279 271 267 269 267 270 272 273 273 272 272 272 271 273 274 273 274 273 272 270 270 270 271 270 271 269 270 271 271 271
290 292 295 294 293 289 283 283 284 275 277 277 279 280 280 279 281 281 281 282 280 280 280 277 272 268 269 270 271 271 270 272 272 273 274 273 271 271 272 274 273 272 273 274 274 271 272 273 271 271 271 272 270 269
294 294 294 294 293 285 281 281 286 279 277 278 280 278 279 279 281 279 279 280 279 277 273 271 271 273 272 275 275 274 275 275 273 271 271 270 275 274 275 274 271 271 272 273 272 271 272 271 270 268 267 269 268 265
293 293 294 293 289 287 283 280 280 280 280 278 280 279 277 279 277 275 274 278 274 272 271 273 274 276 278 278 277 277 277 277 272 271 272 272 270 271 271 272 273 273 272 271 268 266 266 265 266 267 262 259 258 258
290 293 291 290 284 283 281 283 280 281 280 279 279 280 276 272 271 272 275 272 272 273 273 274 274 274 274 273 274 276 276 276 275 273 271 273 272 271 269 269 270 264 265 263 265 263 263 264 263 266 263 258 262 260
293 293 287 285 278 276 278 285 279 281 274 275 278 276 274 271 274 278 270 272 273 275 275 274 275 276 274 275 275 276 277 275 273 272 270 269 269 266 268 267 267 265 265 265 267 266 261 261 261 257 260 261 263 261
289 282 281 276 277 275 279 276 280 278 277 276 273 272 273 272 277 272 269 270 271 272 273 273 273 273 274 274 272 272 273 273 270 269 270 270 268 267 268 267 266 264 264 266 265 262 261 258 258 264 259 255 261 255
276 271 274 271 277 272 271 273 275 276 270 272 271 270 271 276 271 268 267 270 272 272 270 273 275 275 270 266 267 269 272 274 270 268 266 269 266 267 267 267 266 265 266 265 264 261 257 256 256 256 257 254 255 254
268 269 272 274 274 273 274 269 270 271 271 269 269 273 274 271 266 265 268 272 272 269 271 273 270 271 272 272 269 268 269 272 272 267 268 269 267 262 261 263 264 262 263 258 257 257 263 261 257 256 255 257 259 255
267 268 274 278 278 278 273 275 276 272 269 267 269 268 266 260 260 269 274 272 273 276 276 276 276 272 270 269 269 269 268 268 268 268 268 268 267 266 262 259 259 261 262 260 260 255 255 254 254 256 256 255 258 259
270 273 265 272 269 272 268 268 268 267 266 272 269 262 261 260 264 271 273 275 273 272 272 272 273 272 270 269 267 265 263 263 264 266 266 265 263 260 259 258 258 264 258 256 255 255 255 254 253 254 257 256 255 255
269 270 269 263 266 266 266 266 265 267 270 270 262 261 262 269 272 272 272 272 272 271 268 268 265 266 269 269 269 267 265 263 261 257 256 259 259 259 259 258 260 258 256 256 262 260 258 256 254 254 254 253 253 253
269 272 266 263 260 261 265 270 266 266 268 266 269 270 269 270 272 272 271 272 271 268 266 265 265 264 261 262 258 259 260 258 256 257 258 257 258 257 257 256 255 255 255 255 254 255 262 257 257 257 257 256 255 252
274 269 266 265 263 268 270 272 271 270 269 268 267 265 264 266 267 271 271 269 268 268 269 264 265 263 262 262 260 260 256 256 255 255 256 256 258 255 254 254 254 254 255 254 253 253 252 252 251 251 251 252 251 250
269 264 262 261 264 270 273 267 265 267 267 265 263 261 262 264 261 265 266 268 270 268 267 267 262 260 258 257 257 260 259 257 255 255 255 259 254 254 255 256 255 255 253 253 253 254 253 251 250 250 249 250 250 250
267 266 266 263 262 264 267 266 266 267 268 265 265 267 264 262 259 263 267 270 270 266 265 264 262 260 260 259 259 259 257 254 255 260 257 256 254 254 252 253 252 251 252 251 251 252 252 252 251 250 250 249 249 248

GFSWCAN_sfc_thetae_078.txt.gz
Theta_e
296 296 296 297 297 297 297 298 299 299 299 300 300 300 301 300 300 296 292 292 288 284 284 287 288 283 284 285 281 286 285 288 286 278 278 278 276 281 281 286 285 282 280 279 280 279 277 298 297 290 294 297 297 296
296 295 297 297 297 298 298 299 299 299 300 300 300 301 301 301 301 299 290 293 293 287 283 291 291 291 289 290 286 288 287 287 287 283 281 283 280 282 285 280 290 283 286 281 284 284 295 297 296 298 298 295 294 295
295 296 297 297 298 298 298 299 299 300 300 300 301 301 301 301 301 299 293 290 288 285 285 284 284 290 294 292 294 284 290 290 290 292 289 288 283 287 281 284 287 288 293 288 288 289 291 292 295 295 294 292 291 291
295 296 297 297 298 298 299 299 300 301 301 301 302 301 301 301 301 300 294 293 288 284 274 280 291 288 293 292 292 293 293 294 294 293 288 286 284 290 285 285 283 285 288 288 286 286 290 290 290 291 292 291 288 287
296 297 297 297 298 299 299 300 300 301 301 302 302 302 302 301 302 300 297 295 293 284 278 282 289 292 293 292 291 294 293 293 291 288 286 286 290 290 288 287 280 285 283 285 283 287 287 287 289 289 286 285 286 284
296 297 297 298 298 299 299 300 301 301 301 301 302 302 302 301 302 296 286 295 296 292 284 277 287 291 293 293 292 291 293 293 290 289 289 289 295 289 284 280 282 285 286 288 286 288 287 287 289 288 284 283 282 281
296 297 297 298 299 299 300 300 301 301 301 301 302 302 302 301 296 291 287 292 298 296 287 279 280 289 293 292 292 290 292 290 288 289 289 288 291 290 282 277 281 284 285 286 289 289 284 284 283 286 284 283 282 279
297 298 298 299 299 300 300 300 301 301 301 301 302 302 302 300 298 294 298 298 298 291 289 280 279 285 293 286 287 289 288 288 291 290 289 288 287 284 276 279 280 282 283 284 285 286 285 284 283 284 284 282 278 277
297 299 299 299 300 300 300 300 301 301 301 302 302 302 296 293 289 292 300 299 298 290 282 283 280 278 293 288 290 290 291 284 291 286 287 287 279 274 277 277 277 278 279 281 282 283 283 280 279 280 280 279 277 277
299 299 299 299 299 300 300 300 301 301 301 300 296 289 284 293 300 298 293 288 288 289 290 284 287 283 290 287 285 286 287 285 282 285 287 279 275 278 278 278 278 278 279 279 278 277 279 277 276 276 276 276 275 274
299 299 300 300 300 300 301 301 301 300 299 293 287 287 295 299 294 289 283 283 284 282 284 283 287 285 292 285 283 287 284 285 281 282 282 277 274 275 277 277 278 277 277 277 277 277 277 277 275 274 274 274 274 273
298 300 301 300 300 301 301 300 299 296 294 293 294 296 294 289 286 283 281 283 281 279 280 285 285 289 288 291 285 286 283 284 280 286 278 269 273 275 275 275 275 276 275 274 275 275 275 275 275 274 273 272 271 270
299 300 300 300 299 299 299 299 299 299 298 296 291 286 286 284 279 275 276 278 280 285 286 287 285 287 286 289 285 284 277 280 283 272 269 270 275 276 275 274 274 275 274 274 273 273 273 272 271 270 269 268 268 267
298 298 300 299 299 299 299 299 300 296 292 285 280 272 274 277 277 273 276 281 283 285 286 284 285 283 285 282 284 279 279 280 274 267 268 270 271 272 273 274 272 269 269 268 266 267 266 267 266 266 264 262 263 264
296 297 296 296 297 296 295 296 295 289 284 279 279 271 269 274 275 280 282 283 283 285 286 284 281 282 280 279 281 280 276 272 270 269 267 271 270 270 269 270 269 267 266 265 263 264 262 263 264 265 261 262 263 262
295 294 293 295 297 295 294 291 289 288 282 278 276 274 277 275 276 279 281 281 284 284 285 283 282 280 279 279 273 270 272 268 265 265 267 271 269 268 269 269 266 265 265 264 263 264 264 262 263 262 262 262 260 261
294 289 295 295 296 294 294 286 284 281 279 275 272 270 268 268 275 275 280 281 285 285 282 281 278 277 279 269 266 269 263 264 269 270 268 266 267 268 267 269 269 270 268 265 265 265 264 263 263 266 265 263 266 265
289 293 296 294 292 290 289 286 282 279 274 274 272 271 267 269 271 274 280 282 282 280 278 276 277 267 262 264 264 266 268 269 269 269 265 265 267 271 272 271 269 269 267 266 267 269 270 269 270 268 269 269 269 269
291 294 294 294 293 287 282 282 282 274 272 271 274 273 272 273 277 277 277 278 278 278 277 273 267 264 265 266 268 267 266 270 271 271 271 272 271 271 270 270 269 268 270 272 273 270 271 271 270 270 271 272 269 269
295 294 293 293 293 284 281 280 284 278 274 276 277 275 275 276 276 276 277 277 278 276 271 268 268 270 268 266 267 271 272 273 272 270 267 268 268 270 268 270 269 270 271 272 270 270 270 268 267 267 266 268 264 262
293 293 294 293 287 285 281 279 279 279 280 278 280 278 275 278 275 273 274 277 273 272 269 270 270 274 274 275 275 275 273 273 268 268 270 269 267 272 272 272 273 272 270 268 266 263 263 262 263 264 258 254 254 256
289 294 288 288 282 282 280 280 279 280 280 279 279 279 274 270 269 269 274 270 270 271 272 272 272 273 273 273 274 275 274 275 273 271 269 270 269 268 266 266 267 262 262 261 263 259 259 262 261 260 256 255 257 257
292 291 284 282 276 274 276 283 277 279 273 274 277 274 270 267 270 276 266 270 270 272 271 273 274 275 273 274 275 275 276 274 271 270 269 269 267 263 265 264 262 261 261 262 264 261 258 259 258 255 254 256 256 258
287 281 276 272 274 273 274 272 279 278 277 275 272 270 269 269 275 269 266 268 269 271 271 272 273 272 272 272 270 271 272 271 268 265 267 268 266 264 265 265 263 262 263 265 263 259 258 254 255 257 252 252 251 252
274 270 270 268 273 269 268 269 271 272 266 268 267 266 269 274 265 263 263 266 266 263 265 270 272 271 266 262 265 267 270 271 268 267 264 267 263 265 265 265 263 264 263 261 257 256 255 251 251 252 252 250 253 252
265 266 271 269 272 270 270 266 265 266 266 265 265 271 271 265 261 262 266 264 266 264 265 271 270 266 269 269 267 267 267 270 269 264 266 267 265 261 260 259 258 258 260 254 253 253 255 257 256 255 252 254 254 252
262 263 273 277 276 276 272 272 273 269 264 264 265 263 261 256 256 266 268 265 268 270 273 273 272 270 268 267 267 266 266 267 266 266 266 266 265 263 259 259 257 260 257 255 252 252 252 251 251 251 251 252 255 255
269 268 264 265 265 268 263 263 261 261 262 269 267 258 256 258 262 269 269 270 270 270 270 270 271 269 267 266 263 263 262 263 264 264 264 262 260 256 256 254 255 261 254 251 251 250 250 250 250 250 250 250 250 249
263 264 266 260 261 261 263 261 262 265 268 265 258 257 260 267 267 269 270 269 269 270 268 266 264 266 265 263 261 260 258 258 258 255 253 254 253 257 254 255 255 252 250 254 259 258 257 255 253 252 252 252 251 247
264 265 261 257 258 260 262 262 260 261 264 264 267 269 268 269 271 271 270 268 266 264 261 266 262 263 258 258 253 255 254 250 251 256 253 253 255 256 252 251 251 250 249 249 250 252 257 251 254 251 251 251 249 248
268 262 260 260 262 263 265 267 267 265 261 262 259 260 260 265 267 268 268 262 266 267 266 264 260 256 259 254 252 251 253 253 249 252 255 255 251 250 249 249 249 248 249 248 248 248 249 248 246 246 246 247 247 246
259 256 259 260 263 265 262 258 258 259 256 257 257 255 260 259 258 262 267 265 264 263 257 260 261 258 254 255 253 252 254 253 250 252 252 250 248 247 251 253 249 248 248 248 247 247 248 248 247 247 246 247 246 246
261 258 258 259 258 261 264 261 261 264 261 261 261 262 258 255 256 261 263 266 261 264 261 258 259 257 258 258 256 253 253 251 251 258 254 253 251 251 247 246 245 246 247 247 246 246 247 248 248 247 246 245 245 245

GFSWCAN_sfc_thetae_081.txt.gz
Theta_e
296 296 296 297 296 296 296 297 297 298 299 299 299 300 300 300 301 297 292 291 287 280 283 287 287 282 283 282 275 282 281 284 284 280 279 278 276 280 279 282 281 280 278 278 278 276 275 296 295 286 292 295 295 294
297 296 296 296 296 296 297 297 298 299 299 299 299 300 300 301 301 299 290 293 291 286 282 290 291 290 288 287 283 285 282 284 286 282 280 283 280 280 280 276 289 281 284 281 283 281 292 295 295 296 294 293 292 293
296 295 295 295 296 297 297 298 298 299 300 300 300 300 300 301 301 299 292 292 292 286 284 282 283 288 292 292 293 284 286 290 287 290 288 287 281 286 279 282 282 284 287 287 287 287 288 290 290 290 289 287 289 290
295 295 295 295 296 297 298 298 299 299 300 301 301 301 301 301 301 300 293 293 288 283 274 279 289 286 291 291 291 292 291 293 292 292 288 285 283 290 285 283 280 282 284 286 286 287 288 287 286 288 287 286 285 285
295 295 296 296 297 297 298 298 299 300 301 301 302 302 302 302 301 300 296 294 292 283 276 280 287 290 292 290 289 290 290 289 289 286 283 284 289 288 286 285 278 282 281 281 281 285 285 285 285 285 283 282 282 281
294 296 296 297 297 297 298 299 299 300 301 301 302 302 302 302 301 296 286 294 295 291 282 275 285 286 290 290 289 289 290 289 289 289 285 288 293 289 283 278 280 283 284 285 285 286 286 285 284 283 281 280 280 279
295 295 296 297 297 298 298 299 300 300 301 301 301 302 302 301 297 291 287 292 297 295 286 279 278 286 291 290 289 290 291 290 291 288 286 288 289 287 280 275 279 282 283 285 286 288 283 284 282 283 281 279 279 278
295 296 297 297 298 298 299 299 300 301 301 301 301 302 301 301 299 293 295 298 297 291 288 279 278 283 291 284 285 290 286 291 289 286 289 288 285 283 275 277 279 280 282 282 284 283 282 283 282 281 281 279 277 276
296 296 297 298 298 299 299 300 300 301 301 301 301 301 296 293 289 293 299 299 298 290 282 282 277 278 290 286 289 288 287 284 289 286 287 284 278 272 276 276 277 278 278 278 282 281 280 278 278 278 278 277 276 275
296 296 298 298 299 299 300 300 300 301 301 301 296 289 284 291 300 298 294 287 287 288 289 281 283 279 288 285 285 285 287 285 282 285 284 277 273 276 277 277 277 277 277 278 278 277 277 275 275 275 275 275 275 274
297 298 299 299 299 299 299 300 300 301 300 293 286 286 294 299 293 289 283 282 283 281 284 284 285 283 290 285 283 286 283 284 280 283 281 275 272 274 277 276 276 276 276 276 276 276 276 276 275 274 273 273 273 272
299 299 300 300 300 301 301 300 301 298 294 293 294 295 293 288 286 282 280 283 280 278 278 283 285 287 288 289 285 286 282 284 279 286 276 266 272 275 275 275 274 275 274 274 275 275 275 275 274 273 272 271 269 268
300 300 301 300 301 301 301 301 299 299 298 295 290 285 286 284 279 275 275 278 279 282 284 286 285 286 286 289 285 284 279 276 283 267 266 268 274 275 274 274 274 274 274 274 273 273 272 270 270 269 267 265 266 265
300 300 300 299 299 299 299 300 299 296 292 285 282 276 278 277 273 272 270 272 281 285 286 286 285 285 285 283 284 273 276 277 266 265 265 268 272 273 273 273 271 267 267 267 265 266 265 264 262 261 260 258 261 260
297 298 298 296 295 295 297 296 294 290 285 281 280 272 268 275 278 281 283 283 284 285 285 284 282 284 279 276 279 279 273 266 267 265 263 269 270 270 269 269 267 265 263 264 261 262 260 262 262 261 259 260 262 260
296 295 294 295 294 294 293 292 290 288 283 279 276 275 277 276 276 279 281 281 285 285 285 283 279 276 275 275 274 269 272 268 264 261 265 269 267 268 267 267 264 263 264 262 261 262 262 261 262 261 260 260 257 259
293 290 294 296 294 295 293 287 285 281 279 276 272 273 269 271 272 278 280 280 284 285 281 276 272 272 277 269 268 268 264 262 263 267 268 265 267 265 263 265 266 267 266 264 262 263 261 261 261 264 264 262 264 263
290 293 295 295 292 290 287 285 281 279 275 273 271 275 276 273 270 277 279 279 282 281 277 273 276 266 264 266 262 263 268 264 266 267 264 262 265 267 269 267 265 267 265 264 265 265 265 264 267 266 267 268 267 267
293 293 294 295 293 285 282 281 281 274 272 272 273 275 271 271 273 275 278 280 279 279 276 272 266 262 261 263 262 265 265 266 269 270 270 267 268 269 267 268 267 266 268 269 270 268 270 270 269 268 269 270 268 268
294 293 293 294 293 283 280 279 282 277 272 275 275 274 274 272 274 271 274 276 277 275 270 266 264 268 265 265 265 270 270 272 272 270 268 268 267 269 267 269 267 269 270 271 270 268 268 267 267 266 265 265 264 263
293 292 293 293 287 285 280 278 278 278 278 274 275 274 272 274 271 270 271 276 271 269 266 266 272 273 273 273 274 273 272 272 268 267 267 269 265 269 269 268 270 269 267 264 265 263 263 262 263 263 256 254 252 253
290 294 288 288 283 282 280 280 278 279 278 278 277 277 270 266 266 268 273 269 268 267 268 269 271 273 273 271 271 273 272 273 271 269 268 268 266 267 266 263 266 261 263 261 263 258 259 261 260 258 254 253 255 256
292 290 284 282 277 277 276 283 277 279 271 273 275 271 266 265 268 275 265 268 267 270 272 273 273 275 273 274 275 275 275 274 271 270 268 266 265 261 264 262 261 261 259 261 263 259 257 258 256 253 253 254 252 252
286 280 274 272 275 273 275 273 279 277 276 273 270 267 267 266 272 266 264 267 269 272 272 272 272 271 271 271 269 270 271 270 267 264 266 267 265 263 264 263 262 261 261 264 261 257 256 252 253 254 250 250 248 251
274 270 270 269 272 269 268 267 268 269 264 266 265 264 267 271 263 262 263 265 266 264 264 269 270 270 265 261 264 267 269 271 268 266 262 266 263 264 263 263 262 262 261 256 255 253 252 249 249 250 251 248 251 250
266 265 269 269 269 269 269 265 264 265 265 264 265 269 269 263 260 259 265 263 263 260 261 267 266 266 267 268 266 266 266 269 268 263 265 266 265 261 259 258 257 258 258 253 252 251 253 254 252 252 251 252 251 249
262 262 272 275 274 274 270 269 272 268 263 263 264 263 260 256 256 264 265 263 266 262 269 270 270 269 267 265 266 265 266 266 265 265 264 264 263 262 260 257 257 259 256 252 250 250 251 250 250 250 250 250 252 252
267 267 265 263 264 266 260 259 258 259 262 269 266 257 257 258 260 266 265 268 269 270 269 269 269 268 266 264 262 263 262 263 262 262 262 262 259 256 254 253 254 260 251 249 249 247 248 248 248 247 247 248 249 247
263 263 265 259 260 261 262 259 259 265 268 264 257 256 260 265 264 264 269 266 269 269 266 264 262 262 260 260 257 256 255 260 257 254 252 251 251 256 253 251 250 249 248 251 257 255 254 252 251 250 249 248 249 246
263 263 260 256 257 259 259 260 260 261 265 262 265 267 264 265 268 269 267 266 264 263 261 263 261 262 257 259 254 256 252 249 253 257 253 251 254 253 252 252 250 248 245 247 248 250 256 249 252 248 247 247 245 244
265 260 259 260 259 260 262 260 262 261 257 257 258 259 258 265 268 268 266 263 265 264 263 258 254 252 257 253 251 252 253 253 249 250 253 252 249 248 248 247 246 245 245 246 246 246 247 246 244 244 245 246 246 244
257 254 258 258 260 261 258 256 257 258 257 257 258 253 256 257 256 260 265 262 261 259 254 258 259 256 252 250 250 250 256 255 252 251 251 249 247 246 247 247 245 245 245 245 244 244 245 246 245 245 245 245 246 245
256 254 254 257 260 259 260 258 257 257 257 258 258 257 252 254 255 259 262 262 260 261 258 254 256 256 255 256 257 255 255 251 249 256 253 252 249 249 245 243 243 244 245 244 243 244 245 246 246 245 244 243 245 245

GFSWCAN_sfc_thetae_084.txt.gz
Theta_e
295 295 296 297 296 297 297 296 296 297 297 298 299 299 299 300 300 297 293 293 289 282 281 285 286 281 282 281 277 282 281 282 283 280 279 278 277 280 280 281 281 280 279 278 280 277 274 292 293 287 290 290 287 287
295 296 296 296 297 296 296 296 297 297 298 299 299 299 299 300 300 299 290 294 292 285 281 287 289 289 287 286 283 284 282 284 285 283 282 283 280 280 280 276 285 280 284 281 282 281 289 289 288 290 290 287 289 287
295 296 296 296 296 295 296 296 297 298 298 298 299 299 299 300 300 299 291 292 291 287 285 282 283 288 290 290 290 282 286 290 287 290 286 285 282 285 280 278 280 280 286 282 285 285 284 286 287 286 286 284 286 286
295 296 296 295 295 295 296 297 297 297 298 299 299 300 301 301 301 300 292 292 289 284 279 278 287 285 289 289 289 290 290 293 290 289 286 284 281 289 283 281 277 279 282 280 284 286 286 283 284 284 283 284 282 283
295 296 295 295 295 295 296 297 297 298 299 299 300 301 302 301 301 299 295 294 292 285 275 279 285 288 290 288 288 289 289 288 285 281 285 280 287 288 286 283 275 280 278 278 279 284 283 281 282 283 281 279 280 280
295 295 294 294 295 296 297 297 297 298 299 300 301 301 302 301 301 296 286 294 295 292 284 274 283 284 288 288 287 286 287 287 286 287 287 286 291 288 281 276 278 281 283 284 283 285 283 282 281 281 279 278 278 278
295 294 294 295 296 296 297 297 298 299 300 300 301 302 302 301 297 291 287 291 296 294 285 279 278 284 289 288 286 286 289 288 286 288 284 285 286 286 279 274 278 280 283 284 284 287 282 281 279 280 279 278 278 276
294 294 294 295 296 296 297 298 298 299 300 301 301 301 301 301 298 293 294 298 296 290 289 279 277 280 290 282 283 286 284 286 287 286 285 287 284 282 274 277 278 279 281 282 281 282 281 281 280 279 279 278 275 274
293 294 295 296 297 297 297 298 299 300 300 301 301 301 298 293 290 293 299 298 297 290 281 281 277 273 290 287 288 287 288 279 285 284 286 284 277 271 275 276 276 277 276 277 280 279 278 276 276 276 276 276 275 273
293 294 296 296 296 297 298 299 299 300 301 301 296 289 283 290 300 297 292 286 286 287 288 277 280 278 287 286 283 282 285 283 282 285 283 276 271 276 276 276 276 276 276 277 278 275 276 275 274 274 274 275 274 273
294 296 296 296 297 298 299 300 300 300 300 293 287 286 294 299 292 287 283 282 283 281 283 284 281 279 290 283 283 285 283 284 280 283 281 275 270 274 276 275 275 275 276 275 276 275 275 275 274 273 272 272 272 270
295 296 297 298 299 300 300 300 300 298 294 293 293 295 293 288 285 282 279 282 280 277 281 281 283 284 287 288 284 285 282 283 278 284 277 267 271 275 275 274 274 274 274 274 274 273 274 273 273 272 271 269 268 267
296 298 299 299 299 300 300 300 300 299 298 295 290 285 286 284 278 273 274 277 277 276 282 285 284 286 287 288 284 284 281 279 282 270 268 267 273 274 274 274 273 274 274 272 271 271 270 269 268 268 266 263 264 263
299 299 299 300 300 300 301 301 299 298 293 286 282 277 278 276 273 275 277 274 278 285 285 286 285 285 285 283 283 273 277 281 273 267 267 269 271 271 272 273 270 266 266 266 264 265 264 263 260 260 259 257 260 259
297 296 296 297 299 300 300 298 296 291 286 281 280 274 270 274 276 281 283 283 284 286 286 284 283 285 278 276 277 278 275 273 269 267 262 267 270 269 267 267 265 263 262 262 261 261 259 261 262 260 257 258 260 257
296 295 293 295 295 294 294 292 290 288 282 279 274 272 276 275 277 280 281 282 285 285 285 282 278 274 273 276 275 272 270 267 264 260 264 268 266 266 266 268 265 264 263 261 259 261 261 259 260 259 258 258 256 256
295 291 294 295 294 293 292 286 284 281 278 275 270 273 270 270 275 278 280 280 284 285 278 276 272 273 277 270 269 269 266 263 262 265 266 266 267 266 264 263 264 265 264 262 261 261 260 259 260 264 263 261 264 262
291 294 294 293 291 291 287 285 281 279 274 274 272 272 275 272 276 277 277 279 282 279 277 274 277 268 265 268 264 263 263 263 264 267 264 262 263 264 267 265 265 266 265 263 264 263 263 264 267 267 267 267 266 266
292 294 295 294 292 286 282 280 281 274 273 273 274 274 272 271 276 277 277 278 278 277 276 271 266 263 263 261 260 261 265 265 268 266 264 263 266 267 266 267 267 265 266 266 270 268 268 270 268 267 268 269 266 266
294 294 295 295 291 282 280 278 281 277 272 274 273 273 272 271 273 274 276 277 277 275 270 266 263 266 263 264 264 269 269 271 271 269 266 267 266 268 266 268 267 269 271 271 268 267 267 266 265 264 263 263 260 259
292 291 294 291 285 282 279 278 277 277 277 273 274 274 272 274 271 270 271 275 271 269 265 265 272 272 269 270 272 272 271 272 267 267 268 267 267 268 268 267 269 267 266 263 262 261 262 261 262 262 255 252 251 251
290 293 287 288 283 281 279 279 278 278 277 277 276 275 269 266 265 268 272 269 266 266 266 271 273 272 271 270 270 272 271 272 270 269 268 269 268 267 264 263 266 261 261 260 261 258 258 260 259 257 253 252 254 255
292 289 284 282 277 274 274 281 274 277 270 273 274 270 266 265 268 274 266 267 265 269 269 272 272 274 273 273 273 274 274 273 270 269 266 265 264 260 263 261 260 260 259 260 261 259 256 257 255 251 251 252 250 250
285 280 278 277 278 273 277 272 278 276 275 272 269 266 266 265 270 265 262 265 266 271 272 272 272 271 272 271 269 269 269 269 266 264 265 267 264 263 263 262 261 260 260 263 261 256 255 250 251 253 248 249 247 248
277 272 274 271 274 273 271 268 267 268 265 265 264 263 265 269 261 259 262 263 266 267 266 268 270 270 265 263 266 266 268 270 268 265 261 265 263 263 262 262 260 261 260 255 254 252 252 248 247 248 250 247 251 250
268 268 269 269 269 269 269 265 262 263 262 261 262 267 266 261 259 259 264 262 265 263 263 266 265 267 266 268 266 265 265 268 268 263 264 265 264 260 257 256 257 257 257 252 251 250 251 251 252 253 253 253 251 248
262 263 271 273 272 272 266 266 269 264 260 261 262 261 259 258 257 262 264 263 265 260 266 267 269 268 267 265 265 265 265 265 265 264 263 263 262 261 259 256 257 259 256 253 250 250 250 249 248 248 248 246 247 248
265 265 265 262 262 265 258 257 256 258 261 267 265 257 258 259 260 263 265 268 268 268 266 266 267 267 265 263 263 262 261 261 261 261 261 261 258 255 254 253 257 259 250 248 248 246 247 248 248 247 246 247 247 248
261 261 264 258 259 260 260 258 258 264 267 263 257 256 260 264 262 262 269 268 267 267 264 262 258 259 259 258 256 255 257 259 257 254 251 251 251 256 251 249 248 247 246 249 254 254 251 251 249 247 247 246 247 245
261 261 259 255 255 257 258 259 258 260 264 262 263 265 263 262 266 268 267 263 263 261 259 261 257 260 259 259 255 255 249 248 252 257 254 253 256 253 250 249 248 245 244 246 247 249 255 248 250 246 245 245 243 243
263 258 258 258 257 258 259 258 259 260 256 255 253 256 257 261 266 267 265 265 264 263 261 257 253 251 258 256 254 254 255 253 249 250 252 254 253 250 247 246 244 243 243 244 244 244 245 244 243 243 244 245 246 243
255 253 257 255 258 259 258 254 255 257 257 258 256 251 254 256 255 260 263 264 264 261 258 259 259 255 252 251 251 252 256 255 251 253 255 252 247 245 245 245 242 243 243 243 243 243 244 245 244 243 243 244 244 243
252 252 252 256 258 256 256 257 256 257 257 257 257 251 249 253 256 257 261 261 261 262 259 253 254 256 256 256 256 256 255 252 252 257 253 252 249 248 243 241 242 243 244 243 242 242 244 244 244 243 243 243 244 245

GFSWCAN_sfc_thetae_087.txt.gz
Theta_e
296 296 295 296 296 296 297 297 297 297 297 297 298 298 299 299 300 296 293 294 289 282 283 286 287 284 283 283 279 283 283 284 284 281 281 280 279 281 281 283 282 281 280 279 280 278 275 287 291 285 288 287 287 285
295 295 296 295 296 296 297 296 296 296 297 297 298 299 299 299 300 298 291 294 294 287 284 288 290 290 288 288 285 285 284 285 286 281 283 284 280 282 280 278 285 281 282 279 283 282 285 286 284 286 287 286 286 285
294 294 295 296 296 296 296 296 296 297 297 298 298 298 299 299 300 298 292 293 290 287 286 284 284 289 291 291 293 283 287 290 288 290 285 285 281 285 281 278 280 280 283 282 281 282 282 283 285 284 284 282 283 284
294 294 295 295 296 296 295 295 296 297 298 298 298 299 300 300 300 298 292 293 291 285 279 281 288 287 290 291 291 291 289 293 292 290 284 285 281 288 282 280 278 279 281 279 282 283 283 281 282 282 282 282 281 281
293 294 295 296 296 295 295 295 296 297 297 297 299 300 301 301 301 298 295 294 293 286 279 281 286 288 290 289 288 289 289 288 287 284 284 284 287 287 285 281 276 280 278 278 277 282 280 278 281 281 279 279 280 279
294 294 295 295 295 295 295 295 296 297 297 298 299 300 301 302 301 295 286 294 295 293 285 277 286 286 289 289 288 287 288 288 288 286 286 288 291 288 281 277 279 281 283 282 282 282 280 280 280 280 278 277 277 276
294 295 295 295 295 295 295 296 297 297 297 298 300 301 301 301 298 291 288 291 296 294 286 279 280 286 290 289 288 288 289 289 289 287 287 287 286 285 280 275 278 280 283 282 284 283 279 280 277 279 278 277 277 275
294 295 295 294 294 295 296 296 296 297 298 299 300 301 301 301 298 293 296 297 296 290 287 280 279 282 291 286 285 289 285 288 289 288 288 287 284 282 275 277 278 278 281 281 280 281 280 280 279 278 278 277 275 274
294 294 294 294 294 295 296 296 297 298 298 299 300 300 297 294 290 293 298 297 297 290 282 281 278 277 290 288 289 288 289 283 287 286 286 285 278 273 276 277 276 276 276 277 279 278 278 276 276 277 277 275 274 273
294 293 293 294 294 295 296 297 297 298 299 300 297 290 284 290 299 297 291 286 287 287 288 280 282 279 287 286 284 284 287 284 280 285 283 278 273 276 276 276 276 276 276 279 278 276 276 275 274 274 274 274 273 272
293 293 293 293 294 296 296 297 298 299 300 294 287 286 293 299 291 286 283 283 284 281 284 285 281 281 290 284 283 284 284 284 280 283 283 277 272 275 276 275 275 276 276 276 276 276 276 276 274 273 272 272 271 270
293 293 294 295 296 296 297 298 299 297 294 292 293 295 293 288 285 282 280 282 281 279 282 281 283 285 288 290 285 286 283 284 279 284 279 274 274 276 275 274 274 275 275 274 275 274 274 274 273 272 271 270 268 267
294 295 295 295 297 297 298 299 299 298 298 296 289 285 285 284 279 276 272 278 277 280 280 284 283 285 288 288 285 285 281 281 283 277 276 272 275 275 274 274 274 274 273 272 272 272 271 270 270 269 267 266 266 264
294 295 296 297 298 298 299 300 300 298 294 286 284 278 279 277 277 275 277 279 281 281 283 285 285 285 285 284 284 280 280 282 276 274 274 272 273 273 273 273 271 268 268 268 267 267 266 265 263 263 262 263 264 263
295 297 299 298 298 299 300 300 299 294 286 283 281 274 273 275 276 280 280 283 284 286 286 286 285 285 282 280 280 279 278 276 277 275 271 272 272 271 269 268 267 266 265 265 265 265 264 264 264 263 262 264 263 262
295 295 294 299 300 300 300 299 290 288 283 280 276 271 274 276 279 281 281 283 285 286 286 285 281 280 279 278 277 277 275 273 273 269 268 270 268 268 268 268 266 266 266 265 265 266 265 265 265 265 264 263 262 263
294 290 294 295 296 295 294 287 285 282 279 275 269 267 270 271 275 278 281 282 284 285 282 279 275 277 278 273 273 273 272 270 267 268 270 269 269 268 267 267 267 268 267 267 267 267 266 265 265 268 268 267 268 266
290 293 294 294 292 289 286 285 282 279 273 273 271 270 273 272 276 278 278 280 283 282 280 278 279 275 273 273 272 269 268 267 269 270 269 268 268 267 269 268 268 269 268 267 268 267 267 267 269 270 269 269 268 268
292 294 295 294 291 286 282 282 282 274 273 273 275 275 274 274 277 277 278 280 280 280 278 275 272 272 271 269 268 266 269 270 269 269 268 268 269 269 269 269 269 269 269 269 270 271 271 271 271 271 271 271 270 270
294 294 293 292 291 282 280 279 283 278 274 276 277 276 275 275 275 275 276 277 277 276 273 271 270 270 269 269 269 272 271 272 272 270 269 270 270 270 270 271 271 271 272 272 271 270 270 269 269 269 269 268 269 268
292 292 293 290 285 283 281 279 278 278 277 275 275 276 274 275 272 272 273 275 273 270 269 269 272 271 270 271 274 274 273 274 272 272 271 269 271 272 272 272 273 273 271 270 270 268 267 269 268 267 267 266 264 264
290 292 286 286 282 281 280 280 278 278 277 277 276 275 272 270 269 271 273 270 269 269 270 273 273 272 272 272 273 274 273 272 272 271 270 271 270 270 271 271 271 269 269 268 269 268 267 267 266 266 266 265 262 265
291 288 284 282 276 273 274 281 275 277 271 273 274 270 268 268 270 274 268 269 268 271 272 274 273 274 273 273 274 274 274 273 272 271 271 270 269 268 268 268 268 267 267 267 267 267 266 260 262 264 262 263 263 264
286 280 278 276 274 269 275 271 278 276 275 272 270 266 267 267 271 267 266 267 269 272 273 273 273 272 273 272 271 271 271 271 268 267 269 269 267 266 267 267 266 266 267 267 267 265 264 263 257 263 261 262 261 261
276 273 276 270 273 268 268 269 268 269 265 265 265 264 266 270 265 263 266 266 268 270 270 272 272 272 269 267 268 269 270 272 270 268 267 268 266 266 266 265 265 265 265 265 264 264 262 259 259 260 261 260 261 261
270 270 273 273 272 269 269 265 262 263 264 262 264 268 267 264 262 263 266 265 267 267 268 269 269 269 269 270 269 269 269 270 270 267 266 268 268 267 265 265 265 265 263 263 262 262 261 259 260 260 261 260 256 257
268 268 272 272 272 272 265 265 268 265 261 263 265 266 263 260 261 264 266 266 268 266 269 271 272 271 269 267 267 266 267 267 267 266 265 265 264 265 265 264 263 265 262 261 261 262 262 260 259 259 259 258 258 257
267 267 265 263 263 265 259 258 257 258 261 267 265 258 262 262 262 266 267 268 267 268 267 266 267 269 268 266 264 263 263 263 262 263 264 263 261 260 260 261 262 261 259 258 259 258 259 260 260 259 258 258 258 257
261 262 265 259 260 260 260 258 259 264 266 264 259 259 261 264 264 263 268 268 268 268 265 263 260 261 261 260 259 261 264 264 263 260 259 260 260 261 258 259 259 258 257 260 256 258 258 259 258 258 257 257 257 253
261 261 259 255 255 258 259 261 260 261 264 263 265 265 264 264 266 268 268 267 266 265 262 263 261 263 262 262 260 260 256 256 259 262 262 261 262 260 259 259 259 256 255 259 259 260 258 257 258 256 256 256 256 256
262 259 258 258 257 259 260 260 260 261 257 257 255 258 260 262 266 266 265 265 263 263 263 259 258 259 261 260 261 261 261 258 255 257 258 258 259 259 258 256 254 254 255 256 256 257 256 256 255 255 256 255 254 252
255 253 256 255 258 261 259 255 256 258 260 260 259 254 256 259 259 262 263 265 265 263 261 262 261 260 257 257 257 258 259 257 258 259 259 258 257 256 255 254 252 253 254 254 254 254 253 254 254 254 254 253 253 252
252 252 252 255 257 256 256 257 257 259 258 258 259 253 252 256 259 261 263 262 265 265 262 259 258 258 257 258 259 258 257 257 258 260 258 257 255 255 253 252 252 253 254 254 254 253 254 253 254 253 253 251 251 251

GFSWCAN_sfc_thetae_090.txt.gz
Theta_e
297 296 296 297 297 297 297 298 298 299 298 298 298 298 298 299 299 299 295 297 292 285 289 290 290 287 287 286 283 286 287 288 287 284 283 283 283 285 284 286 284 283 282 283 282 280 277 286 291 285 285 287 287 285
297 297 297 296 297 297 296 297 298 298 298 297 297 298 298 299 300 300 293 297 295 288 289 294 294 295 292 291 288 289 287 287 288 285 285 285 284 287 284 282 288 283 282 282 281 279 284 285 284 286 286 284 285 285
296 296 296 296 296 296 296 297 297 297 297 297 298 298 299 299 300 300 296 294 291 287 287 290 290 294 295 295 296 286 291 291 289 293 287 286 282 288 284 282 283 284 286 285 284 283 282 284 285 285 285 283 284 284
296 295 295 296 296 296 297 297 297 297 297 298 298 298 299 299 300 299 295 296 293 291 285 288 293 292 295 296 295 295 292 293 292 290 288 287 284 289 285 284 283 282 283 281 282 284 284 282 282 283 283 283 281 281
295 295 295 295 296 296 296 296 296 296 297 298 298 298 299 300 300 301 298 296 298 291 286 288 293 293 295 295 293 294 293 291 290 288 288 286 290 288 287 287 281 282 280 280 280 283 282 280 281 282 279 279 280 279
295 295 294 295 296 296 296 296 296 296 297 297 298 299 300 300 299 297 287 296 297 295 289 284 293 291 294 294 293 292 293 292 291 289 289 291 293 288 284 281 281 283 284 284 282 283 282 281 281 281 279 278 278 278
295 294 294 295 296 296 295 295 296 297 297 297 298 299 301 301 299 292 292 298 298 298 288 283 287 292 294 293 294 293 293 294 292 290 288 289 288 288 284 280 280 282 283 284 285 284 280 281 278 280 279 279 279 278
294 294 295 296 296 295 296 296 296 297 297 298 299 300 301 301 299 294 300 298 298 292 289 281 285 288 294 290 290 295 291 291 291 289 290 288 287 285 277 278 279 281 282 281 282 283 281 281 281 280 280 280 278 277
294 294 295 295 296 296 296 296 296 296 297 298 299 300 298 294 290 294 298 298 299 293 286 283 282 283 292 290 293 291 292 285 293 287 287 287 284 279 278 278 278 279 279 280 281 281 281 280 279 279 279 279 277 276
294 295 295 295 295 295 296 296 296 297 298 299 297 291 285 292 299 297 292 288 288 290 288 284 290 286 291 288 288 288 289 285 281 287 289 286 278 279 279 279 279 279 280 282 280 278 278 278 278 277 277 277 277 275
294 294 294 294 294 295 295 295 296 297 298 294 288 287 294 298 292 288 285 284 285 282 286 286 288 287 293 286 287 288 286 287 281 285 284 283 279 278 279 278 279 279 280 280 280 280 280 279 277 276 275 275 275 274
294 294 294 294 294 294 295 296 297 296 295 292 294 296 295 290 288 284 282 284 283 282 287 285 285 289 289 291 288 287 283 286 281 287 284 281 277 278 278 277 278 278 278 278 279 278 278 277 277 276 275 273 272 270
294 294 293 293 294 294 295 296 297 298 298 296 292 286 287 286 281 280 276 280 282 286 287 287 284 289 289 291 288 286 283 284 288 283 283 279 278 278 278 277 277 277 277 276 276 276 276 274 274 273 270 270 270 268
293 293 294 294 295 296 297 297 298 298 296 287 286 281 282 280 283 284 285 287 289 289 288 287 287 288 290 284 287 282 285 286 280 279 280 278 277 277 277 277 276 274 274 273 272 272 270 269 268 268 269 269 268 267
294 294 294 295 295 296 297 298 299 293 289 287 287 281 281 286 285 285 286 286 286 291 290 288 288 289 285 284 285 283 280 278 280 282 280 279 278 276 274 274 272 270 270 271 271 270 269 269 268 268 268 269 268 267
294 293 293 295 295 297 298 298 292 289 287 283 281 281 281 283 283 284 285 284 289 289 292 292 285 283 283 285 280 280 280 279 282 280 279 277 274 274 273 273 272 272 272 271 271 271 270 270 270 270 269 269 268 268
295 291 295 298 298 298 297 288 286 284 283 279 280 281 283 285 285 284 286 286 287 288 286 288 282 282 282 281 279 282 282 280 277 277 279 278 274 273 272 271 271 271 272 272 272 272 271 271 270 272 272 271 272 270
290 294 299 299 298 290 286 287 284 281 277 280 280 281 281 282 284 283 284 287 287 287 286 284 286 281 281 279 281 279 276 276 278 277 277 275 274 273 273 273 273 273 273 273 273 272 272 273 274 275 273 273 273 272
292 293 295 295 293 287 284 283 285 277 278 280 280 281 282 281 281 283 284 285 285 285 285 283 281 282 283 281 279 277 276 277 274 275 274 274 274 273 274 274 274 274 274 274 275 276 276 275 275 276 275 275 274 275
294 293 293 293 292 285 281 281 286 280 279 280 281 280 280 281 282 282 283 283 283 282 281 280 282 280 280 279 278 278 278 278 276 274 274 275 276 275 275 276 277 276 276 276 276 275 275 275 275 275 274 273 273 274
292 291 292 291 288 287 284 282 280 281 280 279 280 281 279 281 281 281 281 281 281 279 279 279 279 277 276 277 279 279 278 279 278 278 276 275 277 278 277 277 277 277 277 277 276 275 273 275 275 274 274 274 273 273
291 292 291 290 285 284 282 284 281 282 281 280 280 280 279 279 279 280 279 280 279 278 279 279 277 276 276 276 278 280 279 278 278 278 277 277 276 277 277 277 277 276 277 276 276 275 275 275 274 273 273 273 269 272
292 291 288 286 281 281 279 286 280 280 277 277 279 276 277 278 278 278 278 277 277 277 278 278 277 278 277 277 278 278 278 278 278 278 277 278 278 278 278 277 278 276 275 274 275 275 274 268 269 272 272 271 272 271
288 283 280 280 280 277 282 279 281 279 279 277 276 273 274 277 277 277 276 276 276 277 276 276 277 276 277 277 277 277 277 279 278 278 278 277 275 275 276 275 275 276 276 275 274 274 273 272 265 271 270 269 270 268
280 276 279 275 279 277 276 276 276 276 274 275 273 273 274 276 275 274 275 275 274 276 276 277 278 278 278 278 277 276 276 278 277 275 276 277 275 273 273 273 273 273 274 273 272 272 272 270 269 269 268 268 267 267
273 273 275 276 277 276 276 273 274 274 274 273 274 275 277 275 272 274 274 275 275 276 276 277 278 277 276 277 276 275 275 278 277 275 274 275 275 275 273 271 271 271 272 273 272 271 269 268 267 265 267 265 262 263
272 272 274 275 277 277 275 276 276 276 273 273 274 272 273 272 274 272 273 274 276 278 280 280 280 279 277 275 275 275 275 275 275 274 274 273 272 273 275 273 271 272 270 269 270 269 268 267 266 266 266 267 266 265
271 272 272 270 270 271 269 270 271 270 271 273 275 272 272 271 271 271 273 274 276 277 275 276 278 278 277 275 273 272 270 269 269 270 270 269 269 269 269 269 268 266 267 268 268 267 267 267 267 266 265 264 264 265
269 270 271 264 266 267 266 267 268 270 270 272 271 268 267 269 269 270 272 274 275 275 273 271 270 271 270 270 272 272 272 272 270 267 268 268 268 267 268 268 267 266 267 267 263 264 264 265 265 265 263 264 264 263
267 270 266 264 263 265 266 268 268 269 269 270 271 269 269 269 270 272 273 273 274 275 274 273 271 272 270 270 267 266 268 269 270 271 270 269 270 268 266 266 266 265 266 267 266 265 262 264 263 264 263 264 264 263
269 270 267 267 265 268 268 268 269 269 269 269 268 270 268 269 270 270 270 271 270 270 270 270 270 271 270 269 270 268 267 267 264 265 267 267 267 267 266 265 264 265 265 265 265 265 264 264 264 262 262 261 260 260
268 266 265 264 265 268 269 270 270 269 269 270 268 268 267 270 268 269 268 271 271 271 269 271 269 268 269 269 268 268 267 266 265 265 266 266 266 264 263 263 262 264 264 263 263 263 260 260 261 261 261 260 259 258
265 266 266 266 266 266 267 268 267 267 269 268 267 266 266 268 266 267 268 268 271 271 270 269 267 266 266 266 266 265 265 265 264 264 263 262 262 262 262 262 262 262 261 263 263 262 260 260 260 259 259 258 257 257

GFSWCAN_sfc_thetae_093.txt.gz
Theta_e
299 299 299 298 298 298 298 297 298 299 299 298 299 299 299 299 299 301 298 300 295 291 292 293 293 290 290 289 286 289 290 290 289 285 284 285 284 286 286 287 285 284 283 284 284 282 279 287 291 283 283 287 287 285
298 298 298 298 298 298 298 298 298 299 299 299 299 299 299 299 299 300 294 300 298 290 292 297 297 297 295 294 291 291 288 289 290 286 286 287 286 288 286 282 290 284 284 282 282 280 285 286 285 286 287 285 285 285
298 298 297 297 297 297 297 298 298 298 299 298 298 298 298 299 300 300 298 296 293 289 290 293 293 296 297 297 299 289 293 293 291 292 287 288 285 290 283 283 285 286 289 285 284 283 283 284 286 285 285 283 284 284
297 297 297 297 296 297 297 297 297 298 298 297 298 298 299 299 300 299 297 298 297 291 286 291 297 295 298 298 297 297 295 296 295 294 289 289 286 291 286 287 284 283 286 284 283 284 284 282 283 283 283 283 282 282
297 297 296 297 297 296 296 297 297 297 297 297 298 299 299 299 300 301 301 301 298 291 286 289 296 296 298 298 296 297 295 294 292 288 287 287 290 289 291 290 282 284 280 281 280 284 282 280 282 283 281 280 282 281
296 296 296 296 296 297 296 297 297 296 297 297 298 298 299 299 300 298 288 300 300 297 289 284 295 294 296 298 296 294 295 295 292 289 288 291 294 291 285 282 281 284 284 286 283 284 283 282 282 282 280 280 280 280
296 296 296 296 296 296 297 297 296 296 297 298 298 298 299 300 299 293 293 297 300 298 291 285 289 294 295 296 296 295 295 295 293 291 290 290 290 291 286 282 281 283 284 285 287 286 282 282 280 281 281 281 281 280
295 295 295 296 296 296 297 297 296 296 297 297 298 299 300 301 298 293 300 300 300 294 294 282 286 290 296 290 289 297 293 291 291 291 293 289 290 287 280 280 282 283 283 283 284 284 283 283 282 282 282 282 279 278
295 295 295 295 296 297 296 296 296 297 297 297 298 299 297 295 291 295 299 299 301 294 286 285 283 285 296 291 293 294 294 286 295 289 290 291 287 280 280 281 280 281 282 281 283 284 284 283 282 282 282 281 279 278
295 295 295 295 296 296 296 297 297 297 297 298 297 290 285 291 299 297 293 289 290 290 291 286 292 288 293 291 290 290 292 287 284 288 294 287 280 281 281 281 282 282 283 284 281 280 281 280 280 279 279 280 279 278
294 294 295 295 296 296 296 296 296 297 297 293 287 287 294 298 294 291 285 285 285 283 288 287 290 287 296 287 286 293 287 289 282 287 286 285 280 280 282 281 282 283 284 284 284 283 283 281 279 278 278 278 277 276
294 294 295 295 295 295 295 295 296 296 294 293 293 296 293 289 289 285 284 286 284 284 290 286 287 290 294 296 289 289 285 288 282 291 285 282 279 281 281 281 281 282 282 282 282 281 281 280 280 279 277 275 273 271
294 295 295 295 295 295 295 295 296 296 297 296 292 287 287 287 283 281 278 281 284 289 291 289 285 290 292 292 288 288 282 284 292 284 284 281 281 281 281 280 280 281 280 280 279 280 279 278 277 275 272 271 271 270
294 295 295 295 295 295 295 296 297 296 294 288 286 282 283 282 284 286 288 290 293 292 291 289 288 289 291 287 287 282 287 287 282 280 282 281 280 280 280 280 279 277 277 277 276 275 273 272 271 271 271 271 270 269
294 294 294 294 295 295 296 297 297 295 290 287 288 282 283 289 288 287 289 289 291 294 291 288 291 290 288 285 287 285 282 280 282 283 283 281 280 279 278 278 276 275 274 274 274 272 271 271 271 270 271 272 270 270
294 294 293 295 295 295 296 296 293 290 290 288 286 283 285 285 285 286 286 286 291 293 293 292 286 285 284 286 282 281 281 281 283 282 282 280 278 278 277 276 275 275 275 275 274 273 273 272 272 272 272 271 271 271
294 291 295 295 296 296 296 288 286 286 287 284 283 283 286 286 287 287 288 289 292 290 287 289 282 283 288 282 281 287 283 282 281 280 281 280 278 277 276 275 274 275 275 275 275 274 273 274 273 273 273 273 273 273
290 293 294 296 296 292 286 287 287 285 280 284 284 283 284 284 285 285 286 289 289 289 289 286 290 284 283 282 285 284 281 282 282 281 279 279 277 276 276 276 275 276 276 275 274 274 274 274 276 277 276 275 275 275
294 297 297 297 293 288 285 285 287 281 281 282 283 284 285 284 285 286 286 288 289 289 292 289 285 285 287 287 284 283 282 281 278 278 278 278 277 277 277 277 277 277 276 276 276 277 278 277 278 278 278 277 277 277
297 298 295 296 294 288 283 283 289 284 281 282 284 283 284 284 284 285 286 286 288 288 287 285 286 285 285 283 285 284 283 282 279 277 276 277 278 278 278 278 278 278 278 278 278 278 278 277 278 277 276 275 275 276
291 290 293 294 289 288 286 285 284 285 282 282 283 284 282 283 283 284 284 287 285 287 287 287 284 281 281 283 285 284 282 282 282 282 279 277 279 280 279 280 279 280 279 279 279 277 276 278 278 277 277 276 276 275
291 292 291 291 287 285 284 288 285 285 284 282 282 284 281 282 282 283 286 284 285 285 286 285 283 280 280 280 282 283 283 283 283 282 282 280 279 279 279 279 279 278 279 279 279 278 278 278 277 276 275 276 273 274
292 292 289 286 283 283 280 288 282 283 279 279 282 280 281 281 283 284 282 285 283 283 283 283 281 282 281 281 282 281 282 282 281 281 281 281 281 281 280 279 280 279 278 278 279 278 278 272 273 273 275 274 274 273
291 286 284 283 282 278 283 281 283 281 281 280 279 277 279 281 282 281 281 283 282 281 281 279 281 280 280 280 280 280 281 283 282 281 282 280 279 279 280 279 279 280 280 279 278 277 276 276 271 273 273 272 272 271
283 279 282 278 283 280 278 279 279 279 277 279 278 277 278 281 279 280 280 281 279 279 279 281 282 282 281 281 280 280 282 282 281 279 280 281 280 278 277 277 277 277 278 277 275 275 275 274 273 272 271 271 270 269
277 277 279 279 279 280 280 277 277 278 278 278 278 280 281 280 277 278 280 280 279 279 279 280 282 281 281 281 279 279 280 283 282 279 279 279 279 278 276 275 274 274 277 277 276 274 273 272 270 268 269 269 266 266
276 275 278 280 281 281 279 280 281 280 277 276 278 278 278 276 278 277 277 279 280 281 282 283 283 281 281 280 280 280 281 281 281 278 278 277 277 278 278 276 274 275 275 274 274 273 271 271 270 269 269 270 269 268
276 277 274 276 277 279 275 277 277 276 277 280 280 276 276 277 276 274 276 278 281 282 282 283 283 283 280 279 279 277 276 275 274 275 274 274 274 274 273 273 272 271 272 272 272 271 271 270 270 269 268 267 267 268
274 276 275 268 272 273 273 274 274 275 275 277 278 275 273 272 273 274 275 278 279 278 277 276 277 278 277 278 278 278 277 277 274 271 271 271 270 270 273 272 271 272 272 270 266 268 266 268 268 267 267 267 267 267
272 276 272 269 269 270 271 273 273 273 274 274 275 273 272 272 273 276 276 277 278 278 278 277 276 276 275 274 273 273 275 275 276 275 273 272 273 271 271 270 270 269 271 271 270 269 265 267 267 267 267 267 267 267
274 275 272 272 270 271 271 272 273 273 274 273 275 275 272 272 273 274 275 276 278 277 277 276 276 277 275 274 273 272 270 271 270 271 273 273 271 271 271 269 269 269 269 269 268 268 267 266 267 266 266 265 264 263
274 271 271 268 269 271 273 274 274 273 273 273 272 273 272 273 271 272 272 276 276 276 276 276 275 275 276 275 273 273 272 270 270 270 271 271 270 269 268 267 267 268 267 267 267 266 265 264 265 264 264 263 262 261
271 272 272 270 269 270 271 272 271 270 273 272 272 273 273 273 269 271 272 273 276 276 276 274 273 273 272 271 271 270 270 269 268 268 267 267 266 267 267 267 267 266 265 266 266 265 264 263 263 262 262 261 260 260

GFSWCAN_sfc_thetae_096.txt.gz
Theta_e
301 300 300 300 299 299 299 299 299 299 299 298 298 299 299 299 299 299 298 301 295 290 291 294 294 290 290 289 285 289 290 290 288 284 283 283 284 286 285 286 284 281 281 281 284 280 276 284 287 280 283 286 286 283
300 300 299 299 299 298 298 298 299 298 299 299 299 299 299 299 299 300 296 300 300 292 291 296 296 297 295 294 290 291 289 289 289 284 285 286 284 287 285 280 288 280 283 281 280 279 284 284 283 285 285 283 283 283
299 299 299 298 298 298 298 298 299 298 299 299 299 299 298 299 299 299 298 298 295 289 291 294 294 298 298 297 298 288 292 292 291 293 288 287 284 288 282 282 285 286 288 284 283 282 282 283 285 284 283 282 283 283
299 298 298 298 298 298 298 298 299 299 299 298 298 298 298 298 299 299 296 297 296 292 285 291 298 296 299 299 297 297 294 296 295 294 289 287 286 291 286 286 282 283 286 284 282 283 282 281 282 283 283 283 282 282
298 298 298 298 298 298 298 298 298 298 298 298 298 298 298 299 299 300 302 299 300 292 285 288 295 297 298 298 296 296 295 293 292 289 289 287 290 289 290 288 280 283 279 280 278 283 281 279 282 282 281 280 282 281
297 297 297 297 297 297 298 297 298 297 297 297 298 298 299 299 299 298 288 300 301 298 288 283 296 295 296 297 296 294 295 293 292 289 289 291 294 290 285 281 281 284 285 286 282 283 282 282 281 282 280 280 281 281
297 297 297 297 297 297 297 297 297 297 297 297 298 298 298 300 300 293 291 295 300 299 290 285 287 294 295 295 295 294 295 293 293 290 290 291 290 290 285 280 281 283 285 286 287 284 281 282 279 282 281 281 281 280
297 297 297 297 297 297 297 297 297 296 296 297 298 298 299 299 297 294 301 300 301 294 292 283 284 290 296 291 290 296 292 293 291 290 292 289 290 287 278 281 283 283 283 284 284 285 283 283 283 282 283 281 279 278
296 296 296 296 296 297 297 297 296 296 297 297 298 298 298 295 290 294 300 300 301 294 286 285 282 283 295 292 294 292 293 287 293 289 289 290 287 279 280 281 281 283 283 282 285 285 284 282 282 282 282 280 278 278
296 296 295 296 296 296 297 297 296 297 297 298 298 291 284 291 299 298 294 290 290 292 291 285 290 286 293 291 290 290 291 287 284 289 292 287 279 281 282 283 283 283 285 284 282 281 281 280 280 279 279 279 278 277
295 295 295 296 296 296 296 297 297 297 297 294 288 287 294 299 294 291 285 285 286 283 288 287 289 288 295 288 288 292 287 288 282 286 286 284 280 280 282 282 283 284 285 284 284 284 283 281 279 278 277 277 276 274
295 294 295 295 296 296 296 296 297 296 294 293 293 295 294 289 287 285 283 286 284 283 289 287 287 290 293 295 289 289 284 287 281 290 286 282 280 282 281 281 282 283 283 282 283 281 281 280 280 278 276 274 271 270
295 295 295 296 296 296 296 296 296 297 297 295 291 286 286 287 281 280 278 281 284 290 292 290 286 290 292 293 288 287 281 282 290 285 283 280 281 282 281 281 280 281 281 281 280 280 278 276 276 274 271 270 270 269
295 295 296 296 296 296 296 296 296 296 291 286 285 282 283 281 283 286 288 290 294 294 291 290 288 288 291 287 287 281 286 286 281 280 281 281 281 282 282 281 280 278 278 277 275 274 273 271 270 270 270 270 268 267
295 295 295 295 296 296 295 296 297 295 287 285 285 282 283 289 288 287 289 290 293 294 292 290 290 290 287 285 286 285 282 280 282 282 282 282 281 280 279 278 277 275 275 274 273 272 271 271 270 270 270 271 270 268
294 294 293 295 295 295 296 296 293 290 287 286 286 285 287 286 285 286 287 287 293 293 294 292 287 285 284 285 283 281 281 280 282 281 281 281 279 279 278 277 276 276 276 275 273 273 272 270 271 272 272 271 269 270
294 291 295 295 295 295 295 290 287 285 286 286 284 285 286 287 286 286 288 290 294 292 286 288 282 282 287 282 281 286 283 282 281 281 281 280 279 277 276 276 276 276 276 275 275 274 274 274 273 273 272 272 272 273
291 294 295 295 295 291 288 288 286 286 283 285 284 284 286 286 286 286 288 291 291 289 288 286 290 284 283 282 284 284 282 282 283 281 280 279 278 277 277 276 277 277 276 275 275 274 274 273 274 276 276 276 275 275
293 295 295 295 293 290 286 286 287 283 283 284 284 285 286 286 288 289 288 289 291 293 290 289 284 284 287 286 284 283 282 281 279 279 278 278 278 277 277 278 278 277 276 275 276 276 277 278 278 278 277 277 276 277
294 294 295 295 294 289 284 285 291 285 282 283 286 284 285 285 286 286 287 287 288 288 286 286 286 285 285 284 287 286 284 283 279 276 276 277 278 278 278 278 278 278 277 278 279 279 278 277 277 277 276 274 274 275
292 292 295 294 290 288 287 286 286 285 284 284 285 285 282 283 283 283 284 287 285 286 286 288 284 282 284 285 287 286 283 282 281 280 277 276 278 279 279 280 279 279 279 278 278 277 276 278 278 277 276 276 276 275
288 292 287 291 287 286 286 289 286 287 284 283 283 285 282 281 281 283 287 284 285 287 287 287 285 281 282 282 283 284 284 284 284 283 281 280 279 279 279 280 279 279 280 280 280 279 278 278 277 276 275 275 273 275
294 292 289 287 283 283 281 289 283 284 280 280 283 281 281 282 284 286 282 285 286 287 286 285 283 284 283 283 284 284 284 283 282 281 281 282 282 282 281 281 281 280 279 279 279 278 277 271 271 273 275 274 274 274
292 286 284 283 283 279 284 282 284 282 282 280 280 279 280 281 283 281 281 284 283 284 283 282 283 281 281 281 280 281 283 284 282 282 283 282 280 280 280 280 281 281 280 279 278 277 276 276 271 273 274 273 272 272
284 280 283 280 283 281 279 279 280 280 279 280 280 279 280 282 279 279 280 282 282 281 281 282 282 282 280 282 282 282 284 283 281 280 282 282 281 280 279 278 278 277 278 277 275 276 275 275 274 273 272 271 270 270
278 278 280 281 281 281 280 278 279 279 280 279 280 282 282 280 278 278 281 281 281 281 281 282 283 282 282 282 280 280 282 284 282 280 280 281 280 279 277 275 274 274 277 277 276 275 274 273 271 270 269 269 264 266
277 277 279 283 283 283 281 283 284 281 278 278 279 278 279 276 278 277 279 280 281 282 283 284 285 284 282 281 282 282 283 283 282 280 279 278 278 279 279 277 275 275 276 275 274 273 272 271 270 269 269 270 270 269
277 279 276 278 279 281 279 280 279 279 280 282 281 277 278 278 275 276 277 280 283 283 284 285 285 285 282 280 279 279 277 277 276 276 276 275 275 275 273 272 271 272 272 272 271 271 271 270 270 269 269 268 267 268
276 278 277 273 276 277 277 277 277 276 276 279 280 277 274 273 275 276 277 280 282 282 280 279 279 280 279 279 279 278 278 276 274 271 271 270 270 271 273 272 272 272 271 269 267 269 268 268 267 267 267 267 267 268
274 278 275 272 272 273 273 274 274 275 276 277 276 274 273 273 274 277 278 279 279 279 279 278 278 278 276 276 275 276 278 278 278 277 274 272 272 272 272 271 270 271 272 271 270 268 266 267 269 267 266 267 267 266
277 278 275 275 272 273 273 274 275 276 276 276 278 276 272 272 274 276 277 279 281 280 277 276 277 277 276 275 274 272 270 272 273 274 273 272 272 272 271 271 270 270 270 269 268 268 266 266 267 266 266 265 264 263
276 274 273 271 270 272 274 275 275 275 274 274 273 273 273 274 271 273 274 276 278 277 278 278 277 276 277 276 275 275 272 272 272 272 272 272 270 269 269 268 269 269 268 267 267 266 265 265 264 264 263 263 262 261
274 275 274 272 270 271 273 274 273 272 274 273 273 274 276 274 269 271 275 276 278 278 277 276 275 275 274 273 272 272 271 270 269 269 269 268 268 268 268 268 268 267 267 267 266 266 264 263 263 262 262 261 260 259

GFSWCAN_sfc_thetae_099.txt.gz
Theta_e
300 300 300 300 299 300 300 300 299 299 300 300 300 299 299 299 300 296 293 296 292 286 286 290 292 285 285 284 277 283 284 285 282 279 279 280 281 283 283 283 282 278 278 276 278 275 272 282 282 277 282 283 282 281
300 300 300 300 299 299 299 299 299 299 299 299 299 299 299 299 299 299 293 296 296 286 285 291 291 293 291 290 285 285 288 285 284 280 281 282 282 283 283 277 286 278 283 278 278 276 282 282 281 282 282 281 281 281
300 300 299 299 299 299 299 299 299 299 299 299 299 299 299 299 299 297 295 294 292 287 285 286 289 295 298 294 293 285 290 289 287 290 284 284 283 284 279 279 281 282 285 279 280 279 279 282 282 282 281 280 282 281
299 299 299 299 298 298 298 298 299 299 299 299 299 299 299 298 299 298 291 295 291 289 279 287 295 293 296 294 293 292 290 291 290 289 285 285 283 287 281 282 278 280 282 281 279 279 280 280 281 281 281 281 280 281
299 299 298 298 298 298 298 298 299 299 299 299 298 298 298 298 299 296 294 295 297 290 282 282 290 294 296 294 293 292 290 288 285 282 282 283 287 285 282 283 278 282 278 277 274 280 278 278 280 282 280 280 281 280
298 298 298 298 298 298 298 298 298 298 298 298 298 298 298 299 299 293 286 294 296 296 285 277 290 292 293 294 293 291 290 290 287 283 283 287 291 284 280 275 281 283 284 285 280 280 279 279 281 281 280 280 281 280
297 298 298 298 298 298 298 298 298 298 298 298 298 299 298 299 294 292 289 294 299 296 286 279 281 291 293 293 291 289 290 287 287 284 284 286 287 285 277 273 280 284 285 284 284 282 279 281 278 281 280 280 280 279
297 297 298 298 298 298 298 298 298 298 298 298 298 298 299 300 297 293 297 299 299 291 289 282 280 285 292 285 284 290 286 286 286 284 287 285 286 282 275 279 281 282 283 283 283 283 281 282 282 281 281 279 277 276
297 297 297 297 297 298 297 297 297 297 297 298 298 299 294 291 289 291 300 299 298 292 283 283 280 279 291 287 287 287 287 277 287 282 284 285 284 275 279 280 281 283 283 283 284 283 282 281 281 280 280 278 276 275
296 296 296 296 296 297 297 297 297 297 298 298 296 289 284 290 299 298 293 288 287 289 289 281 284 279 289 282 281 282 284 280 278 282 287 281 277 281 282 282 283 284 284 284 280 279 279 278 277 277 276 276 274 272
296 296 296 296 296 296 297 297 297 297 297 292 287 286 293 299 293 289 283 283 280 281 284 284 283 278 289 279 279 284 278 280 276 281 282 282 276 278 282 281 283 283 284 283 281 281 279 278 276 275 274 273 272 270
295 295 295 295 296 296 297 297 297 293 291 291 292 294 293 289 285 282 277 279 282 278 283 284 281 285 286 289 280 283 281 279 275 285 281 277 278 279 280 280 280 281 280 280 280 279 278 278 276 274 272 270 269 267
296 295 295 295 296 296 297 297 297 297 297 294 290 285 285 285 279 277 271 277 274 280 283 281 278 286 283 287 279 282 279 278 286 277 277 278 279 279 279 279 278 279 279 277 275 275 274 273 272 270 267 264 264 263
295 295 296 296 296 296 297 297 296 295 289 285 283 279 280 278 280 277 277 278 282 282 282 282 280 280 280 279 283 279 280 283 278 271 277 277 279 278 279 279 276 274 273 272 270 269 267 266 264 263 262 260 260 259
295 295 295 296 296 296 296 297 295 291 286 283 284 278 275 281 285 285 286 285 287 283 282 280 281 281 279 281 282 282 277 276 275 278 279 279 277 276 275 274 272 271 269 268 266 266 264 264 265 262 260 261 261 259
295 295 293 295 296 296 296 294 292 290 285 284 284 283 285 283 283 284 285 285 288 285 283 283 279 276 276 280 279 275 276 272 278 279 280 278 276 274 273 272 271 270 269 268 267 267 267 264 265 264 263 262 260 261
294 290 294 296 295 295 294 288 287 284 284 283 282 284 285 285 284 283 285 285 288 282 282 281 277 277 283 280 279 282 276 280 279 279 279 279 275 272 272 272 272 272 270 269 269 267 265 265 266 267 266 265 267 268
288 293 295 295 293 291 288 287 285 284 280 283 279 283 285 285 285 285 286 287 286 283 283 281 284 279 277 275 276 280 280 280 280 279 278 277 274 272 273 273 273 273 271 270 269 268 267 266 270 270 272 273 272 273
291 293 295 295 291 288 284 284 285 281 281 282 281 283 284 284 285 284 283 286 287 288 285 281 279 279 279 282 282 280 280 278 276 276 276 276 274 274 274 275 275 273 271 270 273 272 272 274 275 275 274 274 270 271
295 295 295 295 294 286 283 284 288 284 278 280 283 282 283 283 283 284 285 284 285 285 283 278 277 281 282 282 283 283 279 278 275 273 273 275 276 276 274 276 275 274 273 274 275 275 276 274 273 273 270 269 266 265
293 293 294 292 289 288 285 284 284 284 283 281 283 283 280 282 281 281 283 285 283 278 277 278 282 275 277 277 284 283 278 278 275 274 273 274 276 277 276 275 276 275 273 272 272 270 270 271 273 272 265 264 264 264
290 293 289 290 285 285 284 286 284 283 282 281 282 283 280 279 280 281 284 282 282 279 278 279 278 275 276 278 279 281 280 280 279 276 275 275 275 275 275 276 274 273 273 274 276 272 268 272 270 269 264 263 265 264
292 289 286 286 281 281 281 287 281 281 276 279 281 279 279 281 282 284 280 282 282 279 280 279 279 281 279 280 281 281 282 281 278 277 276 276 275 274 277 274 276 276 275 273 276 273 268 267 266 263 262 262 262 262
291 285 283 281 280 277 282 280 283 281 280 279 278 277 278 280 281 279 278 278 278 277 278 278 279 278 278 279 277 278 280 280 277 275 277 278 278 277 277 277 277 274 274 275 273 271 269 266 264 263 261 262 261 259
282 280 282 279 280 278 277 276 276 277 271 275 277 277 278 280 276 277 276 276 279 273 274 279 278 278 273 273 274 276 280 279 277 277 277 278 276 275 275 274 272 272 273 271 266 265 264 263 261 261 261 258 258 257
277 278 278 279 278 276 277 273 274 275 278 277 278 279 275 277 276 275 275 278 280 280 280 281 280 279 277 278 276 277 277 280 279 275 276 278 275 272 269 268 266 266 269 267 268 264 266 265 261 260 258 259 258 258
275 276 277 281 281 281 278 279 280 276 275 276 278 274 277 274 273 273 274 275 278 278 281 281 281 280 279 277 277 278 278 278 277 275 274 273 272 271 270 269 268 267 269 268 266 262 261 260 259 259 258 257 257 258
275 277 273 278 276 277 278 278 276 276 275 279 277 274 275 269 268 271 273 274 278 276 277 281 282 281 277 275 274 273 273 273 272 272 271 270 269 267 265 267 269 268 266 265 263 263 261 260 258 258 257 257 256 255
274 277 276 274 275 273 274 274 275 274 274 275 274 271 269 270 272 271 272 277 280 280 277 275 276 276 275 275 275 274 273 272 270 266 261 260 259 262 262 263 266 265 263 263 267 263 262 260 259 258 258 257 256 257
274 278 273 272 269 271 268 270 270 270 272 273 272 271 270 268 267 270 272 274 276 276 275 276 275 274 273 273 273 272 273 272 268 268 265 261 261 266 264 264 262 262 262 263 260 259 265 261 263 258 257 255 254 253
276 276 274 273 270 271 271 269 269 271 271 271 275 268 264 265 267 270 270 270 276 276 275 274 274 274 274 273 270 268 267 269 268 269 269 269 268 267 266 264 261 262 262 262 262 259 258 257 256 254 255 253 252 252
274 274 271 268 268 272 272 271 271 270 268 268 268 265 266 267 263 265 269 272 276 273 272 274 274 274 273 273 272 271 270 269 269 269 268 267 265 265 264 263 263 263 262 259 259 258 256 255 253 253 251 252 251 250
273 273 271 268 266 267 270 271 271 270 272 270 265 266 270 268 262 264 270 272 272 276 273 272 272 271 271 270 269 268 268 268 269 268 267 265 264 265 263 262 260 259 259 260 258 258 257 254 252 252 251 248 247 246

GFSWCAN_sfc_thetae_102.txt.gz
Theta_e
300 300 300 300 299 300 300 300 300 300 300 300 299 299 300 300 300 294 291 293 288 278 283 288 290 284 283 282 276 282 282 283 281 277 278 278 280 283 281 282 281 278 277 275 277 274 272 280 280 276 279 281 280 278
300 300 300 300 300 300 300 300 300 300 300 300 299 300 300 299 300 297 289 294 292 284 283 289 289 290 289 288 284 283 286 283 281 279 280 281 280 281 280 276 285 276 280 276 277 274 280 280 279 281 282 280 280 278
299 300 300 299 299 299 300 299 299 299 299 300 299 299 299 299 299 297 292 291 287 282 282 285 287 292 295 292 291 284 286 287 286 288 283 283 283 283 279 276 278 280 284 277 277 278 279 280 281 281 281 280 280 279
300 300 299 299 299 299 299 299 299 299 299 300 299 299 299 299 299 297 288 290 289 285 277 283 294 290 294 293 291 290 289 289 288 286 283 283 282 286 281 279 275 279 280 279 276 278 279 279 280 280 280 279 279 279
299 299 299 299 299 299 299 299 299 299 299 299 299 298 298 298 299 294 291 291 294 287 278 281 288 292 293 292 291 290 289 286 283 281 280 283 286 285 283 280 276 281 277 275 274 278 277 278 280 280 279 279 279 278
299 298 298 298 298 298 298 299 299 299 299 299 298 298 298 299 298 290 281 291 294 295 282 274 286 288 291 292 291 290 288 286 284 282 281 284 290 283 279 275 280 282 280 283 276 279 278 278 280 280 278 278 279 278
298 298 298 298 298 298 298 298 298 298 298 298 298 298 299 299 294 290 287 294 298 295 284 280 279 289 294 291 288 287 288 285 285 282 282 286 284 282 272 267 280 283 280 280 280 280 277 277 277 280 278 279 279 278
298 298 298 298 298 298 298 298 298 298 298 298 299 299 299 299 295 289 293 298 298 290 287 275 277 282 291 283 283 287 284 284 283 282 283 284 282 276 269 277 279 280 281 282 282 282 279 280 280 279 279 278 276 275
297 297 298 298 297 297 298 298 298 298 298 298 299 298 292 289 285 288 297 299 296 292 282 278 273 275 288 284 285 284 284 275 284 279 282 285 282 273 272 276 276 280 280 279 281 281 281 280 279 278 277 276 274 273
297 297 297 297 297 297 297 297 298 298 298 298 294 287 283 289 297 298 291 285 287 288 288 278 280 277 288 279 279 280 281 278 278 281 284 279 276 280 282 283 283 283 284 285 280 278 279 277 277 276 275 274 273 272
296 297 297 297 297 297 297 297 297 298 296 290 287 286 293 298 293 288 282 282 279 280 282 281 284 276 286 278 278 282 276 278 275 280 282 280 275 278 282 282 283 284 282 282 282 280 279 277 275 274 273 273 272 270
296 296 296 296 296 297 297 297 297 292 289 291 292 294 292 288 284 282 279 278 279 277 280 283 279 283 283 287 279 281 278 277 274 285 282 277 276 280 281 280 280 280 280 279 279 278 277 276 275 273 272 270 268 267
296 296 295 295 296 297 297 297 297 297 296 294 290 285 285 283 278 276 272 275 271 277 281 278 276 284 281 284 277 278 278 272 284 279 278 276 277 279 278 278 277 277 277 276 275 275 275 273 272 269 266 262 263 262
296 296 295 296 296 297 297 297 296 294 291 285 283 278 278 276 278 274 273 273 278 277 280 278 277 279 278 278 277 278 278 282 277 272 274 275 277 277 278 278 276 273 271 271 269 269 267 266 263 261 261 260 260 258
296 296 295 296 296 296 296 295 294 291 287 283 283 275 277 279 283 285 285 280 280 279 280 279 279 279 275 280 282 281 278 276 274 272 275 276 277 276 275 273 271 269 268 267 267 265 263 263 262 260 257 258 259 256
295 295 291 296 296 296 295 292 289 290 285 283 283 282 283 282 282 284 285 284 286 281 279 280 277 273 274 275 279 274 275 270 275 278 276 277 275 272 272 272 271 270 268 266 265 264 264 263 264 263 259 259 257 258
293 288 295 296 296 295 293 285 286 284 282 282 282 282 284 284 282 283 285 285 285 280 281 278 275 274 280 277 276 276 271 276 278 278 278 278 275 269 269 270 269 269 267 266 265 265 263 261 262 265 265 264 264 266
286 292 296 295 293 290 284 286 285 283 279 281 280 281 283 284 285 284 285 286 286 281 279 279 280 276 277 274 273 279 279 278 278 279 277 275 273 270 272 270 270 270 268 267 267 266 265 266 268 268 270 271 270 270
291 293 294 294 289 282 277 278 285 279 281 282 282 282 283 283 284 281 284 285 286 285 282 279 278 274 271 279 280 278 279 272 275 272 275 275 272 271 271 271 270 270 269 268 271 271 271 272 272 272 273 274 270 271
295 295 295 294 292 284 282 282 286 282 276 276 282 281 282 282 282 284 284 284 285 284 282 277 275 279 279 275 278 279 273 274 274 272 271 273 273 272 272 273 273 272 272 273 273 272 272 272 272 271 270 269 266 264
292 292 294 291 286 287 284 282 281 281 279 277 281 282 277 280 281 281 281 284 282 282 276 274 274 270 276 275 278 278 277 276 274 273 273 272 274 274 274 275 274 273 271 270 270 269 270 271 270 270 265 263 260 262
290 292 285 287 282 283 282 285 283 280 279 279 282 282 277 277 279 280 283 281 281 277 276 276 276 274 275 277 276 279 278 278 277 275 274 274 273 273 274 274 273 269 269 269 270 267 266 270 270 269 266 262 262 262
291 288 285 284 281 279 276 286 279 280 274 279 280 277 275 277 281 284 279 281 278 276 276 276 278 280 278 278 279 280 280 279 276 275 274 274 273 271 272 272 271 269 269 271 273 271 268 267 266 264 261 260 258 257
290 282 281 279 278 272 279 279 282 281 280 279 278 274 277 279 281 278 277 275 273 273 275 277 279 277 276 278 275 277 279 278 275 272 274 275 273 273 275 274 273 274 274 272 272 269 267 264 263 261 257 256 256 256
276 274 281 278 280 275 274 275 275 277 271 273 272 270 277 279 273 275 275 272 273 272 269 274 276 276 272 269 272 275 277 278 276 274 270 275 272 274 273 273 271 271 272 270 266 266 260 257 257 258 256 255 259 256
277 276 275 277 271 273 274 271 271 273 273 274 271 274 271 276 275 270 273 277 278 279 279 278 276 275 275 276 274 276 276 278 278 274 275 277 276 272 270 269 267 267 266 268 265 263 263 261 259 258 257 258 257 254
274 275 277 280 278 278 271 272 276 272 268 269 273 268 275 273 273 269 270 275 276 273 280 282 281 279 276 275 276 275 276 276 275 272 271 271 270 271 272 268 265 265 262 265 263 265 264 260 257 256 256 254 254 255
272 273 271 273 273 274 270 270 269 268 268 275 275 273 272 271 267 267 268 272 276 278 279 279 281 278 276 274 273 272 271 271 270 270 270 269 268 266 266 267 267 266 263 262 261 261 261 260 258 256 256 255 253 251
269 273 273 270 270 272 269 273 273 269 271 270 269 265 263 267 267 266 270 273 278 273 272 273 274 274 273 273 273 273 272 273 272 268 265 262 262 264 262 263 261 262 263 263 266 263 262 259 257 256 255 255 254 253
270 273 269 269 269 267 265 267 265 263 267 269 270 269 266 264 265 265 270 273 270 268 268 272 274 273 272 272 270 269 270 270 271 271 267 263 262 261 260 260 260 259 260 261 260 259 264 257 259 257 256 254 251 250
276 276 274 272 269 269 271 271 267 264 264 268 268 265 263 263 264 263 266 266 268 272 273 272 272 273 272 270 269 269 267 268 268 268 268 267 266 264 262 261 262 262 260 260 258 257 256 254 254 255 253 250 247 246
273 273 270 268 268 271 272 269 267 265 265 264 264 260 260 260 259 262 267 269 271 266 267 272 271 269 271 270 270 269 269 269 269 268 268 267 266 265 264 263 263 262 260 258 257 255 256 255 254 251 249 246 244 243
269 269 268 267 266 265 267 268 269 267 266 264 261 259 262 262 259 262 266 268 267 270 270 268 269 270 269 269 268 268 268 267 267 268 267 266 265 265 263 261 260 260 259 257 255 255 255 253 251 247 245 243 242 241

GFSWCAN_sfc_thetae_105.txt.gz
Theta_e
299 299 299 299 299 300 300 300 300 300 300 299 299 300 300 301 300 293 290 292 287 280 283 288 288 282 281 281 276 281 279 281 280 277 279 278 277 280 279 281 280 277 275 274 277 274 272 278 279 276 278 280 278 277
299 299 299 299 300 300 300 300 300 300 300 300 300 300 300 300 300 296 288 292 291 284 284 287 288 288 286 286 282 284 281 281 279 279 280 281 277 278 277 272 282 275 278 275 275 273 278 279 278 281 281 279 277 276
299 299 299 299 299 300 300 300 300 299 300 300 300 299 299 300 300 297 289 289 287 281 282 285 286 291 292 290 289 282 284 286 285 286 282 282 280 283 278 275 277 279 282 276 275 277 278 278 279 280 279 278 279 278
299 299 299 299 299 299 299 299 299 299 299 300 299 299 299 299 299 295 289 289 288 283 278 282 291 288 293 293 290 288 287 287 286 285 282 279 282 286 280 278 275 278 279 277 275 277 278 278 278 278 279 279 278 278
299 299 298 299 299 299 299 299 299 299 299 299 299 298 298 299 298 293 290 290 291 284 278 280 286 291 292 291 289 288 287 285 282 281 279 282 286 285 279 279 274 281 277 272 273 277 277 275 279 280 278 277 278 277
299 299 298 298 299 299 299 299 299 299 299 299 298 298 299 299 296 289 282 291 292 290 281 275 285 287 289 289 288 288 287 285 282 281 281 282 291 282 277 274 279 278 281 279 277 280 278 278 279 280 277 277 278 276
298 298 298 298 298 298 298 299 299 299 299 298 298 299 299 298 293 288 284 294 297 290 281 275 279 288 291 289 287 286 286 284 283 282 281 286 285 281 275 272 279 279 278 279 280 279 277 278 276 279 279 279 278 276
298 298 298 298 298 298 298 298 298 298 298 298 299 299 299 297 294 288 290 299 295 287 285 274 278 284 291 282 282 285 283 283 283 281 282 283 285 276 272 277 281 282 280 279 280 281 279 279 278 278 278 276 274 273
297 297 297 297 298 298 298 298 298 298 299 299 299 296 291 288 285 287 298 296 292 287 278 275 273 278 287 283 283 283 283 275 282 279 280 285 280 273 272 279 279 279 279 278 279 279 279 278 277 276 276 275 273 272
297 297 297 297 297 297 297 298 298 298 299 297 291 285 281 286 296 297 289 281 281 283 287 276 279 276 284 278 278 279 280 277 278 281 283 278 276 280 278 279 280 282 280 281 278 277 278 276 276 276 275 274 273 272
297 297 297 297 297 297 297 298 298 298 295 288 286 285 292 298 292 287 282 281 280 277 280 278 279 275 284 277 277 280 275 277 275 280 281 278 275 278 281 282 284 284 284 283 281 280 280 278 276 274 273 273 271 270
296 296 297 297 297 297 297 297 297 291 288 289 292 294 292 288 284 281 278 278 280 276 277 278 278 281 283 284 278 280 277 276 273 285 281 275 273 279 280 280 281 280 280 280 280 278 277 276 275 274 272 270 268 266
296 295 295 296 297 297 298 297 296 296 296 293 290 285 283 283 276 276 270 276 270 276 279 277 276 281 280 282 277 278 272 271 282 277 278 274 278 279 278 278 277 278 278 278 277 276 275 273 272 269 266 261 263 262
296 295 295 296 297 297 297 297 296 293 291 285 282 277 278 275 278 272 273 272 277 276 277 277 277 278 277 277 273 271 276 281 271 272 273 272 277 277 277 278 276 274 273 273 270 270 268 266 261 260 260 258 260 258
296 296 295 296 296 296 296 295 294 290 286 282 283 275 276 277 281 283 285 282 280 277 279 278 278 278 275 279 281 278 275 273 271 270 270 274 277 277 275 274 271 269 268 267 266 265 262 262 262 259 255 256 258 256
295 294 291 296 296 296 294 291 289 289 285 283 282 280 282 281 281 283 284 283 285 281 278 281 277 274 275 273 278 272 272 269 270 270 274 275 275 274 273 273 271 269 268 266 265 264 263 262 262 261 258 257 255 256
293 286 295 295 295 293 292 286 284 281 281 280 281 280 284 283 282 283 284 285 285 280 274 279 271 273 278 275 276 274 269 274 275 277 278 278 275 270 269 270 270 269 267 265 264 264 261 260 262 264 264 261 263 264
285 292 296 295 291 288 284 284 284 283 279 280 279 280 282 284 284 284 284 285 285 282 279 278 282 279 277 273 270 270 271 277 278 278 277 276 273 269 270 268 268 269 267 266 266 265 264 264 266 266 269 269 269 269
291 293 295 294 287 281 274 279 283 277 279 281 281 282 282 283 283 283 284 285 286 285 280 278 277 275 272 274 275 269 267 270 274 273 275 275 274 271 269 269 268 267 268 267 269 269 269 270 270 270 271 272 268 268
295 295 294 294 291 281 278 280 284 281 275 275 282 281 281 281 282 283 283 284 284 284 281 276 274 272 274 274 275 273 271 273 274 273 271 271 273 271 270 271 270 270 270 271 271 271 271 270 271 270 269 269 265 264
292 293 294 289 284 285 284 282 280 281 279 277 282 282 279 281 281 281 282 284 282 282 275 274 270 270 272 274 276 276 275 276 272 272 270 270 272 273 272 272 273 272 271 270 269 267 268 268 269 269 261 260 260 262
290 291 286 286 281 282 282 284 283 281 278 280 281 281 273 274 272 277 279 278 280 277 276 274 274 273 274 276 275 278 277 277 275 273 272 274 272 272 273 272 272 268 269 267 269 267 266 268 268 266 262 259 260 261
290 287 282 283 279 278 277 285 279 279 273 279 281 275 271 271 274 281 276 279 277 275 275 276 277 280 278 277 278 278 279 277 275 274 274 274 274 272 271 270 270 268 267 268 270 268 264 265 265 263 262 260 257 256
288 280 278 275 278 269 278 278 282 280 275 276 277 275 275 274 280 277 276 275 273 271 274 275 277 275 276 277 274 274 276 276 274 271 273 273 272 272 272 271 271 272 271 271 270 268 267 265 264 263 257 255 254 254
273 270 278 273 278 276 272 272 275 275 267 276 276 272 277 278 271 274 273 273 273 267 267 272 274 274 272 268 269 272 275 276 274 273 270 273 271 273 271 270 269 269 271 269 266 266 261 259 257 257 255 255 256 254
271 270 276 276 269 272 273 269 269 270 274 271 269 273 271 276 274 270 273 271 278 271 276 276 270 273 273 274 272 272 273 276 276 272 273 275 274 271 269 269 267 267 267 269 268 266 263 258 258 258 256 256 255 253
274 274 276 281 278 278 272 271 275 273 274 272 274 269 268 268 267 270 269 271 275 278 278 280 280 279 277 275 274 274 275 274 273 273 271 270 270 271 272 270 268 266 263 266 265 265 262 260 259 258 257 252 252 252
272 272 272 276 275 274 271 269 269 268 268 273 272 267 269 270 268 265 267 271 274 278 277 276 276 275 274 273 273 271 269 270 270 270 270 269 267 267 268 267 267 266 261 260 260 262 262 261 259 258 258 256 252 250
269 268 271 268 271 273 272 270 270 269 270 270 269 265 265 265 263 262 265 269 275 274 270 269 270 272 272 272 272 271 272 273 273 269 267 265 264 264 262 263 262 261 262 263 265 262 261 260 259 258 256 255 252 251
268 272 268 266 271 271 265 267 265 265 265 266 267 267 265 262 261 262 266 265 267 263 261 264 268 272 271 270 269 269 269 270 270 272 268 266 265 264 262 263 262 261 263 263 263 263 265 259 259 253 253 251 248 246
274 274 270 268 265 264 265 267 269 270 265 263 263 262 261 259 261 261 263 264 265 267 269 269 269 270 270 270 270 269 267 268 269 268 267 267 265 263 263 262 262 262 262 261 260 259 256 253 253 252 250 248 244 243
274 273 269 266 265 268 271 271 270 269 263 263 263 258 259 259 261 260 264 264 267 266 266 269 269 266 270 270 270 269 269 268 268 267 267 266 265 263 263 262 262 261 260 258 256 254 254 253 251 249 247 244 242 241
270 267 268 268 267 267 268 269 269 267 264 261 259 257 259 261 261 261 265 265 265 266 266 267 269 269 268 268 267 267 267 268 269 269 267 266 264 264 263 262 261 260 258 255 254 253 253 252 249 244 243 242 240 240

GFSWCAN_sfc_thetae_108.txt.gz
Theta_e
299 299 299 299 300 300 300 300 300 300 300 300 301 301 301 300 299 293 289 290 287 281 284 288 287 282 281 280 275 280 278 280 279 276 278 277 276 277 279 279 278 276 275 274 276 275 272 278 280 276 276 278 277 275
299 299 298 299 299 299 299 299 300 300 300 300 301 301 301 300 299 295 287 290 290 285 284 287 288 287 284 284 282 284 280 281 278 278 281 279 278 280 275 271 281 275 276 274 274 272 277 278 278 280 280 277 276 275
299 299 299 299 299 299 299 300 300 300 300 300 300 301 300 300 299 294 288 287 286 284 284 285 285 289 291 289 288 282 282 285 283 284 282 280 279 283 277 274 277 279 281 275 274 276 276 277 278 279 278 276 277 276
299 299 299 299 299 299 299 299 299 300 300 300 300 300 300 300 299 295 289 288 287 284 279 282 290 288 291 291 289 288 286 286 285 283 281 281 280 286 278 277 275 277 278 277 274 276 277 277 277 278 278 277 276 276
299 299 299 299 299 299 299 299 299 299 299 299 299 299 299 299 298 294 291 290 290 284 279 280 285 289 290 290 288 288 286 284 281 280 279 282 285 283 277 278 273 281 277 271 268 276 275 276 275 278 276 275 276 276
298 298 298 298 299 298 299 299 298 299 299 299 298 299 299 298 295 288 283 291 292 287 281 275 284 286 288 288 287 286 286 283 282 281 280 282 290 280 270 272 279 277 281 279 277 278 276 278 277 277 277 276 277 276
298 298 298 299 298 298 298 298 298 298 298 298 298 299 299 298 292 287 284 289 296 288 280 275 280 286 289 287 285 285 285 282 282 281 280 285 285 282 269 270 278 277 279 279 280 279 276 276 275 277 277 278 277 274
298 298 298 298 298 298 298 298 298 298 298 298 298 298 297 297 294 288 291 297 292 285 282 274 279 284 290 282 281 283 282 282 282 280 281 282 283 278 271 275 278 277 277 278 280 280 278 278 278 277 276 275 274 272
297 297 297 298 298 298 298 298 298 298 298 298 297 295 291 288 285 287 296 294 290 285 276 275 276 277 285 282 282 282 282 275 281 278 280 285 280 271 273 279 279 278 278 278 279 278 278 277 276 276 275 274 273 272
297 297 297 297 297 297 297 298 298 298 298 296 291 284 278 287 296 296 288 281 281 283 283 276 278 281 284 277 278 278 279 276 278 283 283 278 273 280 277 280 280 281 280 279 277 276 276 275 275 275 274 274 273 272
297 297 297 297 298 297 298 298 298 296 294 288 285 285 292 297 288 283 277 275 276 276 279 278 278 277 283 276 281 281 277 278 274 279 280 276 273 278 279 280 281 281 281 280 280 280 279 277 276 274 273 273 272 271
297 297 297 297 297 297 297 297 295 290 287 289 292 294 292 287 284 279 277 279 279 276 276 276 277 281 283 283 279 280 276 275 272 284 279 274 274 280 281 281 282 281 281 281 280 279 278 277 276 274 272 270 268 266
297 297 297 297 297 297 297 297 296 297 296 293 289 285 282 282 276 270 269 275 271 276 276 276 275 279 279 281 276 277 270 269 281 279 277 274 279 280 280 279 279 280 280 279 278 278 276 274 273 270 266 262 262 261
296 297 297 296 297 297 297 297 295 293 291 284 281 276 275 273 278 272 272 271 276 275 276 277 276 278 277 277 271 270 273 277 268 270 273 272 279 279 279 279 278 276 275 275 274 273 269 267 262 261 261 260 260 258
296 296 296 296 295 296 296 295 293 290 285 282 282 276 276 277 280 278 282 282 282 276 278 278 278 280 277 277 277 274 273 269 270 270 269 270 277 277 276 275 273 272 272 271 269 267 264 262 262 258 254 256 259 257
295 293 291 295 296 295 293 291 288 288 283 282 282 280 281 280 280 282 283 283 284 283 278 280 280 275 276 272 278 270 272 268 269 271 272 270 274 274 274 274 272 270 270 267 265 265 263 262 263 261 257 256 254 257
292 286 295 295 294 293 292 285 281 280 279 280 279 281 283 283 280 282 284 284 285 283 273 279 270 272 277 275 274 273 269 269 269 275 278 276 272 271 271 271 270 269 267 266 264 264 261 260 261 263 263 260 262 263
285 291 295 293 289 286 283 281 283 280 279 280 276 281 282 284 283 283 283 285 285 283 282 277 281 279 274 270 269 269 278 278 275 276 276 276 274 269 271 270 270 270 268 266 265 264 263 263 266 265 268 268 267 268
289 293 294 292 287 280 274 277 282 276 279 279 281 282 282 282 283 283 284 285 286 285 280 277 277 273 271 270 271 272 269 272 275 274 270 274 274 271 269 268 268 268 268 267 268 267 267 269 269 269 269 270 266 267
295 294 293 294 289 280 278 279 284 281 276 278 282 281 281 281 282 283 283 283 284 284 281 274 272 272 273 272 273 273 271 273 275 273 272 268 273 271 269 270 269 269 269 270 270 269 270 269 269 269 268 268 264 263
292 291 292 288 283 284 282 281 279 281 282 278 282 282 279 281 281 281 281 284 282 278 274 273 269 268 271 272 275 274 273 275 272 273 271 270 269 271 271 271 271 270 270 269 268 267 267 268 268 268 261 259 257 259
289 291 286 286 281 280 279 283 282 282 280 281 281 281 275 273 277 279 279 276 276 274 274 273 273 272 274 275 275 277 276 276 274 272 270 272 271 271 271 270 270 268 268 267 269 267 266 267 266 265 260 256 260 260
289 286 280 281 274 276 273 285 278 280 275 278 280 277 270 268 273 280 270 275 274 273 273 274 276 280 277 276 277 278 278 276 273 272 271 271 271 269 271 270 269 268 267 267 269 267 264 264 263 262 261 258 256 254
287 279 270 273 274 267 277 276 281 279 276 276 273 270 271 273 279 271 270 273 273 270 273 275 275 274 275 276 272 273 274 274 271 268 271 272 271 271 272 271 270 269 270 270 270 266 264 261 263 262 259 256 251 252
273 271 272 271 277 274 273 271 274 274 272 275 269 267 271 277 272 267 270 272 267 271 266 270 273 273 274 275 275 272 273 274 272 271 269 272 271 272 271 270 268 268 270 269 264 263 263 263 262 261 256 254 256 252
265 266 270 270 274 273 273 268 267 267 266 266 268 272 270 276 273 268 272 268 269 277 269 276 277 274 276 277 275 272 272 274 274 270 271 274 274 272 269 268 267 266 266 268 268 266 263 262 261 258 254 255 254 254
272 267 274 278 277 275 268 267 272 271 273 270 269 268 268 266 267 271 270 270 270 274 277 278 279 279 278 276 275 273 273 273 273 272 271 270 270 271 271 269 267 267 266 268 268 267 265 262 259 257 253 249 250 253
274 275 271 275 277 275 266 265 265 267 270 273 272 269 268 268 269 267 266 267 271 276 276 274 275 276 274 271 271 270 269 269 270 270 270 269 267 265 267 266 266 268 265 265 264 263 263 260 258 257 258 257 251 249
271 270 274 271 272 275 275 273 271 270 271 272 270 266 267 266 262 261 263 266 272 276 270 269 271 271 270 270 271 271 271 273 272 269 267 264 263 264 264 265 265 264 265 265 266 263 261 261 260 259 256 253 250 247
266 268 266 264 267 270 270 270 269 267 269 268 268 267 265 261 260 261 262 262 266 265 263 264 263 266 267 267 267 268 268 268 270 271 269 266 265 264 264 265 264 265 266 266 264 263 263 259 258 252 250 248 247 246
272 270 264 263 263 261 263 263 263 266 267 266 265 266 264 259 261 259 261 261 261 263 265 265 265 266 270 270 269 269 267 267 270 269 268 267 266 264 263 263 263 263 263 262 260 258 256 254 253 250 249 248 245 243
270 271 268 263 262 265 267 267 267 265 260 262 262 257 259 260 262 259 262 262 264 264 262 263 265 263 268 271 270 270 269 267 267 267 267 266 265 264 263 262 262 261 260 258 257 256 254 252 250 249 248 246 242 240
269 267 267 268 265 265 266 268 267 265 262 261 259 256 256 261 264 259 261 262 262 262 263 264 267 267 267 267 267 267 267 268 268 269 267 266 265 264 263 262 261 260 258 256 255 254 253 251 248 246 245 243 240 239

GFSWCAN_sfc_thetae_111.txt.gz
Theta_e
299 299 299 299 299 299 300 300 301 301 301 301 301 301 300 299 298 293 289 290 289 284 286 289 288 284 283 283 280 282 283 283 283 280 280 279 278 280 280 280 278 277 275 276 278 275 273 278 281 278 278 279 277 276
299 299 298 298 299 299 300 300 300 301 301 301 301 301 301 299 298 294 289 291 291 287 286 289 289 290 288 287 285 285 283 283 284 282 282 282 279 281 278 276 282 277 277 275 275 274 278 279 279 281 281 278 277 276
298 298 299 299 299 299 299 300 300 300 301 301 301 300 300 299 298 294 289 289 289 286 286 287 286 291 292 291 292 285 286 287 285 287 286 284 280 284 278 277 279 280 282 276 276 276 277 278 279 280 280 278 278 277
298 299 299 299 299 299 299 299 300 300 300 300 300 300 300 299 299 295 290 290 288 286 282 285 291 289 293 293 291 290 289 288 288 288 285 285 282 286 279 280 278 280 281 277 275 277 277 278 279 279 278 278 277 277
298 299 298 298 299 299 299 299 299 299 300 300 300 300 299 299 298 295 292 291 290 287 282 283 287 290 292 292 290 290 289 287 286 284 284 283 286 283 281 280 277 281 278 275 276 278 278 277 279 279 277 276 277 276
298 298 298 298 298 299 299 299 299 299 299 299 299 299 298 297 293 289 284 291 294 289 285 280 286 288 290 291 290 289 288 286 286 285 284 286 289 285 278 277 279 280 282 282 278 280 279 279 279 279 278 278 278 277
298 298 298 298 298 298 298 298 298 299 299 299 299 299 299 298 295 288 285 291 295 290 285 281 283 287 290 289 287 287 287 286 287 285 285 287 286 283 277 276 279 280 280 280 281 280 277 278 277 279 278 278 278 276
298 298 298 298 298 298 298 298 298 299 299 299 298 298 297 297 294 290 293 296 292 286 285 279 281 285 290 285 285 286 286 286 285 284 285 286 284 282 277 277 278 280 280 280 280 281 280 279 279 278 278 276 274 273
298 298 298 298 298 298 298 298 298 298 298 297 296 295 291 289 287 290 297 293 291 287 280 279 280 278 287 284 285 286 285 282 285 283 284 285 282 279 278 278 278 279 279 279 279 279 279 278 277 276 276 276 274 273
297 297 298 298 298 298 298 298 298 297 296 295 291 285 282 289 295 294 288 283 283 283 284 280 281 282 286 282 283 283 283 282 281 284 286 282 281 281 281 282 281 281 281 280 278 276 277 277 276 276 276 276 275 274
297 297 297 298 298 298 298 298 296 295 294 289 287 286 292 297 289 284 278 278 280 279 282 281 282 283 286 282 283 283 281 281 277 282 282 280 278 279 281 282 283 283 282 281 281 281 280 279 277 276 275 275 274 273
297 297 297 297 298 298 297 296 295 291 288 291 290 294 291 287 282 278 277 279 279 277 280 281 282 284 285 286 284 282 279 280 275 284 282 278 278 280 281 282 282 282 282 281 282 280 279 279 278 276 275 273 272 270
297 297 297 297 297 297 297 297 297 297 295 291 288 285 282 281 274 271 269 276 276 279 280 281 280 283 284 284 281 280 276 275 282 279 279 278 280 282 282 282 282 282 282 281 280 280 278 276 275 273 270 267 266 265
297 297 297 297 297 297 296 296 296 294 289 284 280 275 274 275 276 275 276 275 279 279 281 282 281 283 281 281 277 276 277 280 274 273 275 279 280 281 281 281 280 279 278 278 276 275 273 270 268 267 266 265 263 262
296 295 295 296 296 296 295 294 293 289 285 281 281 275 276 279 281 281 282 283 283 281 282 282 282 283 279 278 279 276 275 273 274 275 277 278 280 279 278 279 278 276 275 274 274 272 269 267 266 263 263 264 264 261
296 294 293 296 295 294 292 290 288 287 283 282 281 280 281 281 282 284 284 283 284 284 282 284 282 277 276 276 277 273 274 273 277 277 280 275 277 278 277 277 276 274 274 272 270 269 267 266 266 264 262 263 262 263
293 290 295 294 293 292 292 285 284 281 280 280 279 281 284 283 282 283 285 284 286 283 279 280 273 274 279 275 275 277 276 278 276 280 279 275 276 275 275 274 273 272 271 269 268 268 266 265 264 265 266 264 265 266
288 293 294 293 288 286 282 283 282 280 279 279 278 281 283 284 283 283 284 285 285 284 283 280 281 278 275 273 276 277 279 280 278 278 279 278 275 273 275 274 272 272 270 269 268 267 265 266 268 269 270 268 269 269
292 292 293 292 287 281 277 279 282 277 279 281 281 282 283 283 284 284 284 285 286 286 283 282 279 277 278 277 279 278 276 279 278 276 275 276 276 273 272 272 271 271 270 269 269 269 269 270 271 271 272 271 271 272
294 293 293 292 289 281 278 278 284 281 277 280 282 281 281 281 282 283 284 284 285 284 281 278 277 279 279 280 279 281 278 277 277 275 274 273 275 273 272 273 273 272 271 271 271 271 271 271 272 273 273 273 273 273
291 290 291 286 282 281 280 280 279 281 282 280 282 281 280 282 281 281 282 284 283 280 278 278 277 277 275 277 279 277 276 278 277 278 277 273 273 274 273 273 273 272 272 272 271 271 271 272 273 273 272 273 271 272
289 290 283 284 280 280 279 283 282 282 281 281 281 281 277 275 279 280 282 278 279 278 279 278 278 277 278 279 278 279 278 278 275 273 272 273 272 272 272 272 272 271 272 272 272 271 272 273 273 272 271 268 268 269
289 284 280 280 273 271 273 284 279 280 277 279 281 277 274 272 275 281 275 277 277 276 276 278 279 280 279 278 278 278 279 277 276 275 274 274 274 274 273 273 273 271 271 271 273 272 272 270 269 269 268 268 269 266
287 278 270 272 273 268 276 274 281 278 278 276 275 271 272 276 280 275 274 275 276 274 276 276 278 277 277 277 276 276 276 276 274 272 274 274 273 273 273 273 273 273 274 273 273 272 271 271 268 269 268 267 266 266
276 273 269 263 277 273 273 269 273 273 268 272 271 268 274 279 272 272 273 274 273 276 274 274 276 277 279 278 277 276 275 276 275 273 273 274 273 273 272 273 272 273 273 272 270 270 269 268 268 268 267 267 265 264
264 265 269 268 273 273 273 271 271 268 266 266 269 271 273 274 272 269 273 271 274 278 273 275 278 278 278 278 277 276 276 276 275 273 273 275 275 273 272 271 271 271 272 274 271 270 268 268 267 266 264 262 260 261
265 266 273 277 277 275 269 268 273 269 267 267 268 271 268 268 269 271 271 271 272 276 277 279 279 280 279 277 275 275 275 275 274 273 273 273 273 274 275 273 272 274 272 273 272 271 269 268 266 264 261 260 261 263
272 272 270 271 276 275 270 265 265 267 270 274 272 270 267 268 271 272 272 271 272 275 276 275 275 277 277 274 272 271 270 271 270 271 271 270 268 268 269 269 271 271 272 272 271 270 269 267 264 262 262 261 258 258
273 270 273 270 271 273 273 274 272 272 272 273 271 270 270 271 268 268 269 270 270 276 273 272 272 272 271 271 272 272 273 274 273 271 270 269 270 268 267 268 268 268 269 268 268 267 265 265 263 261 259 257 255 254
269 269 267 265 268 272 273 270 272 271 272 272 271 270 269 268 266 264 266 268 270 273 273 273 272 272 269 269 269 271 272 273 274 275 272 270 270 266 268 268 268 268 269 267 265 263 263 260 259 257 255 254 254 253
271 269 264 264 266 265 265 263 262 264 263 265 265 268 267 264 265 264 265 264 264 264 268 268 269 271 270 270 270 271 270 271 272 271 270 268 268 267 267 266 267 266 265 263 262 261 259 258 257 256 255 253 251 252
272 271 267 264 264 264 265 264 265 265 262 261 262 258 261 263 266 264 265 265 267 268 266 267 268 269 271 272 272 271 271 269 268 268 268 268 267 266 265 265 265 264 263 261 261 259 259 257 256 255 253 251 250 250
268 267 269 268 266 266 267 269 268 265 261 260 260 258 259 263 266 263 264 264 265 267 267 266 267 268 268 269 269 268 268 269 269 269 268 267 266 265 264 264 263 262 261 260 259 258 256 255 254 252 251 250 249 248

GFSWCAN_sfc_thetae_117.txt.gz
Theta_e
298 297 299 303 303 302 301 300 301 301 302 302 303 304 302 302 302 300 297 303 301 295 295 295 297 294 294 293 288 291 290 291 289 285 286 287 286 288 286 287 285 284 283 283 284 281 278 285 286 281 284 287 287 286
298 297 298 299 300 301 301 302 302 302 301 301 300 300 301 301 301 301 296 304 305 297 295 299 298 299 298 297 295 294 292 292 293 290 291 292 287 286 286 282 288 282 286 283 283 281 283 285 286 288 288 286 285 284
299 298 298 298 299 299 299 299 300 299 299 300 300 300 299 300 302 302 301 302 300 295 294 295 293 298 301 302 303 292 295 297 295 300 293 292 284 289 285 286 286 285 287 286 283 281 281 284 286 288 288 285 285 285
299 299 299 299 299 299 299 299 299 299 300 300 300 300 300 302 303 303 300 303 301 295 288 288 299 296 300 301 300 302 300 300 300 299 291 290 286 292 287 288 288 288 286 283 281 281 282 283 284 285 284 284 283 284
298 299 299 299 299 299 300 299 300 300 300 300 301 301 302 302 302 304 303 303 303 295 287 289 295 297 299 300 299 300 300 299 297 293 290 287 290 289 290 290 287 288 286 283 283 284 285 282 283 284 283 282 283 282
298 298 299 299 299 299 299 299 299 299 299 300 300 300 299 299 303 300 294 302 303 301 290 286 294 294 297 298 297 297 299 299 299 296 290 292 293 291 286 285 285 286 286 288 284 288 286 284 284 285 283 283 284 283
298 298 298 298 299 299 299 299 299 300 300 300 300 300 300 300 301 295 293 297 300 303 292 286 287 293 296 296 296 295 297 298 297 296 292 290 291 291 287 284 284 284 285 288 288 285 281 283 282 284 285 285 285 284
298 298 298 299 299 299 298 298 298 299 299 300 300 300 300 300 300 296 299 300 301 297 295 287 285 289 296 291 291 298 294 295 295 294 294 292 292 291 284 283 284 284 285 286 286 288 286 286 285 284 285 285 283 282
297 298 298 298 298 298 297 297 298 297 297 298 300 300 301 298 294 295 297 300 305 298 290 289 284 283 295 292 293 294 296 290 294 292 293 292 290 285 287 284 283 284 284 284 286 287 286 284 284 284 284 284 282 281
297 298 298 297 297 297 297 297 297 298 298 299 300 295 287 295 297 298 299 295 295 296 294 289 292 286 292 292 291 291 293 289 285 290 294 288 288 289 289 289 288 287 288 287 284 283 283 283 283 283 283 284 283 281
298 298 297 297 297 297 297 298 298 298 300 299 294 291 297 297 299 295 289 289 290 287 290 290 290 289 295 289 288 294 289 289 282 286 285 285 285 287 289 289 290 289 289 288 288 287 287 286 284 283 283 283 282 281
297 297 298 298 298 298 298 298 299 299 297 296 296 299 299 294 291 286 284 287 287 284 289 289 290 292 294 298 290 291 285 287 280 290 283 282 285 288 288 289 288 288 288 287 288 286 286 286 285 284 283 282 280 280
298 298 297 297 298 297 297 297 297 296 297 300 294 289 290 288 283 282 278 282 283 287 290 291 289 292 294 294 289 288 282 283 289 282 283 286 288 288 287 287 287 288 287 286 286 286 285 284 285 283 281 279 276 275
297 297 296 296 295 295 295 296 296 298 299 291 287 280 284 282 282 283 286 286 287 291 292 293 291 290 292 287 288 283 284 286 280 279 281 288 287 287 287 287 286 286 285 285 285 284 283 282 281 280 277 276 275 272
296 296 296 294 294 294 294 294 296 300 296 288 288 280 282 286 286 285 288 288 291 294 293 291 291 291 287 284 287 284 280 279 282 283 285 286 286 286 286 286 285 284 283 283 283 280 279 278 276 275 275 275 274 272
295 296 294 294 293 294 294 297 298 298 294 289 287 285 288 285 284 286 286 288 294 294 294 293 286 282 281 285 281 279 279 280 284 286 285 285 285 285 285 285 285 284 284 283 281 279 277 276 275 275 275 273 272 272
296 293 293 293 293 294 295 297 295 289 288 286 284 286 286 286 285 285 291 291 297 293 286 289 283 279 286 281 280 287 284 285 284 285 286 285 284 285 285 284 284 284 283 282 280 279 277 277 274 273 272 272 274 273
293 294 294 293 294 295 294 294 291 288 283 287 285 284 287 287 287 287 292 295 294 291 289 285 289 282 283 280 283 288 286 284 284 284 285 284 284 284 284 283 282 282 281 280 279 278 276 273 275 275 275 275 275 275
293 294 293 293 293 292 288 289 291 283 284 286 287 288 288 288 291 292 293 294 295 295 291 290 284 285 286 290 286 285 285 286 284 284 283 283 283 283 283 282 281 281 279 279 277 277 277 277 278 278 277 276 277 277
293 293 293 292 294 289 284 286 292 285 283 285 288 286 287 286 290 288 292 291 291 290 287 286 287 289 290 291 292 291 289 288 288 286 284 283 284 283 282 282 283 281 279 279 279 279 278 278 279 279 278 279 280 279
295 294 294 295 293 291 287 286 283 285 286 284 286 286 285 289 287 288 289 290 288 288 288 290 290 288 290 289 292 292 290 291 291 290 288 284 284 285 283 284 282 282 281 280 279 279 279 279 280 280 280 281 282 281
293 292 294 292 288 288 286 288 285 287 285 284 285 285 283 283 284 286 289 286 288 290 291 292 291 291 289 288 289 289 288 288 286 285 285 285 284 284 283 283 282 282 282 282 281 280 281 281 281 281 281 282 281 279
292 292 290 288 283 283 281 289 283 283 280 282 283 281 281 281 283 287 283 287 289 290 291 290 289 289 289 287 287 287 287 287 288 287 286 288 287 286 284 283 284 283 282 282 283 281 282 281 281 282 281 280 279 277
291 286 282 281 282 278 282 281 284 281 282 281 281 278 279 281 283 282 281 288 289 289 288 286 289 288 287 286 288 287 287 289 287 285 287 286 284 283 283 283 283 283 284 283 282 282 281 281 281 280 279 278 277 276
282 279 281 277 282 279 278 279 279 280 277 279 277 279 280 282 280 281 281 287 287 284 285 286 287 287 285 285 286 286 283 287 287 285 284 287 285 283 281 281 281 283 284 282 281 280 280 280 280 279 279 279 277 276
276 279 279 278 279 278 279 276 277 278 279 278 279 282 282 281 278 279 283 284 285 283 282 283 283 284 285 287 286 284 283 284 286 284 283 285 284 281 280 278 278 279 282 284 281 280 279 279 278 278 278 277 276 274
275 277 282 284 283 281 280 281 282 280 277 277 280 279 279 275 277 283 286 285 284 283 284 283 283 283 284 285 284 283 284 284 284 283 283 283 283 283 283 281 279 281 282 282 282 281 279 278 278 277 275 275 274 274
281 281 277 279 280 282 278 279 278 278 281 284 282 277 276 278 281 284 284 283 283 284 283 283 284 284 284 284 283 282 281 281 280 281 281 280 280 281 281 282 282 281 282 282 282 281 280 279 277 275 274 273 272 272
279 282 281 277 279 280 280 280 281 284 285 285 282 282 283 285 284 284 283 284 283 283 282 282 281 282 281 281 282 282 281 282 280 278 278 277 277 276 279 280 280 280 280 280 279 280 279 277 275 274 272 271 269 269
279 283 280 278 277 278 283 283 283 282 284 284 283 284 283 283 282 281 282 282 282 281 282 282 283 282 281 281 279 279 282 283 283 282 279 278 278 277 278 278 277 277 277 275 272 271 270 269 268 267 266 266 265 264
282 281 279 280 279 282 280 280 280 281 280 281 281 280 282 281 281 279 279 278 278 279 279 280 280 281 281 280 280 279 278 281 281 281 282 279 278 278 278 277 276 275 273 272 272 271 270 269 268 267 266 265 263 263
280 279 279 277 279 280 279 279 280 279 280 279 280 279 279 279 279 276 274 276 277 277 278 279 280 280 281 282 282 281 282 279 279 279 279 278 277 276 276 275 275 275 274 273 272 270 269 268 267 265 264 263 262 261
278 278 278 278 277 276 278 278 278 277 277 277 278 277 277 277 276 274 276 275 274 275 276 278 278 279 279 279 279 278 278 278 277 276 276 275 274 274 275 274 273 272 271 270 269 269 267 266 265 263 262 260 260 259

GFSWCAN_sfc_thetae_120.txt.gz
Theta_e
298 301 302 301 302 299 299 300 301 300 300 300 301 301 302 303 303 302 298 306 300 298 297 300 301 296 294 293 288 292 289 290 289 285 284 284 286 287 286 288 284 282 281 281 282 279 278 288 287 282 285 289 289 286
299 300 300 300 303 303 299 300 301 301 301 301 301 301 302 303 304 303 297 305 305 299 296 301 301 301 300 299 295 294 292 291 293 288 289 290 286 288 287 282 291 283 287 283 280 281 285 287 287 290 290 288 286 284
298 299 300 300 300 303 300 299 300 301 301 301 301 302 302 303 304 303 300 302 298 293 293 294 292 299 304 303 304 292 295 296 296 299 295 291 286 289 284 285 287 287 289 286 283 282 283 285 288 289 288 286 286 285
298 298 299 300 300 300 300 301 301 301 301 302 302 302 303 303 303 303 299 303 301 296 287 289 299 296 301 303 303 303 301 302 301 299 293 290 288 292 288 289 288 289 288 285 281 283 283 284 286 286 285 286 284 284
298 298 298 298 299 300 300 300 301 301 301 302 302 302 302 303 303 302 302 304 303 294 286 288 296 298 300 300 300 301 301 299 296 292 291 288 290 290 291 290 288 290 287 283 283 285 285 284 285 285 283 283 283 283
298 298 298 298 298 298 298 299 299 300 300 300 301 301 302 302 303 300 292 304 304 299 290 284 294 294 297 299 298 299 300 300 297 294 291 292 294 291 286 284 287 287 288 290 286 288 287 285 285 285 283 284 284 283
299 299 299 299 298 299 299 299 299 299 299 300 301 302 303 302 302 295 293 299 300 304 293 286 286 294 296 296 296 296 298 297 296 294 292 290 291 291 287 284 285 285 286 289 288 285 282 283 282 285 285 285 285 284
298 298 297 297 298 298 299 299 300 300 300 300 300 300 300 300 300 296 299 301 300 299 294 287 285 288 295 291 290 296 292 294 294 293 293 291 291 291 284 285 285 285 287 287 286 288 285 286 285 284 285 285 283 282
297 297 297 297 297 297 297 298 299 300 301 301 301 302 302 298 294 296 297 298 309 299 290 288 284 282 295 292 293 293 294 290 293 290 291 291 289 285 288 285 284 285 285 285 287 286 285 284 284 284 284 284 282 281
297 297 297 297 297 298 298 298 299 299 300 301 301 294 287 295 297 297 299 295 296 295 294 289 291 286 293 292 290 290 291 288 284 289 293 287 288 290 291 290 288 287 288 288 285 283 283 283 283 284 284 285 284 281
298 298 298 298 298 298 299 299 299 300 300 299 294 292 296 298 298 296 291 289 290 286 291 291 291 289 294 290 288 292 289 288 282 286 285 284 284 287 291 290 290 290 289 289 288 288 287 286 284 284 284 285 283 281
298 298 298 298 297 297 297 297 300 300 298 297 296 300 299 295 292 286 284 287 287 283 289 290 291 292 294 295 290 290 285 287 280 290 284 281 285 290 290 289 289 289 289 288 289 287 287 286 286 285 285 283 281 278
297 296 296 296 296 296 297 298 298 298 298 300 295 290 290 289 283 282 278 282 283 288 292 292 289 292 293 294 289 288 283 282 290 282 281 285 287 289 288 288 287 288 288 287 287 287 286 285 285 284 279 277 276 274
296 296 295 295 296 296 296 297 298 300 299 293 288 281 284 281 282 283 286 287 290 292 292 293 291 290 292 287 289 282 284 286 280 279 280 286 288 288 288 287 286 285 285 285 285 285 283 282 279 278 278 277 274 272
296 295 294 294 295 296 297 297 298 301 297 288 288 281 282 284 285 287 290 291 294 296 294 292 291 290 287 284 286 283 280 278 281 282 285 286 287 286 286 286 284 283 283 283 283 280 279 278 277 275 276 275 274 273
297 296 293 295 295 296 297 299 299 298 295 288 287 284 286 285 284 286 287 289 296 296 296 292 286 283 282 284 282 280 280 279 283 284 285 286 285 285 286 285 284 284 283 282 281 280 278 277 276 275 275 273 272 272
295 291 293 294 295 296 298 297 296 291 287 286 285 285 286 285 284 285 291 292 297 293 286 288 282 280 286 282 281 286 282 283 284 284 285 285 285 285 285 284 284 283 283 282 281 279 277 277 275 274 272 272 273 273
293 294 294 295 296 297 297 297 292 289 284 287 285 285 287 288 287 288 292 295 294 290 289 285 289 283 283 281 282 285 284 284 285 284 284 284 285 285 286 285 284 284 283 281 280 278 277 274 275 274 274 274 274 274
293 294 295 295 295 293 289 290 292 284 285 287 288 290 289 289 291 292 294 295 294 294 292 289 285 284 284 286 285 284 285 285 283 283 282 284 284 284 284 284 283 283 281 280 279 278 277 277 278 277 276 276 275 276
296 294 294 295 296 290 286 287 292 286 283 286 288 287 286 287 290 288 293 292 292 292 287 286 286 287 287 287 289 288 286 286 285 283 281 281 283 283 282 282 282 281 280 279 279 279 278 279 279 278 277 277 277 276
295 294 295 296 293 291 288 286 284 286 286 284 286 286 285 289 287 288 289 291 289 288 286 289 287 288 290 290 292 292 290 290 288 287 285 282 284 284 283 284 282 282 280 279 279 278 278 279 279 279 279 280 281 280
293 294 294 292 288 288 286 289 286 287 285 285 285 285 283 283 284 286 289 287 287 288 289 289 290 290 289 289 289 290 289 288 288 287 287 285 284 283 283 283 282 282 282 282 281 280 280 281 281 280 281 282 281 280
294 293 290 289 283 283 281 289 283 284 281 282 284 281 281 281 283 287 283 287 288 289 291 290 289 290 288 288 288 288 288 289 288 287 287 286 286 286 285 284 284 283 282 282 283 282 282 281 281 281 282 281 279 278
292 286 283 282 282 278 284 282 284 282 283 282 281 279 280 281 284 283 283 287 287 289 288 287 290 288 288 288 287 286 287 289 285 285 287 285 283 283 283 283 284 284 284 284 283 282 282 281 281 281 280 279 277 277
282 279 282 278 283 280 279 279 280 280 278 280 279 280 280 283 281 282 282 285 286 283 283 285 288 287 285 285 285 285 285 287 285 283 285 286 284 282 281 282 283 284 285 284 282 282 281 281 281 280 279 278 276 276
277 280 279 279 279 278 279 276 278 279 279 279 279 282 283 282 279 279 283 283 284 283 283 283 284 284 284 285 285 284 284 285 286 283 283 285 283 282 280 279 279 281 284 285 283 281 280 280 280 279 279 278 276 275
276 278 282 285 283 282 280 281 282 280 278 278 280 279 279 276 277 282 284 284 283 283 283 283 283 283 284 283 283 284 284 284 284 283 283 282 282 283 283 281 279 281 283 284 283 282 280 280 279 279 277 276 275 274
281 282 278 280 280 282 279 279 278 278 280 284 282 277 277 279 280 283 282 283 283 283 283 283 283 283 283 282 282 281 281 281 282 281 280 280 281 281 282 283 283 282 283 284 283 282 281 280 277 276 275 274 273 273
280 282 281 277 279 280 281 280 281 284 285 285 281 281 282 284 284 283 283 283 283 283 282 281 281 282 282 282 282 283 282 282 280 277 277 275 275 276 281 281 282 282 282 282 281 281 279 278 276 275 273 272 271 270
280 283 280 279 277 278 282 282 283 283 284 284 284 285 284 283 281 283 282 282 282 281 282 283 283 283 281 281 279 280 283 283 283 282 280 278 276 278 279 279 278 278 276 274 273 272 272 271 270 269 268 267 267 266
282 281 279 280 280 282 282 281 282 281 281 281 283 281 283 281 279 279 277 278 279 280 280 280 281 282 281 281 280 279 278 282 281 281 280 280 279 279 278 277 276 275 273 273 272 270 270 269 268 267 266 265 263 263
280 279 280 277 280 280 281 280 280 279 281 279 280 281 280 279 279 276 275 276 278 278 279 280 281 281 283 282 282 282 282 280 280 280 279 279 278 277 277 276 275 275 274 273 272 271 270 269 267 265 264 263 262 261
280 280 280 279 278 277 279 278 278 278 279 278 279 279 279 277 275 274 277 276 275 276 276 278 279 279 280 280 279 279 279 279 279 278 277 277 276 276 276 276 275 274 272 271 270 269 267 266 265 264 262 261 260 259

GFSWCAN_sfc_thetae_123.txt.gz
Theta_e
298 300 300 300 298 299 299 300 299 299 299 299 300 300 301 301 302 299 296 302 298 289 291 296 297 291 293 290 284 288 286 287 286 282 282 281 280 281 283 285 282 280 277 276 278 277 275 287 286 281 282 285 286 285
300 301 300 300 301 301 299 299 300 299 299 299 300 300 301 301 302 301 293 301 304 292 291 297 297 297 299 294 290 291 289 289 288 285 284 284 281 282 283 281 288 280 282 278 280 277 282 284 283 287 287 283 282 281
301 300 302 303 302 301 299 299 300 300 299 300 300 301 301 301 302 301 295 300 298 292 289 290 291 298 302 299 300 289 292 293 292 294 289 287 282 286 281 281 282 284 287 280 279 279 282 284 286 286 286 283 282 281
300 299 299 300 300 299 299 300 299 299 300 299 300 301 301 302 302 301 296 301 298 291 286 288 298 296 300 301 299 298 296 297 296 294 287 285 283 289 281 284 282 282 284 280 278 280 281 284 285 284 284 284 281 281
299 300 299 299 300 300 300 300 300 300 300 300 301 301 302 302 303 300 298 302 300 293 285 287 293 297 299 300 299 299 297 294 291 287 286 283 286 285 282 284 279 283 278 277 274 281 280 279 284 285 282 282 282 281
298 299 300 300 299 300 300 300 300 300 300 300 301 302 302 302 302 299 290 299 302 296 286 282 293 294 296 297 297 296 296 294 292 289 285 287 292 287 278 277 283 286 287 284 281 284 282 283 283 284 283 283 283 281
298 298 299 300 300 300 300 300 300 300 300 301 301 302 302 302 301 294 291 296 301 297 288 283 284 293 296 297 294 293 295 293 292 290 285 286 287 287 283 274 279 285 282 284 284 283 281 282 280 283 284 284 285 283
297 298 298 299 299 300 300 301 301 301 301 302 302 302 302 301 300 294 297 301 300 294 293 283 283 286 295 287 286 292 288 289 288 288 287 285 284 283 275 283 280 283 284 283 283 285 283 284 284 284 285 284 281 280
298 298 298 298 299 299 300 300 301 301 301 302 301 302 299 296 292 294 299 299 300 294 285 284 281 279 291 288 288 288 288 280 287 282 284 286 280 277 280 282 281 283 284 283 284 284 284 282 283 283 283 282 280 278
297 297 298 298 298 299 299 300 300 301 301 301 299 291 285 292 297 298 297 290 291 291 291 284 287 282 289 286 284 283 285 282 278 281 286 280 277 286 287 285 285 285 287 285 282 280 282 281 282 283 282 282 281 279
297 297 297 297 298 299 299 300 300 301 301 295 290 288 294 298 296 292 285 284 285 283 286 286 286 285 290 282 281 285 280 280 277 280 279 277 276 281 286 285 286 286 288 287 285 284 284 284 283 283 283 282 281 279
297 297 297 297 297 298 299 299 300 297 295 295 294 297 297 292 287 283 280 283 283 280 284 283 284 287 288 290 283 284 280 279 275 282 276 272 282 286 286 287 286 288 287 287 287 284 285 285 284 284 283 281 279 276
295 296 296 296 297 298 298 299 299 299 299 296 293 287 286 284 276 276 273 279 278 282 283 283 283 286 287 288 281 281 276 274 283 271 274 278 283 287 286 286 286 286 286 285 283 284 285 285 284 281 276 276 275 273
295 295 296 296 297 297 298 299 299 299 296 287 282 275 278 278 278 282 281 280 282 284 286 285 282 282 281 280 279 274 279 279 271 269 277 282 284 284 284 284 284 283 283 283 281 282 281 278 277 277 276 275 274 272
296 295 294 295 297 298 298 299 300 298 291 284 284 276 277 282 284 285 286 285 286 286 285 284 283 284 279 277 279 277 275 270 274 274 281 282 284 283 283 283 280 280 280 280 280 278 277 277 276 275 275 274 274 272
296 294 292 296 297 298 299 299 297 295 289 285 284 280 282 283 284 286 286 285 289 285 285 285 280 276 276 278 277 273 276 273 279 281 283 284 284 284 283 281 280 281 281 279 278 278 277 276 275 274 273 273 272 271
295 289 295 296 297 298 299 294 289 286 285 283 283 285 284 284 284 285 286 285 289 284 278 282 276 277 280 276 277 279 276 280 282 282 283 284 285 284 283 280 280 280 279 278 276 276 275 275 274 272 271 271 272 271
289 292 296 297 296 295 291 292 286 285 283 284 282 283 284 286 285 285 285 285 286 283 283 281 283 280 273 276 273 280 281 282 282 282 282 284 285 285 284 282 280 280 279 277 276 275 274 272 272 272 272 273 273 273
293 293 295 296 295 290 284 285 287 281 283 285 285 284 284 285 286 283 284 287 289 289 285 283 281 277 279 283 282 282 282 282 280 280 281 283 284 284 283 282 281 280 278 277 277 275 275 276 275 274 273 274 272 272
296 295 295 296 296 287 283 283 289 283 281 283 284 283 284 284 282 285 284 284 285 284 283 281 282 284 284 284 285 283 284 283 280 279 279 280 282 282 282 281 279 280 279 279 278 277 276 276 277 275 274 274 273 272
293 292 295 293 289 288 285 283 283 283 283 280 282 284 283 285 280 281 281 285 283 282 280 282 284 283 284 285 287 286 284 285 284 283 280 279 281 281 281 281 280 279 277 277 275 276 276 276 276 276 275 275 274 274
290 294 289 290 285 285 282 285 283 284 283 283 283 283 282 280 281 278 282 282 284 283 285 284 284 282 283 283 282 284 284 284 283 281 281 280 281 280 280 280 279 277 277 277 276 275 275 276 276 275 273 275 276 276
292 291 286 286 278 277 276 284 280 282 278 279 282 280 279 280 281 283 279 284 283 285 284 283 284 285 283 283 283 283 284 285 284 281 282 283 283 282 282 281 280 280 278 277 278 277 275 276 275 275 277 277 276 275
291 283 276 276 278 274 279 276 281 279 280 279 277 277 278 279 281 280 281 283 283 283 282 283 285 283 283 285 283 283 282 285 282 281 283 282 281 280 281 280 281 281 281 280 278 276 277 276 275 277 277 276 275 274
274 274 275 269 278 273 272 273 274 277 272 278 274 274 278 281 275 274 277 281 281 281 281 283 283 284 282 281 282 279 281 283 282 281 282 283 281 280 279 280 279 280 283 280 277 277 277 278 278 278 276 275 274 273
268 273 273 274 273 273 275 269 270 271 273 271 274 278 277 275 271 273 278 280 281 280 281 281 281 282 281 283 281 280 278 282 283 280 281 282 281 280 279 278 277 277 280 280 280 278 278 278 277 276 274 274 275 272
268 270 279 282 280 280 274 276 278 274 269 269 272 272 270 266 268 278 280 280 280 281 281 281 282 282 281 281 281 280 279 279 280 279 278 278 279 280 279 278 277 276 276 280 281 279 278 277 277 277 275 274 272 272
276 278 270 278 278 278 271 272 271 270 273 279 276 269 268 270 275 279 279 280 281 282 281 281 281 281 281 280 279 279 278 277 274 275 275 275 275 276 276 278 277 278 277 281 281 280 279 278 276 274 273 272 272 271
275 277 280 275 277 278 273 274 275 278 279 277 272 275 276 279 280 280 279 280 281 281 280 279 279 280 280 279 280 280 279 278 273 271 267 267 273 273 277 277 277 278 280 280 279 277 276 275 273 272 271 269 268 267
274 279 274 270 268 271 278 279 280 280 281 280 278 278 278 279 278 280 279 280 279 279 281 282 280 280 279 279 277 278 281 281 280 279 274 267 268 275 275 273 272 273 273 273 272 271 272 270 270 268 266 265 264 263
280 279 276 274 272 279 280 280 280 280 279 279 281 279 279 277 275 275 273 275 277 278 278 278 280 281 280 279 278 277 276 276 275 275 276 276 274 275 273 271 272 272 271 270 269 268 267 266 265 264 263 262 260 260
279 278 278 275 278 279 280 278 278 278 280 279 278 279 278 278 274 269 270 272 274 275 277 275 277 279 278 277 279 278 277 277 278 277 277 276 275 273 273 272 272 272 271 270 269 268 267 265 264 262 261 260 259 257
279 279 276 275 277 277 277 272 276 276 277 274 276 275 276 273 268 269 271 270 270 271 271 273 275 275 275 274 273 274 276 277 276 276 275 275 274 274 274 273 272 271 270 269 267 266 264 263 262 260 258 257 257 255

GFSWCAN_sfc_thetae_126.txt.gz
Theta_e
298 298 298 297 297 297 297 298 298 298 298 299 299 300 300 300 301 297 293 298 292 289 288 293 295 288 289 287 282 286 286 286 283 281 280 279 279 283 283 285 282 280 278 278 279 275 273 285 285 279 281 284 284 283
299 299 299 299 299 299 298 298 298 298 298 298 299 300 300 301 301 300 289 299 299 292 290 293 294 297 294 294 287 287 285 285 284 282 283 284 280 282 281 278 288 280 282 277 279 278 281 283 283 285 286 283 283 283
300 300 301 300 300 300 299 299 299 298 298 298 299 300 300 301 301 299 290 298 296 290 288 288 289 296 299 298 298 286 287 291 289 292 288 287 283 284 280 281 283 285 287 281 280 280 281 283 284 285 284 282 282 282
300 299 301 302 301 300 300 299 299 299 298 298 299 299 300 301 301 300 293 298 295 291 285 288 297 296 301 301 299 298 295 295 294 293 288 286 283 288 281 285 284 282 284 280 278 278 281 282 281 282 280 280 280 280
300 299 299 300 301 300 301 300 299 299 299 299 298 300 301 301 301 298 293 299 299 292 284 287 294 296 299 298 298 298 296 293 290 287 285 283 285 284 281 284 280 283 280 277 276 281 280 277 280 282 280 279 279 278
300 300 299 299 299 299 299 299 299 299 299 298 300 300 301 301 301 295 287 296 299 298 287 282 293 294 297 298 298 297 295 294 292 288 285 286 290 283 275 276 281 283 283 283 280 283 281 281 281 282 280 280 281 279
300 300 299 299 299 299 299 299 299 299 299 299 300 300 301 300 297 289 288 293 298 297 285 283 284 292 296 296 295 293 295 293 291 288 285 285 285 285 277 273 279 280 281 282 283 283 281 281 280 282 282 282 283 281
300 300 300 299 299 299 299 299 299 299 300 300 300 301 300 301 299 293 297 299 299 293 289 279 283 286 295 288 285 291 287 289 288 288 286 284 283 279 275 275 278 281 282 282 282 284 282 282 283 283 284 283 281 279
299 300 300 299 299 299 299 299 300 300 300 301 301 301 299 294 290 294 300 301 299 293 282 281 279 279 291 288 288 288 288 283 287 283 284 284 278 277 279 279 279 281 281 281 282 282 282 281 282 283 283 282 280 279
298 299 300 300 299 299 300 300 300 301 301 300 298 291 285 293 300 300 296 290 288 290 288 282 285 280 288 285 284 284 284 281 278 281 284 279 277 284 286 284 284 283 284 283 279 279 281 281 281 282 282 282 281 279
298 299 299 300 300 300 300 300 300 300 300 295 287 287 294 300 294 289 284 283 284 281 284 283 285 284 290 284 282 284 279 280 277 279 279 276 275 280 284 284 284 284 285 284 283 282 282 283 282 282 282 282 280 278
298 298 299 299 300 299 299 299 300 296 293 292 294 297 295 291 286 282 278 281 281 280 282 284 284 287 287 287 282 282 280 278 274 279 275 271 277 284 284 284 284 285 287 285 284 282 282 283 284 284 283 281 279 277
297 298 298 299 299 300 300 300 300 300 298 295 291 286 285 281 275 274 272 277 276 281 284 284 282 286 286 286 281 280 274 273 280 269 273 275 280 286 286 286 285 286 286 285 283 282 283 284 284 283 279 278 276 275
296 296 297 298 299 299 300 300 300 298 294 285 282 276 278 273 277 280 280 281 282 284 286 284 282 283 280 281 277 273 276 278 268 267 274 276 284 284 284 284 284 283 283 283 282 284 282 280 278 278 277 276 275 273
295 296 296 297 298 299 299 299 299 295 288 283 282 275 276 281 284 285 284 282 282 283 283 283 281 281 278 276 277 276 271 268 272 272 281 280 283 281 283 283 282 279 279 280 280 278 277 277 276 275 276 276 275 273
295 293 292 297 298 299 298 296 294 291 285 283 283 278 283 284 284 284 282 286 287 282 282 282 278 274 274 277 276 272 274 271 273 280 282 284 283 283 282 282 280 278 278 276 277 276 276 276 275 274 274 274 273 273
294 287 295 297 297 297 298 290 286 284 284 283 282 285 284 284 284 285 285 285 286 283 277 280 274 275 279 274 276 281 272 271 281 281 282 283 284 283 282 281 277 276 275 274 275 275 275 274 274 273 271 272 273 273
287 290 296 298 295 293 287 287 284 283 283 283 281 283 283 285 284 284 283 284 284 281 281 280 281 278 272 275 276 276 280 281 281 281 282 284 285 283 282 280 276 276 274 272 273 274 273 273 274 273 273 273 273 273
292 292 296 297 293 287 283 284 285 281 283 284 285 284 281 280 282 283 283 283 287 287 284 282 280 280 280 280 275 281 281 281 279 280 281 283 284 283 282 281 277 274 275 274 275 274 275 276 275 274 273 273 272 273
295 295 295 296 294 284 282 281 286 282 280 282 280 279 279 280 281 282 281 283 283 282 282 282 281 283 283 282 280 283 282 282 280 279 279 280 282 282 282 281 280 278 277 277 277 276 275 275 275 274 273 273 271 271
290 290 293 290 287 286 283 281 282 281 281 279 282 283 280 282 279 278 279 282 282 281 282 283 283 282 285 285 284 285 283 282 281 280 277 279 281 281 281 280 280 278 277 276 275 275 275 276 275 275 274 272 272 273
287 293 286 287 282 282 281 282 281 282 281 281 282 283 280 276 272 275 281 281 282 283 282 281 279 280 284 284 284 285 285 285 282 279 278 280 280 279 280 279 278 273 274 274 276 275 276 276 276 275 274 274 274 274
289 287 282 281 276 274 275 280 279 281 276 278 281 279 278 276 277 282 277 283 282 284 283 284 284 284 282 283 283 283 284 283 281 280 280 281 281 281 280 279 279 277 275 274 276 275 274 274 274 274 274 274 274 275
288 281 274 273 275 268 275 272 279 278 278 279 277 276 278 277 279 280 280 281 282 282 282 283 282 282 283 283 282 281 282 284 282 281 282 282 280 280 280 280 280 281 280 278 276 274 272 272 273 275 276 275 274 273
272 272 270 265 273 270 268 268 270 274 268 273 272 270 271 281 275 272 279 280 280 280 281 282 283 283 281 280 280 280 281 283 282 280 281 282 280 280 279 279 279 280 281 278 273 273 273 275 276 276 275 274 273 272
265 268 269 267 268 270 272 266 266 268 268 267 270 275 275 271 267 274 278 278 280 279 279 280 280 280 281 282 280 279 279 280 281 279 280 282 280 279 278 278 277 277 278 278 277 275 275 276 275 274 275 274 272 269
265 265 276 279 278 278 270 271 275 269 265 266 267 265 264 263 266 277 279 279 279 279 281 281 281 281 280 279 279 279 277 278 279 278 278 277 277 278 279 278 276 275 276 278 278 278 277 276 274 275 275 273 271 269
271 274 266 270 270 273 265 265 265 266 271 278 272 265 266 270 271 277 278 279 280 280 280 280 281 281 280 278 278 278 276 275 274 273 272 273 272 273 272 271 272 275 272 278 279 279 278 278 276 274 273 271 270 268
269 272 274 266 267 269 270 271 274 278 279 272 268 271 276 278 278 278 278 279 280 280 278 278 278 279 279 278 278 278 278 275 269 265 262 262 263 272 273 273 276 277 278 278 278 277 276 275 274 272 270 268 267 266
270 273 268 262 264 271 276 278 278 278 279 280 278 278 278 277 276 276 276 277 277 277 278 280 279 279 277 277 277 277 279 278 277 273 266 263 265 268 265 267 270 272 274 273 271 271 272 270 269 268 266 265 263 262
279 268 267 266 270 277 277 278 279 279 278 279 280 278 275 274 271 272 268 271 273 276 276 277 278 279 279 278 277 277 275 274 270 271 272 272 270 267 268 270 270 271 271 270 269 268 267 266 265 264 262 261 261 260
272 272 270 269 269 274 279 276 276 277 277 276 275 277 277 276 270 266 269 267 269 269 269 270 271 273 274 274 275 275 274 275 273 274 274 272 271 270 271 271 271 270 269 267 267 266 265 264 263 262 260 259 258 257
276 276 271 268 275 274 271 265 270 274 271 267 268 267 268 267 264 265 268 266 267 267 266 267 269 271 271 270 270 272 274 274 275 275 274 273 272 272 271 271 270 269 268 266 265 264 263 261 260 259 258 257 256 255